<?xml version="1.0" encoding="UTF-8" standalone="no" ?>
<gpx xmlns="http://www.topografix.com/GPX/1/1" xmlns:xsi="http://www.w3.org/2001/XMLSchema-instance" xsi:schemaLocation="http://www.topografix.com/GPX/1/1 http://www.topografix.com/GPX/1/1/gpx.xsd" version="1.1" creator="VisuGPX - https://www.visugpx.com">
  <metadata>
    <name>Pas de Chabrinel</name>
    <desc><![CDATA[Départ: col du Rousset, pas de l\'échelette, pas des econdus, Cabane de Pré Peyret, pas de Chabrinel]]></desc>
  </metadata>
  <trk>
    <name><![CDATA[CHABRINEL]]></name>
    <trkseg>
      <trkpt lat="44.84079" lon="5.4062">
        <ele>1362.81</ele>
        <time>2015-07-16T06:05:02Z</time>
      </trkpt>
      <trkpt lat="44.84079" lon="5.4062">
        <ele>1362.81</ele>
        <time>2015-07-16T06:05:03Z</time>
      </trkpt>
      <trkpt lat="44.84079" lon="5.4062">
        <ele>1254.18</ele>
        <time>2015-07-16T06:05:07Z</time>
      </trkpt>
      <trkpt lat="44.8408" lon="5.4062">
        <ele>1254.18</ele>
        <time>2015-07-16T06:05:08Z</time>
      </trkpt>
      <trkpt lat="44.84079" lon="5.40616">
        <ele>1253.7</ele>
        <time>2015-07-16T06:05:32Z</time>
      </trkpt>
      <trkpt lat="44.84079" lon="5.40614">
        <ele>1253.7</ele>
        <time>2015-07-16T06:05:58Z</time>
      </trkpt>
      <trkpt lat="44.84077" lon="5.40611">
        <ele>1253.7</ele>
        <time>2015-07-16T06:06:28Z</time>
      </trkpt>
      <trkpt lat="44.84078" lon="5.40618">
        <ele>1253.7</ele>
        <time>2015-07-16T06:07:05Z</time>
      </trkpt>
      <trkpt lat="44.84077" lon="5.40614">
        <ele>1253.7</ele>
        <time>2015-07-16T06:07:34Z</time>
      </trkpt>
      <trkpt lat="44.84078" lon="5.40611">
        <ele>1253.7</ele>
        <time>2015-07-16T06:08:05Z</time>
      </trkpt>
      <trkpt lat="44.84073" lon="5.40604">
        <ele>1253.7</ele>
        <time>2015-07-16T06:08:42Z</time>
      </trkpt>
      <trkpt lat="44.84077" lon="5.40615">
        <ele>1254.18</ele>
        <time>2015-07-16T06:09:11Z</time>
      </trkpt>
      <trkpt lat="44.84077" lon="5.40611">
        <ele>1254.18</ele>
        <time>2015-07-16T06:09:41Z</time>
      </trkpt>
      <trkpt lat="44.84085" lon="5.40608">
        <ele>1253.7</ele>
        <time>2015-07-16T06:10:05Z</time>
      </trkpt>
      <trkpt lat="44.84083" lon="5.4061">
        <ele>1254.18</ele>
        <time>2015-07-16T06:10:33Z</time>
      </trkpt>
      <trkpt lat="44.84075" lon="5.40618">
        <ele>1255.14</ele>
        <time>2015-07-16T06:10:55Z</time>
      </trkpt>
      <trkpt lat="44.84075" lon="5.40617">
        <ele>1255.14</ele>
        <time>2015-07-16T06:10:56Z</time>
      </trkpt>
      <trkpt lat="44.84077" lon="5.40616">
        <ele>1253.7</ele>
        <time>2015-07-16T06:11:00Z</time>
      </trkpt>
      <trkpt lat="44.84075" lon="5.40613">
        <ele>1254.18</ele>
        <time>2015-07-16T06:11:24Z</time>
      </trkpt>
      <trkpt lat="44.84075" lon="5.40615">
        <ele>1253.7</ele>
        <time>2015-07-16T06:11:47Z</time>
      </trkpt>
      <trkpt lat="44.84073" lon="5.40624">
        <ele>1254.66</ele>
        <time>2015-07-16T06:12:02Z</time>
      </trkpt>
      <trkpt lat="44.84071" lon="5.40621">
        <ele>1254.18</ele>
        <time>2015-07-16T06:12:19Z</time>
      </trkpt>
      <trkpt lat="44.84072" lon="5.40617">
        <ele>1254.18</ele>
        <time>2015-07-16T06:12:41Z</time>
      </trkpt>
      <trkpt lat="44.84072" lon="5.40616">
        <ele>1254.18</ele>
        <time>2015-07-16T06:13:09Z</time>
      </trkpt>
      <trkpt lat="44.84069" lon="5.40617">
        <ele>1254.66</ele>
        <time>2015-07-16T06:13:31Z</time>
      </trkpt>
      <trkpt lat="44.8407" lon="5.40611">
        <ele>1254.66</ele>
        <time>2015-07-16T06:13:44Z</time>
      </trkpt>
      <trkpt lat="44.84066" lon="5.40613">
        <ele>1254.18</ele>
        <time>2015-07-16T06:13:47Z</time>
      </trkpt>
      <trkpt lat="44.84047" lon="5.4062">
        <ele>1255.14</ele>
        <time>2015-07-16T06:14:06Z</time>
      </trkpt>
      <trkpt lat="44.8404" lon="5.40621">
        <ele>1255.14</ele>
        <time>2015-07-16T06:14:12Z</time>
      </trkpt>
      <trkpt lat="44.84023" lon="5.40624">
        <ele>1256.58</ele>
        <time>2015-07-16T06:14:29Z</time>
      </trkpt>
      <trkpt lat="44.84005" lon="5.40611">
        <ele>1257.06</ele>
        <time>2015-07-16T06:14:49Z</time>
      </trkpt>
      <trkpt lat="44.83992" lon="5.40595">
        <ele>1258.02</ele>
        <time>2015-07-16T06:15:08Z</time>
      </trkpt>
      <trkpt lat="44.83972" lon="5.40575">
        <ele>1258.98</ele>
        <time>2015-07-16T06:15:32Z</time>
      </trkpt>
      <trkpt lat="44.8396" lon="5.40576">
        <ele>1259.46</ele>
        <time>2015-07-16T06:15:55Z</time>
      </trkpt>
      <trkpt lat="44.83968" lon="5.40581">
        <ele>1258.98</ele>
        <time>2015-07-16T06:15:59Z</time>
      </trkpt>
      <trkpt lat="44.83991" lon="5.40593">
        <ele>1258.02</ele>
        <time>2015-07-16T06:16:16Z</time>
      </trkpt>
      <trkpt lat="44.83999" lon="5.40607">
        <ele>1258.02</ele>
        <time>2015-07-16T06:16:25Z</time>
      </trkpt>
      <trkpt lat="44.84028" lon="5.40622">
        <ele>1257.06</ele>
        <time>2015-07-16T06:16:46Z</time>
      </trkpt>
      <trkpt lat="44.84057" lon="5.40623">
        <ele>1255.62</ele>
        <time>2015-07-16T06:17:06Z</time>
      </trkpt>
      <trkpt lat="44.84076" lon="5.40615">
        <ele>1255.14</ele>
        <time>2015-07-16T06:17:26Z</time>
      </trkpt>
      <trkpt lat="44.84072" lon="5.40617">
        <ele>1254.66</ele>
        <time>2015-07-16T06:17:31Z</time>
      </trkpt>
      <trkpt lat="44.8407" lon="5.40618">
        <ele>1255.14</ele>
        <time>2015-07-16T06:17:33Z</time>
      </trkpt>
      <trkpt lat="44.84058" lon="5.4062">
        <ele>1255.14</ele>
        <time>2015-07-16T06:17:47Z</time>
      </trkpt>
      <trkpt lat="44.84029" lon="5.40624">
        <ele>1256.1</ele>
        <time>2015-07-16T06:18:08Z</time>
      </trkpt>
      <trkpt lat="44.84" lon="5.40614">
        <ele>1257.54</ele>
        <time>2015-07-16T06:18:30Z</time>
      </trkpt>
      <trkpt lat="44.83987" lon="5.40581">
        <ele>1258.98</ele>
        <time>2015-07-16T06:18:50Z</time>
      </trkpt>
      <trkpt lat="44.83963" lon="5.40586">
        <ele>1259.46</ele>
        <time>2015-07-16T06:19:09Z</time>
      </trkpt>
      <trkpt lat="44.83931" lon="5.40591">
        <ele>1260.91</ele>
        <time>2015-07-16T06:19:34Z</time>
      </trkpt>
      <trkpt lat="44.83926" lon="5.40592">
        <ele>1261.87</ele>
        <time>2015-07-16T06:19:50Z</time>
      </trkpt>
      <trkpt lat="44.83923" lon="5.40588">
        <ele>1262.35</ele>
        <time>2015-07-16T06:20:13Z</time>
      </trkpt>
      <trkpt lat="44.83923" lon="5.40594">
        <ele>1261.87</ele>
        <time>2015-07-16T06:20:38Z</time>
      </trkpt>
      <trkpt lat="44.83913" lon="5.406">
        <ele>1262.83</ele>
        <time>2015-07-16T06:20:52Z</time>
      </trkpt>
      <trkpt lat="44.83901" lon="5.40609">
        <ele>1263.31</ele>
        <time>2015-07-16T06:21:09Z</time>
      </trkpt>
      <trkpt lat="44.83889" lon="5.40616">
        <ele>1263.31</ele>
        <time>2015-07-16T06:21:30Z</time>
      </trkpt>
      <trkpt lat="44.83881" lon="5.40623">
        <ele>1263.31</ele>
        <time>2015-07-16T06:21:50Z</time>
      </trkpt>
      <trkpt lat="44.83879" lon="5.40624">
        <ele>1265.71</ele>
        <time>2015-07-16T06:21:53Z</time>
      </trkpt>
      <trkpt lat="44.8387" lon="5.40625">
        <ele>1265.71</ele>
        <time>2015-07-16T06:22:12Z</time>
      </trkpt>
      <trkpt lat="44.83863" lon="5.40629">
        <ele>1267.16</ele>
        <time>2015-07-16T06:22:31Z</time>
      </trkpt>
      <trkpt lat="44.83863" lon="5.4063">
        <ele>1267.16</ele>
        <time>2015-07-16T06:22:32Z</time>
      </trkpt>
      <trkpt lat="44.83861" lon="5.4063">
        <ele>1369.54</ele>
        <time>2015-07-16T06:22:34Z</time>
      </trkpt>
      <trkpt lat="44.8386" lon="5.4063">
        <ele>1369.54</ele>
        <time>2015-07-16T06:22:35Z</time>
      </trkpt>
      <trkpt lat="44.83856" lon="5.40631">
        <ele>1367.61</ele>
        <time>2015-07-16T06:22:40Z</time>
      </trkpt>
      <trkpt lat="44.83839" lon="5.40632">
        <ele>1368.57</ele>
        <time>2015-07-16T06:22:57Z</time>
      </trkpt>
      <trkpt lat="44.83829" lon="5.40642">
        <ele>1368.57</ele>
        <time>2015-07-16T06:23:11Z</time>
      </trkpt>
      <trkpt lat="44.83813" lon="5.40647">
        <ele>1369.54</ele>
        <time>2015-07-16T06:23:25Z</time>
      </trkpt>
      <trkpt lat="44.83792" lon="5.40642">
        <ele>1370.98</ele>
        <time>2015-07-16T06:23:44Z</time>
      </trkpt>
      <trkpt lat="44.83779" lon="5.40641">
        <ele>1371.46</ele>
        <time>2015-07-16T06:23:59Z</time>
      </trkpt>
      <trkpt lat="44.83768" lon="5.40642">
        <ele>1372.42</ele>
        <time>2015-07-16T06:24:12Z</time>
      </trkpt>
      <trkpt lat="44.83755" lon="5.40643">
        <ele>1372.9</ele>
        <time>2015-07-16T06:24:27Z</time>
      </trkpt>
      <trkpt lat="44.83742" lon="5.40645">
        <ele>1374.34</ele>
        <time>2015-07-16T06:24:43Z</time>
      </trkpt>
      <trkpt lat="44.83733" lon="5.40647">
        <ele>1375.3</ele>
        <time>2015-07-16T06:24:57Z</time>
      </trkpt>
      <trkpt lat="44.8372" lon="5.4065">
        <ele>1376.75</ele>
        <time>2015-07-16T06:25:13Z</time>
      </trkpt>
      <trkpt lat="44.83708" lon="5.4065">
        <ele>1377.71</ele>
        <time>2015-07-16T06:25:29Z</time>
      </trkpt>
      <trkpt lat="44.83697" lon="5.4065">
        <ele>1378.19</ele>
        <time>2015-07-16T06:25:43Z</time>
      </trkpt>
      <trkpt lat="44.83688" lon="5.40649">
        <ele>1379.63</ele>
        <time>2015-07-16T06:25:57Z</time>
      </trkpt>
      <trkpt lat="44.83677" lon="5.40656">
        <ele>1381.07</ele>
        <time>2015-07-16T06:26:15Z</time>
      </trkpt>
      <trkpt lat="44.83666" lon="5.40663">
        <ele>1382.03</ele>
        <time>2015-07-16T06:26:31Z</time>
      </trkpt>
      <trkpt lat="44.83656" lon="5.4067">
        <ele>1382.99</ele>
        <time>2015-07-16T06:26:46Z</time>
      </trkpt>
      <trkpt lat="44.83646" lon="5.40664">
        <ele>1384.44</ele>
        <time>2015-07-16T06:26:59Z</time>
      </trkpt>
      <trkpt lat="44.83637" lon="5.40674">
        <ele>1385.88</ele>
        <time>2015-07-16T06:27:14Z</time>
      </trkpt>
      <trkpt lat="44.83626" lon="5.40679">
        <ele>1386.84</ele>
        <time>2015-07-16T06:27:28Z</time>
      </trkpt>
      <trkpt lat="44.83617" lon="5.40687">
        <ele>1387.8</ele>
        <time>2015-07-16T06:27:42Z</time>
      </trkpt>
      <trkpt lat="44.83607" lon="5.40695">
        <ele>1388.76</ele>
        <time>2015-07-16T06:27:56Z</time>
      </trkpt>
      <trkpt lat="44.83596" lon="5.40697">
        <ele>1390.2</ele>
        <time>2015-07-16T06:28:11Z</time>
      </trkpt>
      <trkpt lat="44.83586" lon="5.40702">
        <ele>1391.65</ele>
        <time>2015-07-16T06:28:26Z</time>
      </trkpt>
      <trkpt lat="44.83584" lon="5.40702">
        <ele>1393.09</ele>
        <time>2015-07-16T06:28:42Z</time>
      </trkpt>
      <trkpt lat="44.83573" lon="5.40707">
        <ele>1394.05</ele>
        <time>2015-07-16T06:28:58Z</time>
      </trkpt>
      <trkpt lat="44.83556" lon="5.40708">
        <ele>1395.97</ele>
        <time>2015-07-16T06:29:16Z</time>
      </trkpt>
      <trkpt lat="44.83547" lon="5.40712">
        <ele>1397.89</ele>
        <time>2015-07-16T06:29:33Z</time>
      </trkpt>
      <trkpt lat="44.83536" lon="5.40716">
        <ele>1400.3</ele>
        <time>2015-07-16T06:29:51Z</time>
      </trkpt>
      <trkpt lat="44.83526" lon="5.4072">
        <ele>1402.22</ele>
        <time>2015-07-16T06:30:09Z</time>
      </trkpt>
      <trkpt lat="44.83516" lon="5.40723">
        <ele>1404.14</ele>
        <time>2015-07-16T06:30:24Z</time>
      </trkpt>
      <trkpt lat="44.83499" lon="5.40723">
        <ele>1405.58</ele>
        <time>2015-07-16T06:30:40Z</time>
      </trkpt>
      <trkpt lat="44.83489" lon="5.4072">
        <ele>1407.03</ele>
        <time>2015-07-16T06:30:54Z</time>
      </trkpt>
      <trkpt lat="44.83479" lon="5.40721">
        <ele>1408.95</ele>
        <time>2015-07-16T06:31:11Z</time>
      </trkpt>
      <trkpt lat="44.83466" lon="5.40718">
        <ele>1411.35</ele>
        <time>2015-07-16T06:31:30Z</time>
      </trkpt>
      <trkpt lat="44.83454" lon="5.40716">
        <ele>1412.79</ele>
        <time>2015-07-16T06:31:46Z</time>
      </trkpt>
      <trkpt lat="44.83444" lon="5.40713">
        <ele>1413.28</ele>
        <time>2015-07-16T06:32:02Z</time>
      </trkpt>
      <trkpt lat="44.83431" lon="5.40713">
        <ele>1415.2</ele>
        <time>2015-07-16T06:32:21Z</time>
      </trkpt>
      <trkpt lat="44.83419" lon="5.40718">
        <ele>1417.12</ele>
        <time>2015-07-16T06:32:40Z</time>
      </trkpt>
      <trkpt lat="44.83426" lon="5.40729">
        <ele>1418.56</ele>
        <time>2015-07-16T06:32:55Z</time>
      </trkpt>
      <trkpt lat="44.83416" lon="5.40726">
        <ele>1418.08</ele>
        <time>2015-07-16T06:33:12Z</time>
      </trkpt>
      <trkpt lat="44.83408" lon="5.40735">
        <ele>1419.52</ele>
        <time>2015-07-16T06:33:26Z</time>
      </trkpt>
      <trkpt lat="44.83396" lon="5.40738">
        <ele>1421.45</ele>
        <time>2015-07-16T06:33:40Z</time>
      </trkpt>
      <trkpt lat="44.83389" lon="5.4074">
        <ele>1423.37</ele>
        <time>2015-07-16T06:33:58Z</time>
      </trkpt>
      <trkpt lat="44.83384" lon="5.40741">
        <ele>1424.33</ele>
        <time>2015-07-16T06:34:14Z</time>
      </trkpt>
      <trkpt lat="44.83371" lon="5.40746">
        <ele>1425.77</ele>
        <time>2015-07-16T06:34:30Z</time>
      </trkpt>
      <trkpt lat="44.83359" lon="5.40747">
        <ele>1427.21</ele>
        <time>2015-07-16T06:34:48Z</time>
      </trkpt>
      <trkpt lat="44.83348" lon="5.4075">
        <ele>1427.7</ele>
        <time>2015-07-16T06:35:01Z</time>
      </trkpt>
      <trkpt lat="44.83333" lon="5.40747">
        <ele>1428.66</ele>
        <time>2015-07-16T06:35:16Z</time>
      </trkpt>
      <trkpt lat="44.83327" lon="5.40746">
        <ele>1429.14</ele>
        <time>2015-07-16T06:35:23Z</time>
      </trkpt>
      <trkpt lat="44.83322" lon="5.40743">
        <ele>1429.14</ele>
        <time>2015-07-16T06:35:28Z</time>
      </trkpt>
      <trkpt lat="44.8331" lon="5.40735">
        <ele>1430.1</ele>
        <time>2015-07-16T06:35:42Z</time>
      </trkpt>
      <trkpt lat="44.83297" lon="5.40728">
        <ele>1431.54</ele>
        <time>2015-07-16T06:36:01Z</time>
      </trkpt>
      <trkpt lat="44.83293" lon="5.40725">
        <ele>1432.02</ele>
        <time>2015-07-16T06:36:08Z</time>
      </trkpt>
      <trkpt lat="44.83285" lon="5.40723">
        <ele>1432.5</ele>
        <time>2015-07-16T06:36:17Z</time>
      </trkpt>
      <trkpt lat="44.83272" lon="5.4073">
        <ele>1433.94</ele>
        <time>2015-07-16T06:36:33Z</time>
      </trkpt>
      <trkpt lat="44.83261" lon="5.40739">
        <ele>1434.91</ele>
        <time>2015-07-16T06:36:49Z</time>
      </trkpt>
      <trkpt lat="44.83252" lon="5.40747">
        <ele>1435.87</ele>
        <time>2015-07-16T06:37:03Z</time>
      </trkpt>
      <trkpt lat="44.83247" lon="5.40759">
        <ele>1437.31</ele>
        <time>2015-07-16T06:37:17Z</time>
      </trkpt>
      <trkpt lat="44.83247" lon="5.4076">
        <ele>1437.31</ele>
        <time>2015-07-16T06:37:18Z</time>
      </trkpt>
      <trkpt lat="44.83244" lon="5.40772">
        <ele>1438.27</ele>
        <time>2015-07-16T06:37:31Z</time>
      </trkpt>
      <trkpt lat="44.83239" lon="5.40779">
        <ele>1440.19</ele>
        <time>2015-07-16T06:37:43Z</time>
      </trkpt>
      <trkpt lat="44.83236" lon="5.40788">
        <ele>1442.11</ele>
        <time>2015-07-16T06:37:54Z</time>
      </trkpt>
      <trkpt lat="44.83231" lon="5.40795">
        <ele>1444.04</ele>
        <time>2015-07-16T06:38:08Z</time>
      </trkpt>
      <trkpt lat="44.83231" lon="5.40803">
        <ele>1445.96</ele>
        <time>2015-07-16T06:38:24Z</time>
      </trkpt>
      <trkpt lat="44.83226" lon="5.40809">
        <ele>1448.36</ele>
        <time>2015-07-16T06:38:40Z</time>
      </trkpt>
      <trkpt lat="44.83223" lon="5.40816">
        <ele>1449.81</ele>
        <time>2015-07-16T06:38:54Z</time>
      </trkpt>
      <trkpt lat="44.83215" lon="5.40827">
        <ele>1452.21</ele>
        <time>2015-07-16T06:39:13Z</time>
      </trkpt>
      <trkpt lat="44.8321" lon="5.40836">
        <ele>1453.65</ele>
        <time>2015-07-16T06:39:27Z</time>
      </trkpt>
      <trkpt lat="44.83206" lon="5.40845">
        <ele>1456.05</ele>
        <time>2015-07-16T06:39:42Z</time>
      </trkpt>
      <trkpt lat="44.83201" lon="5.40855">
        <ele>1457.98</ele>
        <time>2015-07-16T06:39:56Z</time>
      </trkpt>
      <trkpt lat="44.83195" lon="5.40863">
        <ele>1460.38</ele>
        <time>2015-07-16T06:40:12Z</time>
      </trkpt>
      <trkpt lat="44.83189" lon="5.4087">
        <ele>1462.3</ele>
        <time>2015-07-16T06:40:27Z</time>
      </trkpt>
      <trkpt lat="44.83185" lon="5.40879">
        <ele>1464.71</ele>
        <time>2015-07-16T06:40:42Z</time>
      </trkpt>
      <trkpt lat="44.83179" lon="5.40886">
        <ele>1467.11</ele>
        <time>2015-07-16T06:40:56Z</time>
      </trkpt>
      <trkpt lat="44.83171" lon="5.40889">
        <ele>1469.03</ele>
        <time>2015-07-16T06:41:11Z</time>
      </trkpt>
      <trkpt lat="44.83167" lon="5.40896">
        <ele>1470.95</ele>
        <time>2015-07-16T06:41:25Z</time>
      </trkpt>
      <trkpt lat="44.8316" lon="5.40903">
        <ele>1472.4</ele>
        <time>2015-07-16T06:41:40Z</time>
      </trkpt>
      <trkpt lat="44.83156" lon="5.40913">
        <ele>1474.32</ele>
        <time>2015-07-16T06:41:58Z</time>
      </trkpt>
      <trkpt lat="44.83159" lon="5.40918">
        <ele>1474.8</ele>
        <time>2015-07-16T06:42:14Z</time>
      </trkpt>
      <trkpt lat="44.8317" lon="5.40927">
        <ele>1476.24</ele>
        <time>2015-07-16T06:42:33Z</time>
      </trkpt>
      <trkpt lat="44.83176" lon="5.40933">
        <ele>1478.16</ele>
        <time>2015-07-16T06:42:53Z</time>
      </trkpt>
      <trkpt lat="44.83183" lon="5.4094">
        <ele>1480.57</ele>
        <time>2015-07-16T06:43:15Z</time>
      </trkpt>
      <trkpt lat="44.83185" lon="5.4094">
        <ele>1481.53</ele>
        <time>2015-07-16T06:43:33Z</time>
      </trkpt>
      <trkpt lat="44.83191" lon="5.40949">
        <ele>1482.49</ele>
        <time>2015-07-16T06:43:50Z</time>
      </trkpt>
      <trkpt lat="44.83187" lon="5.40955">
        <ele>1483.45</ele>
        <time>2015-07-16T06:44:06Z</time>
      </trkpt>
      <trkpt lat="44.83192" lon="5.40962">
        <ele>1485.37</ele>
        <time>2015-07-16T06:44:22Z</time>
      </trkpt>
      <trkpt lat="44.83201" lon="5.40971">
        <ele>1488.26</ele>
        <time>2015-07-16T06:44:44Z</time>
      </trkpt>
      <trkpt lat="44.83201" lon="5.40977">
        <ele>1488.74</ele>
        <time>2015-07-16T06:45:04Z</time>
      </trkpt>
      <trkpt lat="44.83202" lon="5.40986">
        <ele>1490.18</ele>
        <time>2015-07-16T06:45:23Z</time>
      </trkpt>
      <trkpt lat="44.83207" lon="5.40991">
        <ele>1492.1</ele>
        <time>2015-07-16T06:45:44Z</time>
      </trkpt>
      <trkpt lat="44.83211" lon="5.41">
        <ele>1494.51</ele>
        <time>2015-07-16T06:46:03Z</time>
      </trkpt>
      <trkpt lat="44.83214" lon="5.41008">
        <ele>1496.43</ele>
        <time>2015-07-16T06:46:23Z</time>
      </trkpt>
      <trkpt lat="44.83211" lon="5.4101">
        <ele>1495.95</ele>
        <time>2015-07-16T06:46:49Z</time>
      </trkpt>
      <trkpt lat="44.8322" lon="5.41014">
        <ele>1497.87</ele>
        <time>2015-07-16T06:47:09Z</time>
      </trkpt>
      <trkpt lat="44.83226" lon="5.41025">
        <ele>1501.24</ele>
        <time>2015-07-16T06:47:30Z</time>
      </trkpt>
      <trkpt lat="44.83233" lon="5.41036">
        <ele>1504.12</ele>
        <time>2015-07-16T06:47:50Z</time>
      </trkpt>
      <trkpt lat="44.83238" lon="5.41049">
        <ele>1507</ele>
        <time>2015-07-16T06:48:06Z</time>
      </trkpt>
      <trkpt lat="44.8324" lon="5.41059">
        <ele>1509.89</ele>
        <time>2015-07-16T06:48:25Z</time>
      </trkpt>
      <trkpt lat="44.83246" lon="5.4107">
        <ele>1512.77</ele>
        <time>2015-07-16T06:48:43Z</time>
      </trkpt>
      <trkpt lat="44.83252" lon="5.41079">
        <ele>1515.18</ele>
        <time>2015-07-16T06:49:02Z</time>
      </trkpt>
      <trkpt lat="44.83253" lon="5.4109">
        <ele>1517.58</ele>
        <time>2015-07-16T06:49:19Z</time>
      </trkpt>
      <trkpt lat="44.83257" lon="5.41099">
        <ele>1519.5</ele>
        <time>2015-07-16T06:49:37Z</time>
      </trkpt>
      <trkpt lat="44.83263" lon="5.41102">
        <ele>1521.42</ele>
        <time>2015-07-16T06:49:50Z</time>
      </trkpt>
      <trkpt lat="44.83261" lon="5.41109">
        <ele>1522.87</ele>
        <time>2015-07-16T06:50:04Z</time>
      </trkpt>
      <trkpt lat="44.83261" lon="5.41115">
        <ele>1525.27</ele>
        <time>2015-07-16T06:50:20Z</time>
      </trkpt>
      <trkpt lat="44.83262" lon="5.41117">
        <ele>1525.75</ele>
        <time>2015-07-16T06:50:37Z</time>
      </trkpt>
      <trkpt lat="44.83262" lon="5.41122">
        <ele>1526.71</ele>
        <time>2015-07-16T06:50:55Z</time>
      </trkpt>
      <trkpt lat="44.83268" lon="5.41128">
        <ele>1528.63</ele>
        <time>2015-07-16T06:51:12Z</time>
      </trkpt>
      <trkpt lat="44.8327" lon="5.41135">
        <ele>1531.04</ele>
        <time>2015-07-16T06:51:34Z</time>
      </trkpt>
      <trkpt lat="44.83278" lon="5.41139">
        <ele>1532.96</ele>
        <time>2015-07-16T06:51:52Z</time>
      </trkpt>
      <trkpt lat="44.83281" lon="5.41149">
        <ele>1536.32</ele>
        <time>2015-07-16T06:52:07Z</time>
      </trkpt>
      <trkpt lat="44.83281" lon="5.41157">
        <ele>1538.25</ele>
        <time>2015-07-16T06:52:20Z</time>
      </trkpt>
      <trkpt lat="44.83288" lon="5.41165">
        <ele>1539.69</ele>
        <time>2015-07-16T06:52:36Z</time>
      </trkpt>
      <trkpt lat="44.8329" lon="5.41175">
        <ele>1541.13</ele>
        <time>2015-07-16T06:52:50Z</time>
      </trkpt>
      <trkpt lat="44.83295" lon="5.41183">
        <ele>1543.05</ele>
        <time>2015-07-16T06:53:07Z</time>
      </trkpt>
      <trkpt lat="44.833" lon="5.41189">
        <ele>1544.98</ele>
        <time>2015-07-16T06:53:21Z</time>
      </trkpt>
      <trkpt lat="44.83302" lon="5.41199">
        <ele>1546.42</ele>
        <time>2015-07-16T06:53:34Z</time>
      </trkpt>
      <trkpt lat="44.83299" lon="5.41209">
        <ele>1546.9</ele>
        <time>2015-07-16T06:53:49Z</time>
      </trkpt>
      <trkpt lat="44.833" lon="5.41214">
        <ele>1546.42</ele>
        <time>2015-07-16T06:54:04Z</time>
      </trkpt>
      <trkpt lat="44.83299" lon="5.41219">
        <ele>1545.94</ele>
        <time>2015-07-16T06:54:18Z</time>
      </trkpt>
      <trkpt lat="44.83298" lon="5.41224">
        <ele>1544.98</ele>
        <time>2015-07-16T06:54:33Z</time>
      </trkpt>
      <trkpt lat="44.833" lon="5.41223">
        <ele>1544.98</ele>
        <time>2015-07-16T06:54:51Z</time>
      </trkpt>
      <trkpt lat="44.833" lon="5.41223">
        <ele>1544.5</ele>
        <time>2015-07-16T06:55:06Z</time>
      </trkpt>
      <trkpt lat="44.83299" lon="5.41226">
        <ele>1544.01</ele>
        <time>2015-07-16T06:55:26Z</time>
      </trkpt>
      <trkpt lat="44.83299" lon="5.41226">
        <ele>1543.53</ele>
        <time>2015-07-16T06:55:47Z</time>
      </trkpt>
      <trkpt lat="44.833" lon="5.41224">
        <ele>1543.53</ele>
        <time>2015-07-16T06:56:07Z</time>
      </trkpt>
      <trkpt lat="44.833" lon="5.41225">
        <ele>1543.05</ele>
        <time>2015-07-16T06:56:25Z</time>
      </trkpt>
      <trkpt lat="44.83297" lon="5.41232">
        <ele>1542.09</ele>
        <time>2015-07-16T06:56:43Z</time>
      </trkpt>
      <trkpt lat="44.83295" lon="5.4123">
        <ele>1542.09</ele>
        <time>2015-07-16T06:56:59Z</time>
      </trkpt>
      <trkpt lat="44.83291" lon="5.41234">
        <ele>1542.09</ele>
        <time>2015-07-16T06:57:12Z</time>
      </trkpt>
      <trkpt lat="44.83296" lon="5.4123">
        <ele>1542.09</ele>
        <time>2015-07-16T06:57:27Z</time>
      </trkpt>
      <trkpt lat="44.83295" lon="5.41229">
        <ele>1541.61</ele>
        <time>2015-07-16T06:57:44Z</time>
      </trkpt>
      <trkpt lat="44.83295" lon="5.41229">
        <ele>1541.13</ele>
        <time>2015-07-16T06:58:12Z</time>
      </trkpt>
      <trkpt lat="44.8329" lon="5.41235">
        <ele>1541.61</ele>
        <time>2015-07-16T06:58:25Z</time>
      </trkpt>
      <trkpt lat="44.83284" lon="5.4124">
        <ele>1541.13</ele>
        <time>2015-07-16T06:58:39Z</time>
      </trkpt>
      <trkpt lat="44.83277" lon="5.41246">
        <ele>1541.13</ele>
        <time>2015-07-16T06:58:54Z</time>
      </trkpt>
      <trkpt lat="44.83269" lon="5.41252">
        <ele>1540.65</ele>
        <time>2015-07-16T06:59:11Z</time>
      </trkpt>
      <trkpt lat="44.83266" lon="5.41257">
        <ele>1541.13</ele>
        <time>2015-07-16T06:59:32Z</time>
      </trkpt>
      <trkpt lat="44.83267" lon="5.41257">
        <ele>1540.65</ele>
        <time>2015-07-16T06:59:49Z</time>
      </trkpt>
      <trkpt lat="44.83268" lon="5.41257">
        <ele>1540.65</ele>
        <time>2015-07-16T07:00:07Z</time>
      </trkpt>
      <trkpt lat="44.83263" lon="5.41263">
        <ele>1540.65</ele>
        <time>2015-07-16T07:00:19Z</time>
      </trkpt>
      <trkpt lat="44.83248" lon="5.4128">
        <ele>1540.65</ele>
        <time>2015-07-16T07:00:39Z</time>
      </trkpt>
      <trkpt lat="44.83232" lon="5.41298">
        <ele>1541.13</ele>
        <time>2015-07-16T07:01:00Z</time>
      </trkpt>
      <trkpt lat="44.83227" lon="5.41306">
        <ele>1541.13</ele>
        <time>2015-07-16T07:01:08Z</time>
      </trkpt>
      <trkpt lat="44.83227" lon="5.41309">
        <ele>1541.13</ele>
        <time>2015-07-16T07:01:10Z</time>
      </trkpt>
      <trkpt lat="44.83216" lon="5.41328">
        <ele>1542.09</ele>
        <time>2015-07-16T07:01:28Z</time>
      </trkpt>
      <trkpt lat="44.83206" lon="5.41344">
        <ele>1542.57</ele>
        <time>2015-07-16T07:01:45Z</time>
      </trkpt>
      <trkpt lat="44.83196" lon="5.41348">
        <ele>1543.05</ele>
        <time>2015-07-16T07:01:56Z</time>
      </trkpt>
      <trkpt lat="44.83183" lon="5.41346">
        <ele>1543.53</ele>
        <time>2015-07-16T07:02:12Z</time>
      </trkpt>
      <trkpt lat="44.83181" lon="5.41345">
        <ele>1544.01</ele>
        <time>2015-07-16T07:02:29Z</time>
      </trkpt>
      <trkpt lat="44.83181" lon="5.41345">
        <ele>1544.01</ele>
        <time>2015-07-16T07:02:56Z</time>
      </trkpt>
      <trkpt lat="44.83179" lon="5.41353">
        <ele>1544.01</ele>
        <time>2015-07-16T07:03:03Z</time>
      </trkpt>
      <trkpt lat="44.83174" lon="5.4138">
        <ele>1543.53</ele>
        <time>2015-07-16T07:03:23Z</time>
      </trkpt>
      <trkpt lat="44.83169" lon="5.4139">
        <ele>1544.01</ele>
        <time>2015-07-16T07:03:32Z</time>
      </trkpt>
      <trkpt lat="44.8316" lon="5.41403">
        <ele>1544.01</ele>
        <time>2015-07-16T07:03:43Z</time>
      </trkpt>
      <trkpt lat="44.83148" lon="5.4142">
        <ele>1545.94</ele>
        <time>2015-07-16T07:04:01Z</time>
      </trkpt>
      <trkpt lat="44.83137" lon="5.41433">
        <ele>1547.38</ele>
        <time>2015-07-16T07:04:17Z</time>
      </trkpt>
      <trkpt lat="44.83129" lon="5.41445">
        <ele>1548.82</ele>
        <time>2015-07-16T07:04:30Z</time>
      </trkpt>
      <trkpt lat="44.83126" lon="5.41448">
        <ele>1548.82</ele>
        <time>2015-07-16T07:04:33Z</time>
      </trkpt>
      <trkpt lat="44.83115" lon="5.41465">
        <ele>1548.82</ele>
        <time>2015-07-16T07:04:51Z</time>
      </trkpt>
      <trkpt lat="44.83099" lon="5.41481">
        <ele>1548.82</ele>
        <time>2015-07-16T07:05:10Z</time>
      </trkpt>
      <trkpt lat="44.83083" lon="5.41494">
        <ele>1549.78</ele>
        <time>2015-07-16T07:05:27Z</time>
      </trkpt>
      <trkpt lat="44.83071" lon="5.41502">
        <ele>1551.22</ele>
        <time>2015-07-16T07:05:43Z</time>
      </trkpt>
      <trkpt lat="44.83058" lon="5.41509">
        <ele>1553.15</ele>
        <time>2015-07-16T07:05:59Z</time>
      </trkpt>
      <trkpt lat="44.83042" lon="5.41515">
        <ele>1554.59</ele>
        <time>2015-07-16T07:06:17Z</time>
      </trkpt>
      <trkpt lat="44.83029" lon="5.41518">
        <ele>1556.51</ele>
        <time>2015-07-16T07:06:32Z</time>
      </trkpt>
      <trkpt lat="44.83018" lon="5.41523">
        <ele>1557.95</ele>
        <time>2015-07-16T07:06:46Z</time>
      </trkpt>
      <trkpt lat="44.8301" lon="5.41527">
        <ele>1559.4</ele>
        <time>2015-07-16T07:06:55Z</time>
      </trkpt>
      <trkpt lat="44.82994" lon="5.41531">
        <ele>1561.32</ele>
        <time>2015-07-16T07:07:12Z</time>
      </trkpt>
      <trkpt lat="44.82981" lon="5.41536">
        <ele>1563.72</ele>
        <time>2015-07-16T07:07:28Z</time>
      </trkpt>
      <trkpt lat="44.82966" lon="5.41542">
        <ele>1565.16</ele>
        <time>2015-07-16T07:07:45Z</time>
      </trkpt>
      <trkpt lat="44.82954" lon="5.41546">
        <ele>1567.09</ele>
        <time>2015-07-16T07:08:00Z</time>
      </trkpt>
      <trkpt lat="44.82939" lon="5.41552">
        <ele>1568.05</ele>
        <time>2015-07-16T07:08:17Z</time>
      </trkpt>
      <trkpt lat="44.82924" lon="5.41558">
        <ele>1569.49</ele>
        <time>2015-07-16T07:08:34Z</time>
      </trkpt>
      <trkpt lat="44.82911" lon="5.41562">
        <ele>1571.89</ele>
        <time>2015-07-16T07:08:49Z</time>
      </trkpt>
      <trkpt lat="44.82901" lon="5.41565">
        <ele>1573.82</ele>
        <time>2015-07-16T07:09:02Z</time>
      </trkpt>
      <trkpt lat="44.82888" lon="5.4157">
        <ele>1575.26</ele>
        <time>2015-07-16T07:09:18Z</time>
      </trkpt>
      <trkpt lat="44.82874" lon="5.41568">
        <ele>1576.22</ele>
        <time>2015-07-16T07:09:34Z</time>
      </trkpt>
      <trkpt lat="44.82863" lon="5.4157">
        <ele>1578.14</ele>
        <time>2015-07-16T07:09:47Z</time>
      </trkpt>
      <trkpt lat="44.82849" lon="5.41576">
        <ele>1580.06</ele>
        <time>2015-07-16T07:10:04Z</time>
      </trkpt>
      <trkpt lat="44.82835" lon="5.41581">
        <ele>1581.99</ele>
        <time>2015-07-16T07:10:21Z</time>
      </trkpt>
      <trkpt lat="44.82824" lon="5.41585">
        <ele>1584.87</ele>
        <time>2015-07-16T07:10:37Z</time>
      </trkpt>
      <trkpt lat="44.82812" lon="5.41593">
        <ele>1586.31</ele>
        <time>2015-07-16T07:10:53Z</time>
      </trkpt>
      <trkpt lat="44.828" lon="5.41601">
        <ele>1587.75</ele>
        <time>2015-07-16T07:11:09Z</time>
      </trkpt>
      <trkpt lat="44.8279" lon="5.41608">
        <ele>1589.68</ele>
        <time>2015-07-16T07:11:23Z</time>
      </trkpt>
      <trkpt lat="44.82779" lon="5.41615">
        <ele>1592.08</ele>
        <time>2015-07-16T07:11:39Z</time>
      </trkpt>
      <trkpt lat="44.82769" lon="5.4162">
        <ele>1594</ele>
        <time>2015-07-16T07:11:53Z</time>
      </trkpt>
      <trkpt lat="44.82761" lon="5.41627">
        <ele>1596.41</ele>
        <time>2015-07-16T07:12:08Z</time>
      </trkpt>
      <trkpt lat="44.82752" lon="5.41633">
        <ele>1598.33</ele>
        <time>2015-07-16T07:12:23Z</time>
      </trkpt>
      <trkpt lat="44.82743" lon="5.41638">
        <ele>1600.73</ele>
        <time>2015-07-16T07:12:37Z</time>
      </trkpt>
      <trkpt lat="44.82734" lon="5.41644">
        <ele>1602.17</ele>
        <time>2015-07-16T07:12:51Z</time>
      </trkpt>
      <trkpt lat="44.82724" lon="5.41649">
        <ele>1604.58</ele>
        <time>2015-07-16T07:13:06Z</time>
      </trkpt>
      <trkpt lat="44.82715" lon="5.41652">
        <ele>1606.5</ele>
        <time>2015-07-16T07:13:20Z</time>
      </trkpt>
      <trkpt lat="44.82705" lon="5.41659">
        <ele>1608.9</ele>
        <time>2015-07-16T07:13:34Z</time>
      </trkpt>
      <trkpt lat="44.82702" lon="5.4166">
        <ele>1609.38</ele>
        <time>2015-07-16T07:13:37Z</time>
      </trkpt>
      <trkpt lat="44.82693" lon="5.41662">
        <ele>1611.31</ele>
        <time>2015-07-16T07:13:50Z</time>
      </trkpt>
      <trkpt lat="44.82682" lon="5.41669">
        <ele>1613.71</ele>
        <time>2015-07-16T07:14:06Z</time>
      </trkpt>
      <trkpt lat="44.82674" lon="5.41674">
        <ele>1614.67</ele>
        <time>2015-07-16T07:14:20Z</time>
      </trkpt>
      <trkpt lat="44.82665" lon="5.4168">
        <ele>1617.56</ele>
        <time>2015-07-16T07:14:35Z</time>
      </trkpt>
      <trkpt lat="44.82655" lon="5.41686">
        <ele>1619.48</ele>
        <time>2015-07-16T07:14:50Z</time>
      </trkpt>
      <trkpt lat="44.82645" lon="5.41692">
        <ele>1621.88</ele>
        <time>2015-07-16T07:15:05Z</time>
      </trkpt>
      <trkpt lat="44.82641" lon="5.41696">
        <ele>1623.32</ele>
        <time>2015-07-16T07:15:13Z</time>
      </trkpt>
      <trkpt lat="44.82637" lon="5.41712">
        <ele>1625.25</ele>
        <time>2015-07-16T07:15:28Z</time>
      </trkpt>
      <trkpt lat="44.82633" lon="5.41728">
        <ele>1626.69</ele>
        <time>2015-07-16T07:15:45Z</time>
      </trkpt>
      <trkpt lat="44.82632" lon="5.41725">
        <ele>1627.17</ele>
        <time>2015-07-16T07:15:58Z</time>
      </trkpt>
      <trkpt lat="44.8263" lon="5.41724">
        <ele>1627.17</ele>
        <time>2015-07-16T07:16:23Z</time>
      </trkpt>
      <trkpt lat="44.8263" lon="5.41724">
        <ele>1626.69</ele>
        <time>2015-07-16T07:16:53Z</time>
      </trkpt>
      <trkpt lat="44.82633" lon="5.41728">
        <ele>1626.69</ele>
        <time>2015-07-16T07:17:20Z</time>
      </trkpt>
      <trkpt lat="44.82627" lon="5.41739">
        <ele>1627.65</ele>
        <time>2015-07-16T07:17:37Z</time>
      </trkpt>
      <trkpt lat="44.82621" lon="5.41749">
        <ele>1629.09</ele>
        <time>2015-07-16T07:17:50Z</time>
      </trkpt>
      <trkpt lat="44.8262" lon="5.41758">
        <ele>1630.53</ele>
        <time>2015-07-16T07:18:03Z</time>
      </trkpt>
      <trkpt lat="44.82611" lon="5.41755">
        <ele>1631.49</ele>
        <time>2015-07-16T07:18:17Z</time>
      </trkpt>
      <trkpt lat="44.8261" lon="5.41757">
        <ele>1631.49</ele>
        <time>2015-07-16T07:18:38Z</time>
      </trkpt>
      <trkpt lat="44.82615" lon="5.41762">
        <ele>1631.49</ele>
        <time>2015-07-16T07:18:53Z</time>
      </trkpt>
      <trkpt lat="44.82629" lon="5.41767">
        <ele>1628.61</ele>
        <time>2015-07-16T07:19:10Z</time>
      </trkpt>
      <trkpt lat="44.82645" lon="5.41778">
        <ele>1626.69</ele>
        <time>2015-07-16T07:19:30Z</time>
      </trkpt>
      <trkpt lat="44.82663" lon="5.41787">
        <ele>1623.8</ele>
        <time>2015-07-16T07:19:50Z</time>
      </trkpt>
      <trkpt lat="44.82666" lon="5.41793">
        <ele>1623.8</ele>
        <time>2015-07-16T07:19:55Z</time>
      </trkpt>
      <trkpt lat="44.82678" lon="5.4181">
        <ele>1621.4</ele>
        <time>2015-07-16T07:20:13Z</time>
      </trkpt>
      <trkpt lat="44.82687" lon="5.4183">
        <ele>1619.96</ele>
        <time>2015-07-16T07:20:32Z</time>
      </trkpt>
      <trkpt lat="44.82691" lon="5.41838">
        <ele>1619</ele>
        <time>2015-07-16T07:20:48Z</time>
      </trkpt>
      <trkpt lat="44.82691" lon="5.41844">
        <ele>1619.48</ele>
        <time>2015-07-16T07:20:53Z</time>
      </trkpt>
      <trkpt lat="44.82692" lon="5.41864">
        <ele>1619.96</ele>
        <time>2015-07-16T07:21:08Z</time>
      </trkpt>
      <trkpt lat="44.82694" lon="5.41888">
        <ele>1619.96</ele>
        <time>2015-07-16T07:21:25Z</time>
      </trkpt>
      <trkpt lat="44.82698" lon="5.41916">
        <ele>1618.52</ele>
        <time>2015-07-16T07:21:46Z</time>
      </trkpt>
      <trkpt lat="44.827" lon="5.41945">
        <ele>1618.04</ele>
        <time>2015-07-16T07:22:05Z</time>
      </trkpt>
      <trkpt lat="44.82702" lon="5.41978">
        <ele>1615.63</ele>
        <time>2015-07-16T07:22:28Z</time>
      </trkpt>
      <trkpt lat="44.82704" lon="5.42007">
        <ele>1613.71</ele>
        <time>2015-07-16T07:22:46Z</time>
      </trkpt>
      <trkpt lat="44.82696" lon="5.42036">
        <ele>1611.79</ele>
        <time>2015-07-16T07:23:06Z</time>
      </trkpt>
      <trkpt lat="44.82693" lon="5.42063">
        <ele>1610.83</ele>
        <time>2015-07-16T07:23:25Z</time>
      </trkpt>
      <trkpt lat="44.82685" lon="5.42087">
        <ele>1607.46</ele>
        <time>2015-07-16T07:23:44Z</time>
      </trkpt>
      <trkpt lat="44.82683" lon="5.42118">
        <ele>1605.54</ele>
        <time>2015-07-16T07:24:04Z</time>
      </trkpt>
      <trkpt lat="44.82686" lon="5.42144">
        <ele>1605.06</ele>
        <time>2015-07-16T07:24:22Z</time>
      </trkpt>
      <trkpt lat="44.82693" lon="5.42169">
        <ele>1605.54</ele>
        <time>2015-07-16T07:24:40Z</time>
      </trkpt>
      <trkpt lat="44.827" lon="5.42198">
        <ele>1605.06</ele>
        <time>2015-07-16T07:25:00Z</time>
      </trkpt>
      <trkpt lat="44.82705" lon="5.4223">
        <ele>1604.1</ele>
        <time>2015-07-16T07:25:21Z</time>
      </trkpt>
      <trkpt lat="44.82709" lon="5.4226">
        <ele>1603.14</ele>
        <time>2015-07-16T07:25:41Z</time>
      </trkpt>
      <trkpt lat="44.82717" lon="5.42283">
        <ele>1603.62</ele>
        <time>2015-07-16T07:26:00Z</time>
      </trkpt>
      <trkpt lat="44.82727" lon="5.42292">
        <ele>1606.02</ele>
        <time>2015-07-16T07:26:16Z</time>
      </trkpt>
      <trkpt lat="44.82731" lon="5.42306">
        <ele>1608.42</ele>
        <time>2015-07-16T07:26:31Z</time>
      </trkpt>
      <trkpt lat="44.82735" lon="5.42322">
        <ele>1609.86</ele>
        <time>2015-07-16T07:26:46Z</time>
      </trkpt>
      <trkpt lat="44.82738" lon="5.42342">
        <ele>1611.31</ele>
        <time>2015-07-16T07:27:03Z</time>
      </trkpt>
      <trkpt lat="44.82741" lon="5.42358">
        <ele>1612.27</ele>
        <time>2015-07-16T07:27:17Z</time>
      </trkpt>
      <trkpt lat="44.8274" lon="5.42373">
        <ele>1614.19</ele>
        <time>2015-07-16T07:27:32Z</time>
      </trkpt>
      <trkpt lat="44.82742" lon="5.42388">
        <ele>1615.63</ele>
        <time>2015-07-16T07:27:47Z</time>
      </trkpt>
      <trkpt lat="44.82749" lon="5.42396">
        <ele>1617.56</ele>
        <time>2015-07-16T07:28:02Z</time>
      </trkpt>
      <trkpt lat="44.82752" lon="5.42413">
        <ele>1619.48</ele>
        <time>2015-07-16T07:28:17Z</time>
      </trkpt>
      <trkpt lat="44.82753" lon="5.42416">
        <ele>1619</ele>
        <time>2015-07-16T07:28:20Z</time>
      </trkpt>
      <trkpt lat="44.82753" lon="5.42438">
        <ele>1619</ele>
        <time>2015-07-16T07:28:37Z</time>
      </trkpt>
      <trkpt lat="44.82753" lon="5.4245">
        <ele>1619</ele>
        <time>2015-07-16T07:28:49Z</time>
      </trkpt>
      <trkpt lat="44.82757" lon="5.42482">
        <ele>1618.04</ele>
        <time>2015-07-16T07:29:10Z</time>
      </trkpt>
      <trkpt lat="44.82759" lon="5.42509">
        <ele>1617.56</ele>
        <time>2015-07-16T07:29:28Z</time>
      </trkpt>
      <trkpt lat="44.82758" lon="5.42527">
        <ele>1619.48</ele>
        <time>2015-07-16T07:29:44Z</time>
      </trkpt>
      <trkpt lat="44.82765" lon="5.42537">
        <ele>1622.84</ele>
        <time>2015-07-16T07:29:58Z</time>
      </trkpt>
      <trkpt lat="44.82768" lon="5.4255">
        <ele>1624.77</ele>
        <time>2015-07-16T07:30:13Z</time>
      </trkpt>
      <trkpt lat="44.82768" lon="5.42563">
        <ele>1626.21</ele>
        <time>2015-07-16T07:30:27Z</time>
      </trkpt>
      <trkpt lat="44.82768" lon="5.42578">
        <ele>1628.13</ele>
        <time>2015-07-16T07:30:41Z</time>
      </trkpt>
      <trkpt lat="44.82771" lon="5.42599">
        <ele>1628.13</ele>
        <time>2015-07-16T07:30:57Z</time>
      </trkpt>
      <trkpt lat="44.82776" lon="5.42625">
        <ele>1627.17</ele>
        <time>2015-07-16T07:31:16Z</time>
      </trkpt>
      <trkpt lat="44.8278" lon="5.42655">
        <ele>1626.21</ele>
        <time>2015-07-16T07:31:37Z</time>
      </trkpt>
      <trkpt lat="44.82786" lon="5.42682">
        <ele>1624.77</ele>
        <time>2015-07-16T07:31:57Z</time>
      </trkpt>
      <trkpt lat="44.82788" lon="5.42705">
        <ele>1623.8</ele>
        <time>2015-07-16T07:32:13Z</time>
      </trkpt>
      <trkpt lat="44.82783" lon="5.4273">
        <ele>1622.36</ele>
        <time>2015-07-16T07:32:30Z</time>
      </trkpt>
      <trkpt lat="44.82777" lon="5.42754">
        <ele>1621.4</ele>
        <time>2015-07-16T07:32:49Z</time>
      </trkpt>
      <trkpt lat="44.82771" lon="5.42774">
        <ele>1618.52</ele>
        <time>2015-07-16T07:33:05Z</time>
      </trkpt>
      <trkpt lat="44.82769" lon="5.42793">
        <ele>1615.63</ele>
        <time>2015-07-16T07:33:20Z</time>
      </trkpt>
      <trkpt lat="44.82766" lon="5.42814">
        <ele>1613.71</ele>
        <time>2015-07-16T07:33:36Z</time>
      </trkpt>
      <trkpt lat="44.82767" lon="5.42833">
        <ele>1610.83</ele>
        <time>2015-07-16T07:33:53Z</time>
      </trkpt>
      <trkpt lat="44.82768" lon="5.42849">
        <ele>1608.9</ele>
        <time>2015-07-16T07:34:07Z</time>
      </trkpt>
      <trkpt lat="44.8277" lon="5.42861">
        <ele>1608.42</ele>
        <time>2015-07-16T07:34:16Z</time>
      </trkpt>
      <trkpt lat="44.82776" lon="5.42884">
        <ele>1606.5</ele>
        <time>2015-07-16T07:34:33Z</time>
      </trkpt>
      <trkpt lat="44.82776" lon="5.4289">
        <ele>1606.5</ele>
        <time>2015-07-16T07:34:37Z</time>
      </trkpt>
      <trkpt lat="44.82778" lon="5.42905">
        <ele>1606.98</ele>
        <time>2015-07-16T07:34:53Z</time>
      </trkpt>
      <trkpt lat="44.8278" lon="5.42917">
        <ele>1607.46</ele>
        <time>2015-07-16T07:35:08Z</time>
      </trkpt>
      <trkpt lat="44.82783" lon="5.42938">
        <ele>1608.9</ele>
        <time>2015-07-16T07:35:25Z</time>
      </trkpt>
      <trkpt lat="44.82785" lon="5.4296">
        <ele>1610.35</ele>
        <time>2015-07-16T07:35:41Z</time>
      </trkpt>
      <trkpt lat="44.82788" lon="5.42979">
        <ele>1612.27</ele>
        <time>2015-07-16T07:35:58Z</time>
      </trkpt>
      <trkpt lat="44.82788" lon="5.42994">
        <ele>1614.67</ele>
        <time>2015-07-16T07:36:12Z</time>
      </trkpt>
      <trkpt lat="44.82793" lon="5.4301">
        <ele>1616.59</ele>
        <time>2015-07-16T07:36:30Z</time>
      </trkpt>
      <trkpt lat="44.82796" lon="5.43027">
        <ele>1619.96</ele>
        <time>2015-07-16T07:36:46Z</time>
      </trkpt>
      <trkpt lat="44.82798" lon="5.43045">
        <ele>1622.84</ele>
        <time>2015-07-16T07:37:04Z</time>
      </trkpt>
      <trkpt lat="44.82801" lon="5.43062">
        <ele>1625.73</ele>
        <time>2015-07-16T07:37:20Z</time>
      </trkpt>
      <trkpt lat="44.82804" lon="5.43077">
        <ele>1628.13</ele>
        <time>2015-07-16T07:37:35Z</time>
      </trkpt>
      <trkpt lat="44.82806" lon="5.4309">
        <ele>1630.53</ele>
        <time>2015-07-16T07:37:49Z</time>
      </trkpt>
      <trkpt lat="44.82808" lon="5.43104">
        <ele>1632.46</ele>
        <time>2015-07-16T07:38:04Z</time>
      </trkpt>
      <trkpt lat="44.8281" lon="5.43114">
        <ele>1634.38</ele>
        <time>2015-07-16T07:38:18Z</time>
      </trkpt>
      <trkpt lat="44.82813" lon="5.43126">
        <ele>1637.26</ele>
        <time>2015-07-16T07:38:34Z</time>
      </trkpt>
      <trkpt lat="44.82817" lon="5.43138">
        <ele>1639.67</ele>
        <time>2015-07-16T07:38:50Z</time>
      </trkpt>
      <trkpt lat="44.82822" lon="5.4315">
        <ele>1642.07</ele>
        <time>2015-07-16T07:39:06Z</time>
      </trkpt>
      <trkpt lat="44.82829" lon="5.43164">
        <ele>1643.99</ele>
        <time>2015-07-16T07:39:23Z</time>
      </trkpt>
      <trkpt lat="44.82835" lon="5.43176">
        <ele>1645.43</ele>
        <time>2015-07-16T07:39:36Z</time>
      </trkpt>
      <trkpt lat="44.8284" lon="5.43187">
        <ele>1645.91</ele>
        <time>2015-07-16T07:39:49Z</time>
      </trkpt>
      <trkpt lat="44.82845" lon="5.43198">
        <ele>1646.88</ele>
        <time>2015-07-16T07:40:01Z</time>
      </trkpt>
      <trkpt lat="44.82849" lon="5.4321">
        <ele>1648.32</ele>
        <time>2015-07-16T07:40:14Z</time>
      </trkpt>
      <trkpt lat="44.82851" lon="5.43222">
        <ele>1649.76</ele>
        <time>2015-07-16T07:40:25Z</time>
      </trkpt>
      <trkpt lat="44.82854" lon="5.43237">
        <ele>1650.72</ele>
        <time>2015-07-16T07:40:39Z</time>
      </trkpt>
      <trkpt lat="44.82854" lon="5.43249">
        <ele>1652.64</ele>
        <time>2015-07-16T07:40:51Z</time>
      </trkpt>
      <trkpt lat="44.82857" lon="5.43259">
        <ele>1653.12</ele>
        <time>2015-07-16T07:41:02Z</time>
      </trkpt>
      <trkpt lat="44.82861" lon="5.43272">
        <ele>1654.57</ele>
        <time>2015-07-16T07:41:14Z</time>
      </trkpt>
      <trkpt lat="44.82864" lon="5.43284">
        <ele>1655.53</ele>
        <time>2015-07-16T07:41:26Z</time>
      </trkpt>
      <trkpt lat="44.82867" lon="5.433">
        <ele>1656.97</ele>
        <time>2015-07-16T07:41:40Z</time>
      </trkpt>
      <trkpt lat="44.82869" lon="5.43316">
        <ele>1658.89</ele>
        <time>2015-07-16T07:41:54Z</time>
      </trkpt>
      <trkpt lat="44.82869" lon="5.43333">
        <ele>1660.81</ele>
        <time>2015-07-16T07:42:09Z</time>
      </trkpt>
      <trkpt lat="44.82871" lon="5.43348">
        <ele>1662.74</ele>
        <time>2015-07-16T07:42:24Z</time>
      </trkpt>
      <trkpt lat="44.82871" lon="5.4335">
        <ele>1662.74</ele>
        <time>2015-07-16T07:42:26Z</time>
      </trkpt>
      <trkpt lat="44.82873" lon="5.43367">
        <ele>1663.7</ele>
        <time>2015-07-16T07:42:41Z</time>
      </trkpt>
      <trkpt lat="44.82871" lon="5.43382">
        <ele>1664.66</ele>
        <time>2015-07-16T07:42:55Z</time>
      </trkpt>
      <trkpt lat="44.82872" lon="5.43397">
        <ele>1666.1</ele>
        <time>2015-07-16T07:43:10Z</time>
      </trkpt>
      <trkpt lat="44.82875" lon="5.43414">
        <ele>1667.54</ele>
        <time>2015-07-16T07:43:26Z</time>
      </trkpt>
      <trkpt lat="44.82875" lon="5.4343">
        <ele>1668.02</ele>
        <time>2015-07-16T07:43:42Z</time>
      </trkpt>
      <trkpt lat="44.82878" lon="5.43443">
        <ele>1668.99</ele>
        <time>2015-07-16T07:43:55Z</time>
      </trkpt>
      <trkpt lat="44.82884" lon="5.43457">
        <ele>1669.95</ele>
        <time>2015-07-16T07:44:11Z</time>
      </trkpt>
      <trkpt lat="44.82886" lon="5.43473">
        <ele>1671.87</ele>
        <time>2015-07-16T07:44:27Z</time>
      </trkpt>
      <trkpt lat="44.82892" lon="5.43486">
        <ele>1673.31</ele>
        <time>2015-07-16T07:44:43Z</time>
      </trkpt>
      <trkpt lat="44.82895" lon="5.435">
        <ele>1674.75</ele>
        <time>2015-07-16T07:44:57Z</time>
      </trkpt>
      <trkpt lat="44.82895" lon="5.43505">
        <ele>1675.23</ele>
        <time>2015-07-16T07:45:10Z</time>
      </trkpt>
      <trkpt lat="44.82895" lon="5.43503">
        <ele>1675.23</ele>
        <time>2015-07-16T07:45:32Z</time>
      </trkpt>
      <trkpt lat="44.82899" lon="5.43515">
        <ele>1676.2</ele>
        <time>2015-07-16T07:45:53Z</time>
      </trkpt>
      <trkpt lat="44.82906" lon="5.43534">
        <ele>1677.16</ele>
        <time>2015-07-16T07:46:10Z</time>
      </trkpt>
      <trkpt lat="44.82913" lon="5.43553">
        <ele>1678.12</ele>
        <time>2015-07-16T07:46:28Z</time>
      </trkpt>
      <trkpt lat="44.82918" lon="5.43573">
        <ele>1679.08</ele>
        <time>2015-07-16T07:46:45Z</time>
      </trkpt>
      <trkpt lat="44.82927" lon="5.43587">
        <ele>1678.6</ele>
        <time>2015-07-16T07:47:00Z</time>
      </trkpt>
      <trkpt lat="44.82935" lon="5.43606">
        <ele>1679.56</ele>
        <time>2015-07-16T07:47:17Z</time>
      </trkpt>
      <trkpt lat="44.82939" lon="5.43623">
        <ele>1681</ele>
        <time>2015-07-16T07:47:33Z</time>
      </trkpt>
      <trkpt lat="44.8294" lon="5.43637">
        <ele>1682.93</ele>
        <time>2015-07-16T07:47:47Z</time>
      </trkpt>
      <trkpt lat="44.82939" lon="5.4365">
        <ele>1684.85</ele>
        <time>2015-07-16T07:48:02Z</time>
      </trkpt>
      <trkpt lat="44.82938" lon="5.4366">
        <ele>1686.77</ele>
        <time>2015-07-16T07:48:15Z</time>
      </trkpt>
      <trkpt lat="44.82936" lon="5.43671">
        <ele>1687.73</ele>
        <time>2015-07-16T07:48:28Z</time>
      </trkpt>
      <trkpt lat="44.82933" lon="5.43684">
        <ele>1689.65</ele>
        <time>2015-07-16T07:48:42Z</time>
      </trkpt>
      <trkpt lat="44.82926" lon="5.43693">
        <ele>1691.1</ele>
        <time>2015-07-16T07:48:56Z</time>
      </trkpt>
      <trkpt lat="44.82919" lon="5.43701">
        <ele>1692.54</ele>
        <time>2015-07-16T07:49:10Z</time>
      </trkpt>
      <trkpt lat="44.82917" lon="5.43702">
        <ele>1693.02</ele>
        <time>2015-07-16T07:49:24Z</time>
      </trkpt>
      <trkpt lat="44.82909" lon="5.4371">
        <ele>1694.46</ele>
        <time>2015-07-16T07:49:37Z</time>
      </trkpt>
      <trkpt lat="44.82904" lon="5.43722">
        <ele>1694.46</ele>
        <time>2015-07-16T07:49:50Z</time>
      </trkpt>
      <trkpt lat="44.82903" lon="5.43724">
        <ele>1694.46</ele>
        <time>2015-07-16T07:49:52Z</time>
      </trkpt>
      <trkpt lat="44.82912" lon="5.43727">
        <ele>1694.46</ele>
        <time>2015-07-16T07:50:08Z</time>
      </trkpt>
      <trkpt lat="44.82917" lon="5.43725">
        <ele>1694.46</ele>
        <time>2015-07-16T07:50:22Z</time>
      </trkpt>
      <trkpt lat="44.82914" lon="5.43723">
        <ele>1693.98</ele>
        <time>2015-07-16T07:50:40Z</time>
      </trkpt>
      <trkpt lat="44.82915" lon="5.43723">
        <ele>1694.46</ele>
        <time>2015-07-16T07:50:54Z</time>
      </trkpt>
      <trkpt lat="44.82916" lon="5.43723">
        <ele>1694.46</ele>
        <time>2015-07-16T07:51:16Z</time>
      </trkpt>
      <trkpt lat="44.82917" lon="5.43722">
        <ele>1694.46</ele>
        <time>2015-07-16T07:51:36Z</time>
      </trkpt>
      <trkpt lat="44.8292" lon="5.43724">
        <ele>1694.46</ele>
        <time>2015-07-16T07:52:03Z</time>
      </trkpt>
      <trkpt lat="44.82921" lon="5.43727">
        <ele>1693.98</ele>
        <time>2015-07-16T07:52:42Z</time>
      </trkpt>
      <trkpt lat="44.82921" lon="5.43728">
        <ele>1693.98</ele>
        <time>2015-07-16T07:53:26Z</time>
      </trkpt>
      <trkpt lat="44.82921" lon="5.43728">
        <ele>1693.98</ele>
        <time>2015-07-16T07:54:13Z</time>
      </trkpt>
      <trkpt lat="44.8292" lon="5.43729">
        <ele>1693.98</ele>
        <time>2015-07-16T07:54:49Z</time>
      </trkpt>
      <trkpt lat="44.82921" lon="5.43728">
        <ele>1693.5</ele>
        <time>2015-07-16T07:55:25Z</time>
      </trkpt>
      <trkpt lat="44.82919" lon="5.43728">
        <ele>1693.5</ele>
        <time>2015-07-16T07:55:58Z</time>
      </trkpt>
      <trkpt lat="44.82917" lon="5.43722">
        <ele>1693.5</ele>
        <time>2015-07-16T07:56:34Z</time>
      </trkpt>
      <trkpt lat="44.82917" lon="5.43722">
        <ele>1693.98</ele>
        <time>2015-07-16T07:57:14Z</time>
      </trkpt>
      <trkpt lat="44.82914" lon="5.43725">
        <ele>1693.98</ele>
        <time>2015-07-16T07:57:41Z</time>
      </trkpt>
      <trkpt lat="44.82915" lon="5.43725">
        <ele>1693.98</ele>
        <time>2015-07-16T07:58:09Z</time>
      </trkpt>
      <trkpt lat="44.82915" lon="5.43721">
        <ele>1694.46</ele>
        <time>2015-07-16T07:58:34Z</time>
      </trkpt>
      <trkpt lat="44.82915" lon="5.43721">
        <ele>1694.46</ele>
        <time>2015-07-16T07:58:57Z</time>
      </trkpt>
      <trkpt lat="44.82912" lon="5.43726">
        <ele>1694.46</ele>
        <time>2015-07-16T07:59:17Z</time>
      </trkpt>
      <trkpt lat="44.82915" lon="5.43733">
        <ele>1693.98</ele>
        <time>2015-07-16T07:59:31Z</time>
      </trkpt>
      <trkpt lat="44.82916" lon="5.43747">
        <ele>1693.98</ele>
        <time>2015-07-16T07:59:45Z</time>
      </trkpt>
      <trkpt lat="44.82913" lon="5.43755">
        <ele>1693.5</ele>
        <time>2015-07-16T08:00:00Z</time>
      </trkpt>
      <trkpt lat="44.82907" lon="5.4375">
        <ele>1693.5</ele>
        <time>2015-07-16T08:00:17Z</time>
      </trkpt>
      <trkpt lat="44.82904" lon="5.43749">
        <ele>1693.5</ele>
        <time>2015-07-16T08:00:20Z</time>
      </trkpt>
      <trkpt lat="44.82891" lon="5.43748">
        <ele>1693.5</ele>
        <time>2015-07-16T08:00:35Z</time>
      </trkpt>
      <trkpt lat="44.82885" lon="5.43751">
        <ele>1694.94</ele>
        <time>2015-07-16T08:00:43Z</time>
      </trkpt>
      <trkpt lat="44.82883" lon="5.43755">
        <ele>1694.94</ele>
        <time>2015-07-16T08:00:47Z</time>
      </trkpt>
      <trkpt lat="44.82877" lon="5.43764">
        <ele>1695.42</ele>
        <time>2015-07-16T08:00:57Z</time>
      </trkpt>
      <trkpt lat="44.82867" lon="5.43778">
        <ele>1696.38</ele>
        <time>2015-07-16T08:01:12Z</time>
      </trkpt>
      <trkpt lat="44.82859" lon="5.4379">
        <ele>1696.38</ele>
        <time>2015-07-16T08:01:25Z</time>
      </trkpt>
      <trkpt lat="44.82847" lon="5.43801">
        <ele>1696.86</ele>
        <time>2015-07-16T08:01:41Z</time>
      </trkpt>
      <trkpt lat="44.82836" lon="5.43814">
        <ele>1695.42</ele>
        <time>2015-07-16T08:01:57Z</time>
      </trkpt>
      <trkpt lat="44.82826" lon="5.43829">
        <ele>1693.5</ele>
        <time>2015-07-16T08:02:13Z</time>
      </trkpt>
      <trkpt lat="44.82817" lon="5.43844">
        <ele>1693.98</ele>
        <time>2015-07-16T08:02:28Z</time>
      </trkpt>
      <trkpt lat="44.82812" lon="5.43859">
        <ele>1695.42</ele>
        <time>2015-07-16T08:02:42Z</time>
      </trkpt>
      <trkpt lat="44.82809" lon="5.43866">
        <ele>1696.38</ele>
        <time>2015-07-16T08:02:48Z</time>
      </trkpt>
      <trkpt lat="44.82809" lon="5.43869">
        <ele>1695.9</ele>
        <time>2015-07-16T08:02:50Z</time>
      </trkpt>
      <trkpt lat="44.82806" lon="5.43886">
        <ele>1697.83</ele>
        <time>2015-07-16T08:03:04Z</time>
      </trkpt>
      <trkpt lat="44.82803" lon="5.43893">
        <ele>1698.79</ele>
        <time>2015-07-16T08:03:11Z</time>
      </trkpt>
      <trkpt lat="44.82801" lon="5.43897">
        <ele>1699.27</ele>
        <time>2015-07-16T08:03:15Z</time>
      </trkpt>
      <trkpt lat="44.82799" lon="5.4391">
        <ele>1700.71</ele>
        <time>2015-07-16T08:03:27Z</time>
      </trkpt>
      <trkpt lat="44.82797" lon="5.43922">
        <ele>1702.15</ele>
        <time>2015-07-16T08:03:39Z</time>
      </trkpt>
      <trkpt lat="44.82797" lon="5.43923">
        <ele>1702.63</ele>
        <time>2015-07-16T08:03:56Z</time>
      </trkpt>
      <trkpt lat="44.82795" lon="5.43936">
        <ele>1703.59</ele>
        <time>2015-07-16T08:04:10Z</time>
      </trkpt>
      <trkpt lat="44.82793" lon="5.43952">
        <ele>1704.55</ele>
        <time>2015-07-16T08:04:24Z</time>
      </trkpt>
      <trkpt lat="44.8279" lon="5.43968">
        <ele>1705.52</ele>
        <time>2015-07-16T08:04:37Z</time>
      </trkpt>
      <trkpt lat="44.82791" lon="5.43968">
        <ele>1705.52</ele>
        <time>2015-07-16T08:04:57Z</time>
      </trkpt>
      <trkpt lat="44.82794" lon="5.43981">
        <ele>1706.96</ele>
        <time>2015-07-16T08:05:13Z</time>
      </trkpt>
      <trkpt lat="44.82801" lon="5.43994">
        <ele>1706</ele>
        <time>2015-07-16T08:05:30Z</time>
      </trkpt>
      <trkpt lat="44.82808" lon="5.44">
        <ele>1704.55</ele>
        <time>2015-07-16T08:05:44Z</time>
      </trkpt>
      <trkpt lat="44.82818" lon="5.44019">
        <ele>1702.15</ele>
        <time>2015-07-16T08:06:03Z</time>
      </trkpt>
      <trkpt lat="44.82822" lon="5.44026">
        <ele>1700.71</ele>
        <time>2015-07-16T08:06:21Z</time>
      </trkpt>
      <trkpt lat="44.82828" lon="5.44034">
        <ele>1699.27</ele>
        <time>2015-07-16T08:06:41Z</time>
      </trkpt>
      <trkpt lat="44.82835" lon="5.44048">
        <ele>1697.34</ele>
        <time>2015-07-16T08:06:58Z</time>
      </trkpt>
      <trkpt lat="44.82836" lon="5.44051">
        <ele>1696.38</ele>
        <time>2015-07-16T08:07:01Z</time>
      </trkpt>
      <trkpt lat="44.82845" lon="5.44073">
        <ele>1693.02</ele>
        <time>2015-07-16T08:07:21Z</time>
      </trkpt>
      <trkpt lat="44.82848" lon="5.44089">
        <ele>1691.1</ele>
        <time>2015-07-16T08:07:39Z</time>
      </trkpt>
      <trkpt lat="44.82851" lon="5.44104">
        <ele>1688.21</ele>
        <time>2015-07-16T08:07:51Z</time>
      </trkpt>
      <trkpt lat="44.82856" lon="5.44124">
        <ele>1685.33</ele>
        <time>2015-07-16T08:08:09Z</time>
      </trkpt>
      <trkpt lat="44.8286" lon="5.44148">
        <ele>1681.96</ele>
        <time>2015-07-16T08:08:26Z</time>
      </trkpt>
      <trkpt lat="44.82863" lon="5.44173">
        <ele>1680.04</ele>
        <time>2015-07-16T08:08:44Z</time>
      </trkpt>
      <trkpt lat="44.82869" lon="5.44198">
        <ele>1677.64</ele>
        <time>2015-07-16T08:09:02Z</time>
      </trkpt>
      <trkpt lat="44.82879" lon="5.44225">
        <ele>1675.23</ele>
        <time>2015-07-16T08:09:23Z</time>
      </trkpt>
      <trkpt lat="44.8289" lon="5.44248">
        <ele>1673.79</ele>
        <time>2015-07-16T08:09:42Z</time>
      </trkpt>
      <trkpt lat="44.82903" lon="5.4427">
        <ele>1673.79</ele>
        <time>2015-07-16T08:10:00Z</time>
      </trkpt>
      <trkpt lat="44.82912" lon="5.44282">
        <ele>1674.75</ele>
        <time>2015-07-16T08:10:14Z</time>
      </trkpt>
      <trkpt lat="44.82921" lon="5.44297">
        <ele>1675.72</ele>
        <time>2015-07-16T08:10:28Z</time>
      </trkpt>
      <trkpt lat="44.8293" lon="5.44315">
        <ele>1676.2</ele>
        <time>2015-07-16T08:10:43Z</time>
      </trkpt>
      <trkpt lat="44.82937" lon="5.44333">
        <ele>1676.2</ele>
        <time>2015-07-16T08:10:58Z</time>
      </trkpt>
      <trkpt lat="44.82944" lon="5.4435">
        <ele>1675.72</ele>
        <time>2015-07-16T08:11:12Z</time>
      </trkpt>
      <trkpt lat="44.82948" lon="5.44371">
        <ele>1675.23</ele>
        <time>2015-07-16T08:11:27Z</time>
      </trkpt>
      <trkpt lat="44.82951" lon="5.44397">
        <ele>1674.75</ele>
        <time>2015-07-16T08:11:46Z</time>
      </trkpt>
      <trkpt lat="44.82956" lon="5.44419">
        <ele>1672.83</ele>
        <time>2015-07-16T08:12:02Z</time>
      </trkpt>
      <trkpt lat="44.82961" lon="5.44439">
        <ele>1670.91</ele>
        <time>2015-07-16T08:12:18Z</time>
      </trkpt>
      <trkpt lat="44.82958" lon="5.44459">
        <ele>1668.02</ele>
        <time>2015-07-16T08:12:36Z</time>
      </trkpt>
      <trkpt lat="44.82959" lon="5.44483">
        <ele>1666.58</ele>
        <time>2015-07-16T08:12:53Z</time>
      </trkpt>
      <trkpt lat="44.82966" lon="5.44508">
        <ele>1663.7</ele>
        <time>2015-07-16T08:13:12Z</time>
      </trkpt>
      <trkpt lat="44.82971" lon="5.44537">
        <ele>1662.26</ele>
        <time>2015-07-16T08:13:31Z</time>
      </trkpt>
      <trkpt lat="44.82975" lon="5.44562">
        <ele>1661.3</ele>
        <time>2015-07-16T08:13:49Z</time>
      </trkpt>
      <trkpt lat="44.8298" lon="5.44594">
        <ele>1659.37</ele>
        <time>2015-07-16T08:14:11Z</time>
      </trkpt>
      <trkpt lat="44.8298" lon="5.44595">
        <ele>1659.37</ele>
        <time>2015-07-16T08:14:12Z</time>
      </trkpt>
      <trkpt lat="44.82981" lon="5.44618">
        <ele>1657.45</ele>
        <time>2015-07-16T08:14:31Z</time>
      </trkpt>
      <trkpt lat="44.8298" lon="5.44632">
        <ele>1657.45</ele>
        <time>2015-07-16T08:14:46Z</time>
      </trkpt>
      <trkpt lat="44.82982" lon="5.44654">
        <ele>1656.01</ele>
        <time>2015-07-16T08:15:03Z</time>
      </trkpt>
      <trkpt lat="44.82982" lon="5.44678">
        <ele>1654.57</ele>
        <time>2015-07-16T08:15:20Z</time>
      </trkpt>
      <trkpt lat="44.82981" lon="5.44705">
        <ele>1652.64</ele>
        <time>2015-07-16T08:15:39Z</time>
      </trkpt>
      <trkpt lat="44.82979" lon="5.44733">
        <ele>1651.68</ele>
        <time>2015-07-16T08:15:58Z</time>
      </trkpt>
      <trkpt lat="44.82978" lon="5.44759">
        <ele>1649.28</ele>
        <time>2015-07-16T08:16:17Z</time>
      </trkpt>
      <trkpt lat="44.82976" lon="5.44769">
        <ele>1647.36</ele>
        <time>2015-07-16T08:16:34Z</time>
      </trkpt>
      <trkpt lat="44.82971" lon="5.44796">
        <ele>1645.43</ele>
        <time>2015-07-16T08:16:53Z</time>
      </trkpt>
      <trkpt lat="44.82967" lon="5.44821">
        <ele>1645.43</ele>
        <time>2015-07-16T08:17:10Z</time>
      </trkpt>
      <trkpt lat="44.82965" lon="5.44842">
        <ele>1645.91</ele>
        <time>2015-07-16T08:17:24Z</time>
      </trkpt>
      <trkpt lat="44.82964" lon="5.44845">
        <ele>1646.4</ele>
        <time>2015-07-16T08:17:27Z</time>
      </trkpt>
      <trkpt lat="44.82961" lon="5.44875">
        <ele>1646.88</ele>
        <time>2015-07-16T08:17:46Z</time>
      </trkpt>
      <trkpt lat="44.82959" lon="5.44895">
        <ele>1647.84</ele>
        <time>2015-07-16T08:18:01Z</time>
      </trkpt>
      <trkpt lat="44.82954" lon="5.44914">
        <ele>1648.8</ele>
        <time>2015-07-16T08:18:15Z</time>
      </trkpt>
      <trkpt lat="44.82954" lon="5.44919">
        <ele>1649.28</ele>
        <time>2015-07-16T08:18:18Z</time>
      </trkpt>
      <trkpt lat="44.82946" lon="5.44944">
        <ele>1648.32</ele>
        <time>2015-07-16T08:18:37Z</time>
      </trkpt>
      <trkpt lat="44.82937" lon="5.44958">
        <ele>1647.36</ele>
        <time>2015-07-16T08:18:52Z</time>
      </trkpt>
      <trkpt lat="44.82925" lon="5.44975">
        <ele>1645.91</ele>
        <time>2015-07-16T08:19:09Z</time>
      </trkpt>
      <trkpt lat="44.8292" lon="5.44991">
        <ele>1643.03</ele>
        <time>2015-07-16T08:19:27Z</time>
      </trkpt>
      <trkpt lat="44.82906" lon="5.45007">
        <ele>1641.11</ele>
        <time>2015-07-16T08:19:46Z</time>
      </trkpt>
      <trkpt lat="44.82898" lon="5.45023">
        <ele>1638.22</ele>
        <time>2015-07-16T08:20:03Z</time>
      </trkpt>
      <trkpt lat="44.82886" lon="5.45034">
        <ele>1635.82</ele>
        <time>2015-07-16T08:20:20Z</time>
      </trkpt>
      <trkpt lat="44.8288" lon="5.45043">
        <ele>1633.9</ele>
        <time>2015-07-16T08:20:36Z</time>
      </trkpt>
      <trkpt lat="44.82872" lon="5.45049">
        <ele>1632.94</ele>
        <time>2015-07-16T08:20:52Z</time>
      </trkpt>
      <trkpt lat="44.82866" lon="5.45064">
        <ele>1629.57</ele>
        <time>2015-07-16T08:21:11Z</time>
      </trkpt>
      <trkpt lat="44.8286" lon="5.45073">
        <ele>1627.17</ele>
        <time>2015-07-16T08:21:25Z</time>
      </trkpt>
      <trkpt lat="44.82859" lon="5.4508">
        <ele>1625.25</ele>
        <time>2015-07-16T08:21:39Z</time>
      </trkpt>
      <trkpt lat="44.82856" lon="5.4509">
        <ele>1621.88</ele>
        <time>2015-07-16T08:21:52Z</time>
      </trkpt>
      <trkpt lat="44.82858" lon="5.45103">
        <ele>1618.52</ele>
        <time>2015-07-16T08:22:08Z</time>
      </trkpt>
      <trkpt lat="44.82855" lon="5.45113">
        <ele>1616.11</ele>
        <time>2015-07-16T08:22:23Z</time>
      </trkpt>
      <trkpt lat="44.82853" lon="5.45124">
        <ele>1612.75</ele>
        <time>2015-07-16T08:22:39Z</time>
      </trkpt>
      <trkpt lat="44.82852" lon="5.45136">
        <ele>1609.86</ele>
        <time>2015-07-16T08:22:55Z</time>
      </trkpt>
      <trkpt lat="44.82852" lon="5.45142">
        <ele>1607.94</ele>
        <time>2015-07-16T08:23:08Z</time>
      </trkpt>
      <trkpt lat="44.82849" lon="5.45154">
        <ele>1604.58</ele>
        <time>2015-07-16T08:23:25Z</time>
      </trkpt>
      <trkpt lat="44.82846" lon="5.45161">
        <ele>1602.17</ele>
        <time>2015-07-16T08:23:40Z</time>
      </trkpt>
      <trkpt lat="44.82852" lon="5.45169">
        <ele>1599.77</ele>
        <time>2015-07-16T08:23:58Z</time>
      </trkpt>
      <trkpt lat="44.82858" lon="5.45177">
        <ele>1596.89</ele>
        <time>2015-07-16T08:24:13Z</time>
      </trkpt>
      <trkpt lat="44.82864" lon="5.45186">
        <ele>1593.52</ele>
        <time>2015-07-16T08:24:27Z</time>
      </trkpt>
      <trkpt lat="44.82865" lon="5.45195">
        <ele>1591.12</ele>
        <time>2015-07-16T08:24:43Z</time>
      </trkpt>
      <trkpt lat="44.82869" lon="5.45206">
        <ele>1587.75</ele>
        <time>2015-07-16T08:24:58Z</time>
      </trkpt>
      <trkpt lat="44.82868" lon="5.45217">
        <ele>1584.87</ele>
        <time>2015-07-16T08:25:12Z</time>
      </trkpt>
      <trkpt lat="44.82867" lon="5.45223">
        <ele>1581.51</ele>
        <time>2015-07-16T08:25:26Z</time>
      </trkpt>
      <trkpt lat="44.82871" lon="5.45235">
        <ele>1578.62</ele>
        <time>2015-07-16T08:25:44Z</time>
      </trkpt>
      <trkpt lat="44.8287" lon="5.45252">
        <ele>1575.26</ele>
        <time>2015-07-16T08:26:03Z</time>
      </trkpt>
      <trkpt lat="44.82864" lon="5.4527">
        <ele>1572.37</ele>
        <time>2015-07-16T08:26:22Z</time>
      </trkpt>
      <trkpt lat="44.82868" lon="5.45283">
        <ele>1570.45</ele>
        <time>2015-07-16T08:26:38Z</time>
      </trkpt>
      <trkpt lat="44.82871" lon="5.45298">
        <ele>1568.05</ele>
        <time>2015-07-16T08:26:56Z</time>
      </trkpt>
      <trkpt lat="44.82875" lon="5.45301">
        <ele>1567.57</ele>
        <time>2015-07-16T08:27:01Z</time>
      </trkpt>
      <trkpt lat="44.82894" lon="5.45314">
        <ele>1564.2</ele>
        <time>2015-07-16T08:27:24Z</time>
      </trkpt>
      <trkpt lat="44.82905" lon="5.45321">
        <ele>1561.32</ele>
        <time>2015-07-16T08:27:39Z</time>
      </trkpt>
      <trkpt lat="44.82918" lon="5.45319">
        <ele>1559.88</ele>
        <time>2015-07-16T08:27:55Z</time>
      </trkpt>
      <trkpt lat="44.82936" lon="5.45315">
        <ele>1558.43</ele>
        <time>2015-07-16T08:28:12Z</time>
      </trkpt>
      <trkpt lat="44.82961" lon="5.45321">
        <ele>1556.51</ele>
        <time>2015-07-16T08:28:33Z</time>
      </trkpt>
      <trkpt lat="44.82976" lon="5.4533">
        <ele>1557.47</ele>
        <time>2015-07-16T08:28:49Z</time>
      </trkpt>
      <trkpt lat="44.8299" lon="5.45339">
        <ele>1556.03</ele>
        <time>2015-07-16T08:29:05Z</time>
      </trkpt>
      <trkpt lat="44.82993" lon="5.45344">
        <ele>1554.59</ele>
        <time>2015-07-16T08:29:21Z</time>
      </trkpt>
      <trkpt lat="44.82991" lon="5.45346">
        <ele>1553.63</ele>
        <time>2015-07-16T08:29:35Z</time>
      </trkpt>
      <trkpt lat="44.82989" lon="5.45347">
        <ele>1553.15</ele>
        <time>2015-07-16T08:29:50Z</time>
      </trkpt>
      <trkpt lat="44.82982" lon="5.4535">
        <ele>1552.19</ele>
        <time>2015-07-16T08:30:09Z</time>
      </trkpt>
      <trkpt lat="44.82962" lon="5.45361">
        <ele>1550.26</ele>
        <time>2015-07-16T08:30:29Z</time>
      </trkpt>
      <trkpt lat="44.82943" lon="5.45378">
        <ele>1547.38</ele>
        <time>2015-07-16T08:30:50Z</time>
      </trkpt>
      <trkpt lat="44.82926" lon="5.45393">
        <ele>1544.98</ele>
        <time>2015-07-16T08:31:11Z</time>
      </trkpt>
      <trkpt lat="44.82924" lon="5.45396">
        <ele>1544.01</ele>
        <time>2015-07-16T08:31:14Z</time>
      </trkpt>
      <trkpt lat="44.82907" lon="5.45407">
        <ele>1541.13</ele>
        <time>2015-07-16T08:31:34Z</time>
      </trkpt>
      <trkpt lat="44.82891" lon="5.45407">
        <ele>1539.21</ele>
        <time>2015-07-16T08:31:50Z</time>
      </trkpt>
      <trkpt lat="44.82878" lon="5.45419">
        <ele>1538.25</ele>
        <time>2015-07-16T08:32:07Z</time>
      </trkpt>
      <trkpt lat="44.82867" lon="5.45426">
        <ele>1536.8</ele>
        <time>2015-07-16T08:32:19Z</time>
      </trkpt>
      <trkpt lat="44.82864" lon="5.45429">
        <ele>1536.32</ele>
        <time>2015-07-16T08:32:23Z</time>
      </trkpt>
      <trkpt lat="44.82858" lon="5.45435">
        <ele>1535.84</ele>
        <time>2015-07-16T08:32:39Z</time>
      </trkpt>
      <trkpt lat="44.82857" lon="5.45435">
        <ele>1535.36</ele>
        <time>2015-07-16T08:32:54Z</time>
      </trkpt>
      <trkpt lat="44.82854" lon="5.45437">
        <ele>1534.88</ele>
        <time>2015-07-16T08:33:14Z</time>
      </trkpt>
      <trkpt lat="44.82845" lon="5.45447">
        <ele>1531.52</ele>
        <time>2015-07-16T08:33:30Z</time>
      </trkpt>
      <trkpt lat="44.82839" lon="5.45457">
        <ele>1528.63</ele>
        <time>2015-07-16T08:33:47Z</time>
      </trkpt>
      <trkpt lat="44.82831" lon="5.45471">
        <ele>1525.27</ele>
        <time>2015-07-16T08:34:05Z</time>
      </trkpt>
      <trkpt lat="44.82823" lon="5.45485">
        <ele>1522.39</ele>
        <time>2015-07-16T08:34:22Z</time>
      </trkpt>
      <trkpt lat="44.82813" lon="5.45494">
        <ele>1519.5</ele>
        <time>2015-07-16T08:34:37Z</time>
      </trkpt>
      <trkpt lat="44.82807" lon="5.45503">
        <ele>1516.62</ele>
        <time>2015-07-16T08:34:55Z</time>
      </trkpt>
      <trkpt lat="44.82798" lon="5.4551">
        <ele>1513.25</ele>
        <time>2015-07-16T08:35:10Z</time>
      </trkpt>
      <trkpt lat="44.82792" lon="5.45521">
        <ele>1510.37</ele>
        <time>2015-07-16T08:35:27Z</time>
      </trkpt>
      <trkpt lat="44.82783" lon="5.4553">
        <ele>1507</ele>
        <time>2015-07-16T08:35:46Z</time>
      </trkpt>
      <trkpt lat="44.82773" lon="5.45539">
        <ele>1504.12</ele>
        <time>2015-07-16T08:36:03Z</time>
      </trkpt>
      <trkpt lat="44.82767" lon="5.45551">
        <ele>1503.16</ele>
        <time>2015-07-16T08:36:23Z</time>
      </trkpt>
      <trkpt lat="44.82758" lon="5.45548">
        <ele>1501.24</ele>
        <time>2015-07-16T08:36:42Z</time>
      </trkpt>
      <trkpt lat="44.82748" lon="5.45559">
        <ele>1497.87</ele>
        <time>2015-07-16T08:36:58Z</time>
      </trkpt>
      <trkpt lat="44.82737" lon="5.45576">
        <ele>1495.47</ele>
        <time>2015-07-16T08:37:16Z</time>
      </trkpt>
      <trkpt lat="44.82729" lon="5.45576">
        <ele>1492.58</ele>
        <time>2015-07-16T08:37:32Z</time>
      </trkpt>
      <trkpt lat="44.82718" lon="5.45579">
        <ele>1489.7</ele>
        <time>2015-07-16T08:37:46Z</time>
      </trkpt>
      <trkpt lat="44.82714" lon="5.45579">
        <ele>1487.3</ele>
        <time>2015-07-16T08:38:02Z</time>
      </trkpt>
      <trkpt lat="44.82707" lon="5.45578">
        <ele>1484.89</ele>
        <time>2015-07-16T08:38:17Z</time>
      </trkpt>
      <trkpt lat="44.82696" lon="5.45579">
        <ele>1481.53</ele>
        <time>2015-07-16T08:38:35Z</time>
      </trkpt>
      <trkpt lat="44.82687" lon="5.45582">
        <ele>1478.65</ele>
        <time>2015-07-16T08:38:53Z</time>
      </trkpt>
      <trkpt lat="44.82676" lon="5.45593">
        <ele>1476.72</ele>
        <time>2015-07-16T08:39:10Z</time>
      </trkpt>
      <trkpt lat="44.82669" lon="5.45601">
        <ele>1475.76</ele>
        <time>2015-07-16T08:39:22Z</time>
      </trkpt>
      <trkpt lat="44.82658" lon="5.45609">
        <ele>1472.4</ele>
        <time>2015-07-16T08:39:40Z</time>
      </trkpt>
      <trkpt lat="44.82648" lon="5.45618">
        <ele>1470.95</ele>
        <time>2015-07-16T08:39:58Z</time>
      </trkpt>
      <trkpt lat="44.82639" lon="5.45629">
        <ele>1469.99</ele>
        <time>2015-07-16T08:40:13Z</time>
      </trkpt>
      <trkpt lat="44.82636" lon="5.45631">
        <ele>1469.51</ele>
        <time>2015-07-16T08:40:17Z</time>
      </trkpt>
      <trkpt lat="44.82624" lon="5.45644">
        <ele>1467.11</ele>
        <time>2015-07-16T08:40:35Z</time>
      </trkpt>
      <trkpt lat="44.82615" lon="5.45652">
        <ele>1464.23</ele>
        <time>2015-07-16T08:40:51Z</time>
      </trkpt>
      <trkpt lat="44.82609" lon="5.45662">
        <ele>1460.86</ele>
        <time>2015-07-16T08:41:07Z</time>
      </trkpt>
      <trkpt lat="44.82601" lon="5.45671">
        <ele>1457.98</ele>
        <time>2015-07-16T08:41:23Z</time>
      </trkpt>
      <trkpt lat="44.82593" lon="5.45682">
        <ele>1454.61</ele>
        <time>2015-07-16T08:41:40Z</time>
      </trkpt>
      <trkpt lat="44.82579" lon="5.45694">
        <ele>1453.65</ele>
        <time>2015-07-16T08:41:57Z</time>
      </trkpt>
      <trkpt lat="44.82567" lon="5.45703">
        <ele>1454.13</ele>
        <time>2015-07-16T08:42:15Z</time>
      </trkpt>
      <trkpt lat="44.8255" lon="5.45715">
        <ele>1453.17</ele>
        <time>2015-07-16T08:42:33Z</time>
      </trkpt>
      <trkpt lat="44.82543" lon="5.4573">
        <ele>1453.65</ele>
        <time>2015-07-16T08:42:49Z</time>
      </trkpt>
      <trkpt lat="44.82541" lon="5.45745">
        <ele>1453.65</ele>
        <time>2015-07-16T08:43:02Z</time>
      </trkpt>
      <trkpt lat="44.8254" lon="5.45751">
        <ele>1453.65</ele>
        <time>2015-07-16T08:43:05Z</time>
      </trkpt>
      <trkpt lat="44.82529" lon="5.45778">
        <ele>1452.69</ele>
        <time>2015-07-16T08:43:25Z</time>
      </trkpt>
      <trkpt lat="44.82524" lon="5.45797">
        <ele>1453.65</ele>
        <time>2015-07-16T08:43:41Z</time>
      </trkpt>
      <trkpt lat="44.82518" lon="5.45812">
        <ele>1455.09</ele>
        <time>2015-07-16T08:43:57Z</time>
      </trkpt>
      <trkpt lat="44.82515" lon="5.45823">
        <ele>1456.05</ele>
        <time>2015-07-16T08:44:15Z</time>
      </trkpt>
      <trkpt lat="44.82506" lon="5.45848">
        <ele>1457.5</ele>
        <time>2015-07-16T08:44:34Z</time>
      </trkpt>
      <trkpt lat="44.825" lon="5.4587">
        <ele>1457.5</ele>
        <time>2015-07-16T08:44:53Z</time>
      </trkpt>
      <trkpt lat="44.82488" lon="5.45881">
        <ele>1455.09</ele>
        <time>2015-07-16T08:45:12Z</time>
      </trkpt>
      <trkpt lat="44.82481" lon="5.45888">
        <ele>1455.09</ele>
        <time>2015-07-16T08:45:27Z</time>
      </trkpt>
      <trkpt lat="44.82463" lon="5.45892">
        <ele>1454.61</ele>
        <time>2015-07-16T08:45:44Z</time>
      </trkpt>
      <trkpt lat="44.82449" lon="5.45907">
        <ele>1453.17</ele>
        <time>2015-07-16T08:46:03Z</time>
      </trkpt>
      <trkpt lat="44.82442" lon="5.45925">
        <ele>1453.17</ele>
        <time>2015-07-16T08:46:19Z</time>
      </trkpt>
      <trkpt lat="44.82424" lon="5.4594">
        <ele>1455.09</ele>
        <time>2015-07-16T08:46:39Z</time>
      </trkpt>
      <trkpt lat="44.82415" lon="5.45955">
        <ele>1455.09</ele>
        <time>2015-07-16T08:46:57Z</time>
      </trkpt>
      <trkpt lat="44.82408" lon="5.45966">
        <ele>1456.05</ele>
        <time>2015-07-16T08:47:14Z</time>
      </trkpt>
      <trkpt lat="44.82401" lon="5.45979">
        <ele>1457.02</ele>
        <time>2015-07-16T08:47:31Z</time>
      </trkpt>
      <trkpt lat="44.82383" lon="5.45993">
        <ele>1456.53</ele>
        <time>2015-07-16T08:47:50Z</time>
      </trkpt>
      <trkpt lat="44.82369" lon="5.46001">
        <ele>1456.53</ele>
        <time>2015-07-16T08:48:08Z</time>
      </trkpt>
      <trkpt lat="44.82348" lon="5.46001">
        <ele>1457.02</ele>
        <time>2015-07-16T08:48:25Z</time>
      </trkpt>
      <trkpt lat="44.82335" lon="5.4601">
        <ele>1458.94</ele>
        <time>2015-07-16T08:48:46Z</time>
      </trkpt>
      <trkpt lat="44.82331" lon="5.46026">
        <ele>1459.42</ele>
        <time>2015-07-16T08:49:03Z</time>
      </trkpt>
      <trkpt lat="44.8233" lon="5.4605">
        <ele>1459.9</ele>
        <time>2015-07-16T08:49:22Z</time>
      </trkpt>
      <trkpt lat="44.82328" lon="5.4608">
        <ele>1459.42</ele>
        <time>2015-07-16T08:49:40Z</time>
      </trkpt>
      <trkpt lat="44.82329" lon="5.46108">
        <ele>1458.94</ele>
        <time>2015-07-16T08:50:00Z</time>
      </trkpt>
      <trkpt lat="44.82344" lon="5.46131">
        <ele>1459.42</ele>
        <time>2015-07-16T08:50:22Z</time>
      </trkpt>
      <trkpt lat="44.82356" lon="5.46158">
        <ele>1460.86</ele>
        <time>2015-07-16T08:50:44Z</time>
      </trkpt>
      <trkpt lat="44.82361" lon="5.46177">
        <ele>1461.82</ele>
        <time>2015-07-16T08:51:03Z</time>
      </trkpt>
      <trkpt lat="44.82361" lon="5.46195">
        <ele>1461.82</ele>
        <time>2015-07-16T08:51:20Z</time>
      </trkpt>
      <trkpt lat="44.82365" lon="5.46217">
        <ele>1462.3</ele>
        <time>2015-07-16T08:51:40Z</time>
      </trkpt>
      <trkpt lat="44.8236" lon="5.46235">
        <ele>1461.82</ele>
        <time>2015-07-16T08:51:58Z</time>
      </trkpt>
      <trkpt lat="44.82356" lon="5.46256">
        <ele>1460.86</ele>
        <time>2015-07-16T08:52:19Z</time>
      </trkpt>
      <trkpt lat="44.82355" lon="5.46274">
        <ele>1461.34</ele>
        <time>2015-07-16T08:52:35Z</time>
      </trkpt>
      <trkpt lat="44.8235" lon="5.46298">
        <ele>1462.3</ele>
        <time>2015-07-16T08:52:55Z</time>
      </trkpt>
      <trkpt lat="44.82345" lon="5.46313">
        <ele>1463.26</ele>
        <time>2015-07-16T08:53:11Z</time>
      </trkpt>
      <trkpt lat="44.82336" lon="5.46329">
        <ele>1463.26</ele>
        <time>2015-07-16T08:53:28Z</time>
      </trkpt>
      <trkpt lat="44.82332" lon="5.46351">
        <ele>1464.23</ele>
        <time>2015-07-16T08:53:48Z</time>
      </trkpt>
      <trkpt lat="44.82331" lon="5.46369">
        <ele>1465.67</ele>
        <time>2015-07-16T08:54:05Z</time>
      </trkpt>
      <trkpt lat="44.8233" lon="5.46391">
        <ele>1467.11</ele>
        <time>2015-07-16T08:54:24Z</time>
      </trkpt>
      <trkpt lat="44.82329" lon="5.46412">
        <ele>1467.59</ele>
        <time>2015-07-16T08:54:41Z</time>
      </trkpt>
      <trkpt lat="44.82323" lon="5.46424">
        <ele>1466.63</ele>
        <time>2015-07-16T08:54:59Z</time>
      </trkpt>
      <trkpt lat="44.82322" lon="5.46425">
        <ele>1467.11</ele>
        <time>2015-07-16T08:55:00Z</time>
      </trkpt>
      <trkpt lat="44.82317" lon="5.46444">
        <ele>1466.15</ele>
        <time>2015-07-16T08:55:16Z</time>
      </trkpt>
      <trkpt lat="44.82317" lon="5.46465">
        <ele>1467.11</ele>
        <time>2015-07-16T08:55:34Z</time>
      </trkpt>
      <trkpt lat="44.82309" lon="5.46491">
        <ele>1465.67</ele>
        <time>2015-07-16T08:55:53Z</time>
      </trkpt>
      <trkpt lat="44.82298" lon="5.46512">
        <ele>1466.15</ele>
        <time>2015-07-16T08:56:12Z</time>
      </trkpt>
      <trkpt lat="44.8229" lon="5.46528">
        <ele>1466.15</ele>
        <time>2015-07-16T08:56:28Z</time>
      </trkpt>
      <trkpt lat="44.8228" lon="5.46538">
        <ele>1466.15</ele>
        <time>2015-07-16T08:56:42Z</time>
      </trkpt>
      <trkpt lat="44.82265" lon="5.4655">
        <ele>1465.67</ele>
        <time>2015-07-16T08:56:58Z</time>
      </trkpt>
      <trkpt lat="44.82254" lon="5.46564">
        <ele>1464.71</ele>
        <time>2015-07-16T08:57:14Z</time>
      </trkpt>
      <trkpt lat="44.82241" lon="5.46584">
        <ele>1463.74</ele>
        <time>2015-07-16T08:57:35Z</time>
      </trkpt>
      <trkpt lat="44.82234" lon="5.46602">
        <ele>1463.26</ele>
        <time>2015-07-16T08:57:50Z</time>
      </trkpt>
      <trkpt lat="44.82225" lon="5.46622">
        <ele>1463.74</ele>
        <time>2015-07-16T08:58:08Z</time>
      </trkpt>
      <trkpt lat="44.82219" lon="5.46641">
        <ele>1462.78</ele>
        <time>2015-07-16T08:58:25Z</time>
      </trkpt>
      <trkpt lat="44.82212" lon="5.4666">
        <ele>1462.3</ele>
        <time>2015-07-16T08:58:42Z</time>
      </trkpt>
      <trkpt lat="44.82206" lon="5.46682">
        <ele>1463.26</ele>
        <time>2015-07-16T08:59:01Z</time>
      </trkpt>
      <trkpt lat="44.82197" lon="5.46709">
        <ele>1464.23</ele>
        <time>2015-07-16T08:59:17Z</time>
      </trkpt>
      <trkpt lat="44.82188" lon="5.4672">
        <ele>1465.67</ele>
        <time>2015-07-16T08:59:34Z</time>
      </trkpt>
      <trkpt lat="44.82184" lon="5.46738">
        <ele>1466.15</ele>
        <time>2015-07-16T08:59:51Z</time>
      </trkpt>
      <trkpt lat="44.82183" lon="5.46764">
        <ele>1465.67</ele>
        <time>2015-07-16T09:00:09Z</time>
      </trkpt>
      <trkpt lat="44.82181" lon="5.46779">
        <ele>1465.19</ele>
        <time>2015-07-16T09:00:23Z</time>
      </trkpt>
      <trkpt lat="44.82173" lon="5.46794">
        <ele>1463.26</ele>
        <time>2015-07-16T09:00:40Z</time>
      </trkpt>
      <trkpt lat="44.82163" lon="5.46809">
        <ele>1463.26</ele>
        <time>2015-07-16T09:00:57Z</time>
      </trkpt>
      <trkpt lat="44.82159" lon="5.46827">
        <ele>1464.23</ele>
        <time>2015-07-16T09:01:14Z</time>
      </trkpt>
      <trkpt lat="44.82158" lon="5.46844">
        <ele>1464.71</ele>
        <time>2015-07-16T09:01:29Z</time>
      </trkpt>
      <trkpt lat="44.82148" lon="5.4687">
        <ele>1465.67</ele>
        <time>2015-07-16T09:01:45Z</time>
      </trkpt>
      <trkpt lat="44.82136" lon="5.46872">
        <ele>1463.74</ele>
        <time>2015-07-16T09:02:02Z</time>
      </trkpt>
      <trkpt lat="44.82127" lon="5.46877">
        <ele>1462.3</ele>
        <time>2015-07-16T09:02:20Z</time>
      </trkpt>
      <trkpt lat="44.82117" lon="5.46865">
        <ele>1460.38</ele>
        <time>2015-07-16T09:02:36Z</time>
      </trkpt>
      <trkpt lat="44.82101" lon="5.46854">
        <ele>1458.94</ele>
        <time>2015-07-16T09:02:51Z</time>
      </trkpt>
      <trkpt lat="44.82088" lon="5.4686">
        <ele>1457.98</ele>
        <time>2015-07-16T09:03:06Z</time>
      </trkpt>
      <trkpt lat="44.82077" lon="5.46878">
        <ele>1456.53</ele>
        <time>2015-07-16T09:03:25Z</time>
      </trkpt>
      <trkpt lat="44.82073" lon="5.46895">
        <ele>1456.05</ele>
        <time>2015-07-16T09:03:40Z</time>
      </trkpt>
      <trkpt lat="44.82084" lon="5.46917">
        <ele>1454.13</ele>
        <time>2015-07-16T09:03:58Z</time>
      </trkpt>
      <trkpt lat="44.82094" lon="5.46947">
        <ele>1452.69</ele>
        <time>2015-07-16T09:04:17Z</time>
      </trkpt>
      <trkpt lat="44.82087" lon="5.46971">
        <ele>1452.21</ele>
        <time>2015-07-16T09:04:37Z</time>
      </trkpt>
      <trkpt lat="44.8209" lon="5.46989">
        <ele>1452.21</ele>
        <time>2015-07-16T09:04:51Z</time>
      </trkpt>
      <trkpt lat="44.82083" lon="5.47012">
        <ele>1451.73</ele>
        <time>2015-07-16T09:05:10Z</time>
      </trkpt>
      <trkpt lat="44.82088" lon="5.47029">
        <ele>1450.29</ele>
        <time>2015-07-16T09:05:25Z</time>
      </trkpt>
      <trkpt lat="44.8209" lon="5.47034">
        <ele>1449.32</ele>
        <time>2015-07-16T09:05:29Z</time>
      </trkpt>
      <trkpt lat="44.82089" lon="5.47052">
        <ele>1446.44</ele>
        <time>2015-07-16T09:05:44Z</time>
      </trkpt>
      <trkpt lat="44.82081" lon="5.47073">
        <ele>1444.04</ele>
        <time>2015-07-16T09:06:02Z</time>
      </trkpt>
      <trkpt lat="44.82082" lon="5.47096">
        <ele>1443.08</ele>
        <time>2015-07-16T09:06:19Z</time>
      </trkpt>
      <trkpt lat="44.82083" lon="5.47116">
        <ele>1441.63</ele>
        <time>2015-07-16T09:06:35Z</time>
      </trkpt>
      <trkpt lat="44.82083" lon="5.47134">
        <ele>1439.71</ele>
        <time>2015-07-16T09:06:51Z</time>
      </trkpt>
      <trkpt lat="44.82078" lon="5.47153">
        <ele>1437.31</ele>
        <time>2015-07-16T09:07:06Z</time>
      </trkpt>
      <trkpt lat="44.82073" lon="5.47173">
        <ele>1435.39</ele>
        <time>2015-07-16T09:07:25Z</time>
      </trkpt>
      <trkpt lat="44.82073" lon="5.47196">
        <ele>1434.42</ele>
        <time>2015-07-16T09:07:42Z</time>
      </trkpt>
      <trkpt lat="44.8207" lon="5.47216">
        <ele>1432.5</ele>
        <time>2015-07-16T09:07:57Z</time>
      </trkpt>
      <trkpt lat="44.82067" lon="5.47236">
        <ele>1430.1</ele>
        <time>2015-07-16T09:08:14Z</time>
      </trkpt>
      <trkpt lat="44.82065" lon="5.47255">
        <ele>1430.1</ele>
        <time>2015-07-16T09:08:29Z</time>
      </trkpt>
      <trkpt lat="44.82061" lon="5.47284">
        <ele>1430.1</ele>
        <time>2015-07-16T09:08:46Z</time>
      </trkpt>
      <trkpt lat="44.82062" lon="5.47305">
        <ele>1429.14</ele>
        <time>2015-07-16T09:09:01Z</time>
      </trkpt>
      <trkpt lat="44.82065" lon="5.47334">
        <ele>1428.18</ele>
        <time>2015-07-16T09:09:20Z</time>
      </trkpt>
      <trkpt lat="44.82068" lon="5.47352">
        <ele>1427.7</ele>
        <time>2015-07-16T09:09:36Z</time>
      </trkpt>
      <trkpt lat="44.82078" lon="5.47376">
        <ele>1427.21</ele>
        <time>2015-07-16T09:09:54Z</time>
      </trkpt>
      <trkpt lat="44.8209" lon="5.47393">
        <ele>1426.25</ele>
        <time>2015-07-16T09:10:10Z</time>
      </trkpt>
      <trkpt lat="44.82092" lon="5.47416">
        <ele>1424.33</ele>
        <time>2015-07-16T09:10:28Z</time>
      </trkpt>
      <trkpt lat="44.82078" lon="5.47426">
        <ele>1422.89</ele>
        <time>2015-07-16T09:10:43Z</time>
      </trkpt>
      <trkpt lat="44.82078" lon="5.47442">
        <ele>1420</ele>
        <time>2015-07-16T09:10:58Z</time>
      </trkpt>
      <trkpt lat="44.82081" lon="5.4746">
        <ele>1416.64</ele>
        <time>2015-07-16T09:11:15Z</time>
      </trkpt>
      <trkpt lat="44.82083" lon="5.47475">
        <ele>1413.76</ele>
        <time>2015-07-16T09:11:32Z</time>
      </trkpt>
      <trkpt lat="44.82085" lon="5.47484">
        <ele>1412.31</ele>
        <time>2015-07-16T09:11:39Z</time>
      </trkpt>
      <trkpt lat="44.82085" lon="5.47506">
        <ele>1408.95</ele>
        <time>2015-07-16T09:11:53Z</time>
      </trkpt>
      <trkpt lat="44.82088" lon="5.47522">
        <ele>1406.55</ele>
        <time>2015-07-16T09:12:06Z</time>
      </trkpt>
      <trkpt lat="44.82085" lon="5.47535">
        <ele>1403.66</ele>
        <time>2015-07-16T09:12:20Z</time>
      </trkpt>
      <trkpt lat="44.82078" lon="5.47553">
        <ele>1400.3</ele>
        <time>2015-07-16T09:12:35Z</time>
      </trkpt>
      <trkpt lat="44.82076" lon="5.47555">
        <ele>1399.82</ele>
        <time>2015-07-16T09:12:37Z</time>
      </trkpt>
      <trkpt lat="44.82071" lon="5.47572">
        <ele>1397.41</ele>
        <time>2015-07-16T09:12:54Z</time>
      </trkpt>
      <trkpt lat="44.8207" lon="5.47592">
        <ele>1395.49</ele>
        <time>2015-07-16T09:13:11Z</time>
      </trkpt>
      <trkpt lat="44.82067" lon="5.47616">
        <ele>1392.13</ele>
        <time>2015-07-16T09:13:30Z</time>
      </trkpt>
      <trkpt lat="44.82062" lon="5.4763">
        <ele>1389.72</ele>
        <time>2015-07-16T09:13:43Z</time>
      </trkpt>
      <trkpt lat="44.82059" lon="5.47648">
        <ele>1387.32</ele>
        <time>2015-07-16T09:13:58Z</time>
      </trkpt>
      <trkpt lat="44.82055" lon="5.47666">
        <ele>1385.4</ele>
        <time>2015-07-16T09:14:15Z</time>
      </trkpt>
      <trkpt lat="44.8204" lon="5.47674">
        <ele>1384.44</ele>
        <time>2015-07-16T09:14:32Z</time>
      </trkpt>
      <trkpt lat="44.82046" lon="5.47676">
        <ele>1383.96</ele>
        <time>2015-07-16T09:14:46Z</time>
      </trkpt>
      <trkpt lat="44.82046" lon="5.47676">
        <ele>1383.96</ele>
        <time>2015-07-16T09:15:06Z</time>
      </trkpt>
      <trkpt lat="44.82047" lon="5.47677">
        <ele>1384.44</ele>
        <time>2015-07-16T09:15:28Z</time>
      </trkpt>
      <trkpt lat="44.82049" lon="5.47677">
        <ele>1384.44</ele>
        <time>2015-07-16T09:15:46Z</time>
      </trkpt>
      <trkpt lat="44.82051" lon="5.47677">
        <ele>1384.44</ele>
        <time>2015-07-16T09:16:18Z</time>
      </trkpt>
      <trkpt lat="44.82048" lon="5.47675">
        <ele>1383.47</ele>
        <time>2015-07-16T09:16:42Z</time>
      </trkpt>
      <trkpt lat="44.82049" lon="5.47683">
        <ele>1383.96</ele>
        <time>2015-07-16T09:17:01Z</time>
      </trkpt>
      <trkpt lat="44.82048" lon="5.47675">
        <ele>1383.47</ele>
        <time>2015-07-16T09:17:18Z</time>
      </trkpt>
      <trkpt lat="44.82047" lon="5.47682">
        <ele>1383.96</ele>
        <time>2015-07-16T09:17:38Z</time>
      </trkpt>
      <trkpt lat="44.82051" lon="5.4768">
        <ele>1383.96</ele>
        <time>2015-07-16T09:18:02Z</time>
      </trkpt>
      <trkpt lat="44.82052" lon="5.47679">
        <ele>1383.96</ele>
        <time>2015-07-16T09:18:28Z</time>
      </trkpt>
      <trkpt lat="44.82053" lon="5.47679">
        <ele>1384.44</ele>
        <time>2015-07-16T09:18:54Z</time>
      </trkpt>
      <trkpt lat="44.82047" lon="5.47676">
        <ele>1384.44</ele>
        <time>2015-07-16T09:19:17Z</time>
      </trkpt>
      <trkpt lat="44.82044" lon="5.47675">
        <ele>1384.44</ele>
        <time>2015-07-16T09:19:47Z</time>
      </trkpt>
      <trkpt lat="44.82051" lon="5.47679">
        <ele>1384.44</ele>
        <time>2015-07-16T09:20:13Z</time>
      </trkpt>
      <trkpt lat="44.82048" lon="5.47676">
        <ele>1384.44</ele>
        <time>2015-07-16T09:20:36Z</time>
      </trkpt>
      <trkpt lat="44.82051" lon="5.47678">
        <ele>1384.44</ele>
        <time>2015-07-16T09:20:55Z</time>
      </trkpt>
      <trkpt lat="44.8205" lon="5.47676">
        <ele>1384.44</ele>
        <time>2015-07-16T09:21:29Z</time>
      </trkpt>
      <trkpt lat="44.82049" lon="5.47677">
        <ele>1384.92</ele>
        <time>2015-07-16T09:21:48Z</time>
      </trkpt>
      <trkpt lat="44.82046" lon="5.47676">
        <ele>1383.96</ele>
        <time>2015-07-16T09:22:04Z</time>
      </trkpt>
      <trkpt lat="44.82047" lon="5.47676">
        <ele>1382.99</ele>
        <time>2015-07-16T09:22:19Z</time>
      </trkpt>
      <trkpt lat="44.82049" lon="5.47677">
        <ele>1383.96</ele>
        <time>2015-07-16T09:22:39Z</time>
      </trkpt>
      <trkpt lat="44.82046" lon="5.47676">
        <ele>1383.47</ele>
        <time>2015-07-16T09:23:01Z</time>
      </trkpt>
      <trkpt lat="44.82047" lon="5.47673">
        <ele>1383.47</ele>
        <time>2015-07-16T09:23:21Z</time>
      </trkpt>
      <trkpt lat="44.82047" lon="5.47684">
        <ele>1383.96</ele>
        <time>2015-07-16T09:23:39Z</time>
      </trkpt>
      <trkpt lat="44.82052" lon="5.47694">
        <ele>1385.4</ele>
        <time>2015-07-16T09:23:55Z</time>
      </trkpt>
      <trkpt lat="44.82055" lon="5.47707">
        <ele>1387.32</ele>
        <time>2015-07-16T09:24:08Z</time>
      </trkpt>
      <trkpt lat="44.8206" lon="5.4772">
        <ele>1389.24</ele>
        <time>2015-07-16T09:24:24Z</time>
      </trkpt>
      <trkpt lat="44.82059" lon="5.4772">
        <ele>1390.2</ele>
        <time>2015-07-16T09:24:39Z</time>
      </trkpt>
      <trkpt lat="44.82059" lon="5.47734">
        <ele>1392.13</ele>
        <time>2015-07-16T09:24:54Z</time>
      </trkpt>
      <trkpt lat="44.82058" lon="5.47751">
        <ele>1395.01</ele>
        <time>2015-07-16T09:25:13Z</time>
      </trkpt>
      <trkpt lat="44.82061" lon="5.47765">
        <ele>1396.93</ele>
        <time>2015-07-16T09:25:30Z</time>
      </trkpt>
      <trkpt lat="44.82068" lon="5.47774">
        <ele>1398.86</ele>
        <time>2015-07-16T09:25:45Z</time>
      </trkpt>
      <trkpt lat="44.82074" lon="5.47781">
        <ele>1400.3</ele>
        <time>2015-07-16T09:25:59Z</time>
      </trkpt>
      <trkpt lat="44.82078" lon="5.4779">
        <ele>1401.74</ele>
        <time>2015-07-16T09:26:15Z</time>
      </trkpt>
      <trkpt lat="44.82082" lon="5.47802">
        <ele>1404.62</ele>
        <time>2015-07-16T09:26:33Z</time>
      </trkpt>
      <trkpt lat="44.82081" lon="5.47812">
        <ele>1406.55</ele>
        <time>2015-07-16T09:26:47Z</time>
      </trkpt>
      <trkpt lat="44.82077" lon="5.47818">
        <ele>1407.99</ele>
        <time>2015-07-16T09:27:04Z</time>
      </trkpt>
      <trkpt lat="44.82074" lon="5.47827">
        <ele>1410.39</ele>
        <time>2015-07-16T09:27:19Z</time>
      </trkpt>
      <trkpt lat="44.82082" lon="5.4783">
        <ele>1411.83</ele>
        <time>2015-07-16T09:27:32Z</time>
      </trkpt>
      <trkpt lat="44.82083" lon="5.47838">
        <ele>1413.76</ele>
        <time>2015-07-16T09:27:48Z</time>
      </trkpt>
      <trkpt lat="44.82083" lon="5.47849">
        <ele>1416.64</ele>
        <time>2015-07-16T09:28:04Z</time>
      </trkpt>
      <trkpt lat="44.82079" lon="5.47854">
        <ele>1418.56</ele>
        <time>2015-07-16T09:28:18Z</time>
      </trkpt>
      <trkpt lat="44.82082" lon="5.47863">
        <ele>1420.97</ele>
        <time>2015-07-16T09:28:34Z</time>
      </trkpt>
      <trkpt lat="44.82084" lon="5.47871">
        <ele>1422.89</ele>
        <time>2015-07-16T09:28:49Z</time>
      </trkpt>
      <trkpt lat="44.82084" lon="5.4788">
        <ele>1425.29</ele>
        <time>2015-07-16T09:29:06Z</time>
      </trkpt>
      <trkpt lat="44.82087" lon="5.4789">
        <ele>1427.7</ele>
        <time>2015-07-16T09:29:25Z</time>
      </trkpt>
      <trkpt lat="44.8209" lon="5.47902">
        <ele>1430.1</ele>
        <time>2015-07-16T09:29:41Z</time>
      </trkpt>
      <trkpt lat="44.8209" lon="5.4791">
        <ele>1432.02</ele>
        <time>2015-07-16T09:29:56Z</time>
      </trkpt>
      <trkpt lat="44.82095" lon="5.47917">
        <ele>1434.42</ele>
        <time>2015-07-16T09:30:12Z</time>
      </trkpt>
      <trkpt lat="44.82098" lon="5.47927">
        <ele>1436.35</ele>
        <time>2015-07-16T09:30:28Z</time>
      </trkpt>
      <trkpt lat="44.82105" lon="5.47935">
        <ele>1439.23</ele>
        <time>2015-07-16T09:30:43Z</time>
      </trkpt>
      <trkpt lat="44.82106" lon="5.47945">
        <ele>1440.67</ele>
        <time>2015-07-16T09:30:59Z</time>
      </trkpt>
      <trkpt lat="44.8211" lon="5.47953">
        <ele>1442.11</ele>
        <time>2015-07-16T09:31:13Z</time>
      </trkpt>
      <trkpt lat="44.82112" lon="5.4796">
        <ele>1444.04</ele>
        <time>2015-07-16T09:31:26Z</time>
      </trkpt>
      <trkpt lat="44.82109" lon="5.47972">
        <ele>1445.96</ele>
        <time>2015-07-16T09:31:41Z</time>
      </trkpt>
      <trkpt lat="44.82116" lon="5.47981">
        <ele>1447.88</ele>
        <time>2015-07-16T09:31:56Z</time>
      </trkpt>
      <trkpt lat="44.82124" lon="5.47991">
        <ele>1449.81</ele>
        <time>2015-07-16T09:32:12Z</time>
      </trkpt>
      <trkpt lat="44.82128" lon="5.47999">
        <ele>1451.73</ele>
        <time>2015-07-16T09:32:27Z</time>
      </trkpt>
      <trkpt lat="44.82131" lon="5.48007">
        <ele>1454.13</ele>
        <time>2015-07-16T09:32:44Z</time>
      </trkpt>
      <trkpt lat="44.82136" lon="5.48017">
        <ele>1456.05</ele>
        <time>2015-07-16T09:32:59Z</time>
      </trkpt>
      <trkpt lat="44.8214" lon="5.48028">
        <ele>1457.98</ele>
        <time>2015-07-16T09:33:17Z</time>
      </trkpt>
      <trkpt lat="44.82138" lon="5.48034">
        <ele>1458.94</ele>
        <time>2015-07-16T09:33:32Z</time>
      </trkpt>
      <trkpt lat="44.82133" lon="5.48045">
        <ele>1460.38</ele>
        <time>2015-07-16T09:33:49Z</time>
      </trkpt>
      <trkpt lat="44.8213" lon="5.48051">
        <ele>1461.82</ele>
        <time>2015-07-16T09:34:02Z</time>
      </trkpt>
      <trkpt lat="44.82127" lon="5.4806">
        <ele>1463.74</ele>
        <time>2015-07-16T09:34:19Z</time>
      </trkpt>
      <trkpt lat="44.82125" lon="5.48069">
        <ele>1465.67</ele>
        <time>2015-07-16T09:34:36Z</time>
      </trkpt>
      <trkpt lat="44.82125" lon="5.48072">
        <ele>1467.11</ele>
        <time>2015-07-16T09:34:51Z</time>
      </trkpt>
      <trkpt lat="44.8212" lon="5.48073">
        <ele>1469.51</ele>
        <time>2015-07-16T09:35:09Z</time>
      </trkpt>
      <trkpt lat="44.82112" lon="5.48069">
        <ele>1470.95</ele>
        <time>2015-07-16T09:35:25Z</time>
      </trkpt>
      <trkpt lat="44.82103" lon="5.48066">
        <ele>1473.36</ele>
        <time>2015-07-16T09:35:42Z</time>
      </trkpt>
      <trkpt lat="44.82095" lon="5.48066">
        <ele>1475.28</ele>
        <time>2015-07-16T09:35:58Z</time>
      </trkpt>
      <trkpt lat="44.82101" lon="5.48082">
        <ele>1478.65</ele>
        <time>2015-07-16T09:36:15Z</time>
      </trkpt>
      <trkpt lat="44.82111" lon="5.48094">
        <ele>1481.53</ele>
        <time>2015-07-16T09:36:31Z</time>
      </trkpt>
      <trkpt lat="44.82122" lon="5.48103">
        <ele>1484.41</ele>
        <time>2015-07-16T09:36:49Z</time>
      </trkpt>
      <trkpt lat="44.82127" lon="5.48113">
        <ele>1487.3</ele>
        <time>2015-07-16T09:37:03Z</time>
      </trkpt>
      <trkpt lat="44.82134" lon="5.4812">
        <ele>1490.18</ele>
        <time>2015-07-16T09:37:21Z</time>
      </trkpt>
      <trkpt lat="44.82152" lon="5.48123">
        <ele>1493.06</ele>
        <time>2015-07-16T09:37:37Z</time>
      </trkpt>
      <trkpt lat="44.82164" lon="5.48131">
        <ele>1495.47</ele>
        <time>2015-07-16T09:37:55Z</time>
      </trkpt>
      <trkpt lat="44.82171" lon="5.48136">
        <ele>1497.87</ele>
        <time>2015-07-16T09:38:12Z</time>
      </trkpt>
      <trkpt lat="44.82171" lon="5.48139">
        <ele>1500.27</ele>
        <time>2015-07-16T09:38:23Z</time>
      </trkpt>
      <trkpt lat="44.82186" lon="5.4814">
        <ele>1502.68</ele>
        <time>2015-07-16T09:38:39Z</time>
      </trkpt>
      <trkpt lat="44.82191" lon="5.48145">
        <ele>1505.08</ele>
        <time>2015-07-16T09:38:59Z</time>
      </trkpt>
      <trkpt lat="44.82188" lon="5.48145">
        <ele>1505.56</ele>
        <time>2015-07-16T09:39:17Z</time>
      </trkpt>
      <trkpt lat="44.8219" lon="5.48144">
        <ele>1506.52</ele>
        <time>2015-07-16T09:39:32Z</time>
      </trkpt>
      <trkpt lat="44.82197" lon="5.48136">
        <ele>1507.97</ele>
        <time>2015-07-16T09:39:46Z</time>
      </trkpt>
      <trkpt lat="44.82201" lon="5.48136">
        <ele>1509.41</ele>
        <time>2015-07-16T09:40:00Z</time>
      </trkpt>
      <trkpt lat="44.82189" lon="5.48141">
        <ele>1511.33</ele>
        <time>2015-07-16T09:40:14Z</time>
      </trkpt>
      <trkpt lat="44.82192" lon="5.48141">
        <ele>1513.25</ele>
        <time>2015-07-16T09:40:30Z</time>
      </trkpt>
      <trkpt lat="44.82196" lon="5.48136">
        <ele>1515.66</ele>
        <time>2015-07-16T09:40:46Z</time>
      </trkpt>
      <trkpt lat="44.82203" lon="5.48135">
        <ele>1517.1</ele>
        <time>2015-07-16T09:41:02Z</time>
      </trkpt>
      <trkpt lat="44.82212" lon="5.48132">
        <ele>1518.54</ele>
        <time>2015-07-16T09:41:18Z</time>
      </trkpt>
      <trkpt lat="44.82221" lon="5.48137">
        <ele>1520.46</ele>
        <time>2015-07-16T09:41:35Z</time>
      </trkpt>
      <trkpt lat="44.82228" lon="5.48142">
        <ele>1522.87</ele>
        <time>2015-07-16T09:41:51Z</time>
      </trkpt>
      <trkpt lat="44.82232" lon="5.48147">
        <ele>1524.79</ele>
        <time>2015-07-16T09:42:07Z</time>
      </trkpt>
      <trkpt lat="44.8224" lon="5.48149">
        <ele>1526.71</ele>
        <time>2015-07-16T09:42:24Z</time>
      </trkpt>
      <trkpt lat="44.82247" lon="5.48148">
        <ele>1528.63</ele>
        <time>2015-07-16T09:42:40Z</time>
      </trkpt>
      <trkpt lat="44.82251" lon="5.4815">
        <ele>1530.56</ele>
        <time>2015-07-16T09:42:52Z</time>
      </trkpt>
      <trkpt lat="44.82257" lon="5.48156">
        <ele>1532.48</ele>
        <time>2015-07-16T09:43:06Z</time>
      </trkpt>
      <trkpt lat="44.82262" lon="5.48158">
        <ele>1534.88</ele>
        <time>2015-07-16T09:43:22Z</time>
      </trkpt>
      <trkpt lat="44.82269" lon="5.48159">
        <ele>1537.29</ele>
        <time>2015-07-16T09:43:38Z</time>
      </trkpt>
      <trkpt lat="44.82276" lon="5.48163">
        <ele>1538.73</ele>
        <time>2015-07-16T09:43:52Z</time>
      </trkpt>
      <trkpt lat="44.82283" lon="5.4817">
        <ele>1540.65</ele>
        <time>2015-07-16T09:44:09Z</time>
      </trkpt>
      <trkpt lat="44.82288" lon="5.48175">
        <ele>1542.09</ele>
        <time>2015-07-16T09:44:26Z</time>
      </trkpt>
      <trkpt lat="44.82293" lon="5.48178">
        <ele>1544.5</ele>
        <time>2015-07-16T09:44:43Z</time>
      </trkpt>
      <trkpt lat="44.82301" lon="5.48179">
        <ele>1546.42</ele>
        <time>2015-07-16T09:45:00Z</time>
      </trkpt>
      <trkpt lat="44.82307" lon="5.48182">
        <ele>1548.34</ele>
        <time>2015-07-16T09:45:14Z</time>
      </trkpt>
      <trkpt lat="44.82313" lon="5.48176">
        <ele>1550.26</ele>
        <time>2015-07-16T09:45:31Z</time>
      </trkpt>
      <trkpt lat="44.82319" lon="5.4818">
        <ele>1552.19</ele>
        <time>2015-07-16T09:45:47Z</time>
      </trkpt>
      <trkpt lat="44.82325" lon="5.48188">
        <ele>1554.11</ele>
        <time>2015-07-16T09:46:04Z</time>
      </trkpt>
      <trkpt lat="44.82332" lon="5.48197">
        <ele>1556.03</ele>
        <time>2015-07-16T09:46:21Z</time>
      </trkpt>
      <trkpt lat="44.82335" lon="5.48202">
        <ele>1557.95</ele>
        <time>2015-07-16T09:46:36Z</time>
      </trkpt>
      <trkpt lat="44.82336" lon="5.48215">
        <ele>1559.88</ele>
        <time>2015-07-16T09:46:55Z</time>
      </trkpt>
      <trkpt lat="44.82335" lon="5.4822">
        <ele>1561.8</ele>
        <time>2015-07-16T09:47:10Z</time>
      </trkpt>
      <trkpt lat="44.82334" lon="5.48227">
        <ele>1563.72</ele>
        <time>2015-07-16T09:47:27Z</time>
      </trkpt>
      <trkpt lat="44.82339" lon="5.48231">
        <ele>1565.16</ele>
        <time>2015-07-16T09:47:45Z</time>
      </trkpt>
      <trkpt lat="44.82352" lon="5.48236">
        <ele>1567.09</ele>
        <time>2015-07-16T09:48:03Z</time>
      </trkpt>
      <trkpt lat="44.82358" lon="5.48247">
        <ele>1569.01</ele>
        <time>2015-07-16T09:48:23Z</time>
      </trkpt>
      <trkpt lat="44.82355" lon="5.48252">
        <ele>1570.93</ele>
        <time>2015-07-16T09:48:38Z</time>
      </trkpt>
      <trkpt lat="44.82364" lon="5.48258">
        <ele>1573.33</ele>
        <time>2015-07-16T09:48:59Z</time>
      </trkpt>
      <trkpt lat="44.82371" lon="5.4827">
        <ele>1575.74</ele>
        <time>2015-07-16T09:49:16Z</time>
      </trkpt>
      <trkpt lat="44.82374" lon="5.4828">
        <ele>1577.18</ele>
        <time>2015-07-16T09:49:34Z</time>
      </trkpt>
      <trkpt lat="44.82383" lon="5.48291">
        <ele>1578.62</ele>
        <time>2015-07-16T09:49:54Z</time>
      </trkpt>
      <trkpt lat="44.8239" lon="5.48289">
        <ele>1579.58</ele>
        <time>2015-07-16T09:50:10Z</time>
      </trkpt>
      <trkpt lat="44.82398" lon="5.48293">
        <ele>1581.03</ele>
        <time>2015-07-16T09:50:30Z</time>
      </trkpt>
      <trkpt lat="44.82399" lon="5.48297">
        <ele>1581.03</ele>
        <time>2015-07-16T09:50:50Z</time>
      </trkpt>
      <trkpt lat="44.82395" lon="5.48297">
        <ele>1581.03</ele>
        <time>2015-07-16T09:51:13Z</time>
      </trkpt>
      <trkpt lat="44.82396" lon="5.48293">
        <ele>1581.03</ele>
        <time>2015-07-16T09:51:35Z</time>
      </trkpt>
      <trkpt lat="44.82397" lon="5.48296">
        <ele>1581.03</ele>
        <time>2015-07-16T09:51:58Z</time>
      </trkpt>
      <trkpt lat="44.82396" lon="5.48297">
        <ele>1581.03</ele>
        <time>2015-07-16T09:52:33Z</time>
      </trkpt>
      <trkpt lat="44.82398" lon="5.48294">
        <ele>1581.51</ele>
        <time>2015-07-16T09:52:53Z</time>
      </trkpt>
      <trkpt lat="44.82396" lon="5.48293">
        <ele>1581.51</ele>
        <time>2015-07-16T09:53:17Z</time>
      </trkpt>
      <trkpt lat="44.82393" lon="5.483">
        <ele>1581.51</ele>
        <time>2015-07-16T09:53:40Z</time>
      </trkpt>
      <trkpt lat="44.82393" lon="5.48301">
        <ele>1580.06</ele>
        <time>2015-07-16T09:53:42Z</time>
      </trkpt>
      <trkpt lat="44.82393" lon="5.48299">
        <ele>1581.99</ele>
        <time>2015-07-16T09:54:07Z</time>
      </trkpt>
      <trkpt lat="44.82391" lon="5.483">
        <ele>1581.99</ele>
        <time>2015-07-16T09:54:46Z</time>
      </trkpt>
      <trkpt lat="44.82394" lon="5.48297">
        <ele>1581.99</ele>
        <time>2015-07-16T09:55:20Z</time>
      </trkpt>
      <trkpt lat="44.82393" lon="5.48297">
        <ele>1581.51</ele>
        <time>2015-07-16T09:55:33Z</time>
      </trkpt>
      <trkpt lat="44.8239" lon="5.48291">
        <ele>1582.47</ele>
        <time>2015-07-16T09:56:03Z</time>
      </trkpt>
      <trkpt lat="44.82393" lon="5.48286">
        <ele>1582.95</ele>
        <time>2015-07-16T09:56:27Z</time>
      </trkpt>
      <trkpt lat="44.82395" lon="5.48289">
        <ele>1582.95</ele>
        <time>2015-07-16T09:56:44Z</time>
      </trkpt>
      <trkpt lat="44.82405" lon="5.48289">
        <ele>1582.95</ele>
        <time>2015-07-16T09:57:04Z</time>
      </trkpt>
      <trkpt lat="44.82415" lon="5.48278">
        <ele>1583.43</ele>
        <time>2015-07-16T09:57:20Z</time>
      </trkpt>
      <trkpt lat="44.82426" lon="5.48271">
        <ele>1585.35</ele>
        <time>2015-07-16T09:57:36Z</time>
      </trkpt>
      <trkpt lat="44.8243" lon="5.4827">
        <ele>1586.31</ele>
        <time>2015-07-16T09:57:43Z</time>
      </trkpt>
      <trkpt lat="44.82446" lon="5.48272">
        <ele>1586.79</ele>
        <time>2015-07-16T09:58:00Z</time>
      </trkpt>
      <trkpt lat="44.82459" lon="5.48269">
        <ele>1587.27</ele>
        <time>2015-07-16T09:58:16Z</time>
      </trkpt>
      <trkpt lat="44.82472" lon="5.48261">
        <ele>1588.24</ele>
        <time>2015-07-16T09:58:31Z</time>
      </trkpt>
      <trkpt lat="44.82481" lon="5.48252">
        <ele>1589.2</ele>
        <time>2015-07-16T09:58:46Z</time>
      </trkpt>
      <trkpt lat="44.82492" lon="5.48245">
        <ele>1590.64</ele>
        <time>2015-07-16T09:59:02Z</time>
      </trkpt>
      <trkpt lat="44.82502" lon="5.48236">
        <ele>1591.6</ele>
        <time>2015-07-16T09:59:18Z</time>
      </trkpt>
      <trkpt lat="44.82497" lon="5.48234">
        <ele>1592.08</ele>
        <time>2015-07-16T09:59:34Z</time>
      </trkpt>
      <trkpt lat="44.82497" lon="5.48236">
        <ele>1592.08</ele>
        <time>2015-07-16T09:59:56Z</time>
      </trkpt>
      <trkpt lat="44.82499" lon="5.48235">
        <ele>1592.56</ele>
        <time>2015-07-16T10:00:23Z</time>
      </trkpt>
      <trkpt lat="44.82505" lon="5.48236">
        <ele>1592.08</ele>
        <time>2015-07-16T10:00:53Z</time>
      </trkpt>
      <trkpt lat="44.82507" lon="5.48238">
        <ele>1592.56</ele>
        <time>2015-07-16T10:01:19Z</time>
      </trkpt>
      <trkpt lat="44.825" lon="5.48235">
        <ele>1591.6</ele>
        <time>2015-07-16T10:01:45Z</time>
      </trkpt>
      <trkpt lat="44.82499" lon="5.48235">
        <ele>1591.6</ele>
        <time>2015-07-16T10:02:06Z</time>
      </trkpt>
      <trkpt lat="44.825" lon="5.48233">
        <ele>1592.08</ele>
        <time>2015-07-16T10:02:46Z</time>
      </trkpt>
      <trkpt lat="44.82502" lon="5.48233">
        <ele>1591.6</ele>
        <time>2015-07-16T10:03:20Z</time>
      </trkpt>
      <trkpt lat="44.825" lon="5.48232">
        <ele>1592.08</ele>
        <time>2015-07-16T10:03:47Z</time>
      </trkpt>
      <trkpt lat="44.825" lon="5.48234">
        <ele>1592.56</ele>
        <time>2015-07-16T10:04:10Z</time>
      </trkpt>
      <trkpt lat="44.82498" lon="5.48232">
        <ele>1592.56</ele>
        <time>2015-07-16T10:04:36Z</time>
      </trkpt>
      <trkpt lat="44.82498" lon="5.48232">
        <ele>1591.6</ele>
        <time>2015-07-16T10:04:56Z</time>
      </trkpt>
      <trkpt lat="44.82499" lon="5.48238">
        <ele>1591.6</ele>
        <time>2015-07-16T10:05:19Z</time>
      </trkpt>
      <trkpt lat="44.82497" lon="5.48241">
        <ele>1591.6</ele>
        <time>2015-07-16T10:05:44Z</time>
      </trkpt>
      <trkpt lat="44.82496" lon="5.48237">
        <ele>1592.08</ele>
        <time>2015-07-16T10:06:14Z</time>
      </trkpt>
      <trkpt lat="44.82494" lon="5.48238">
        <ele>1592.08</ele>
        <time>2015-07-16T10:06:43Z</time>
      </trkpt>
      <trkpt lat="44.82494" lon="5.4824">
        <ele>1592.08</ele>
        <time>2015-07-16T10:07:16Z</time>
      </trkpt>
      <trkpt lat="44.82494" lon="5.48237">
        <ele>1592.08</ele>
        <time>2015-07-16T10:07:41Z</time>
      </trkpt>
      <trkpt lat="44.82496" lon="5.48236">
        <ele>1593.04</ele>
        <time>2015-07-16T10:08:10Z</time>
      </trkpt>
      <trkpt lat="44.82494" lon="5.48239">
        <ele>1592.08</ele>
        <time>2015-07-16T10:08:40Z</time>
      </trkpt>
      <trkpt lat="44.82492" lon="5.48237">
        <ele>1592.56</ele>
        <time>2015-07-16T10:09:03Z</time>
      </trkpt>
      <trkpt lat="44.82496" lon="5.4824">
        <ele>1593.04</ele>
        <time>2015-07-16T10:09:40Z</time>
      </trkpt>
      <trkpt lat="44.82493" lon="5.48239">
        <ele>1593.04</ele>
        <time>2015-07-16T10:10:04Z</time>
      </trkpt>
      <trkpt lat="44.82496" lon="5.48241">
        <ele>1593.52</ele>
        <time>2015-07-16T10:10:33Z</time>
      </trkpt>
      <trkpt lat="44.82496" lon="5.48238">
        <ele>1593.04</ele>
        <time>2015-07-16T10:11:04Z</time>
      </trkpt>
      <trkpt lat="44.82496" lon="5.48236">
        <ele>1593.52</ele>
        <time>2015-07-16T10:11:32Z</time>
      </trkpt>
      <trkpt lat="44.82496" lon="5.48238">
        <ele>1593.52</ele>
        <time>2015-07-16T10:11:59Z</time>
      </trkpt>
      <trkpt lat="44.82499" lon="5.48237">
        <ele>1594</ele>
        <time>2015-07-16T10:12:27Z</time>
      </trkpt>
      <trkpt lat="44.82494" lon="5.48236">
        <ele>1594</ele>
        <time>2015-07-16T10:12:57Z</time>
      </trkpt>
      <trkpt lat="44.82494" lon="5.48234">
        <ele>1594</ele>
        <time>2015-07-16T10:13:27Z</time>
      </trkpt>
      <trkpt lat="44.82494" lon="5.48239">
        <ele>1594</ele>
        <time>2015-07-16T10:13:56Z</time>
      </trkpt>
      <trkpt lat="44.82495" lon="5.48237">
        <ele>1594.48</ele>
        <time>2015-07-16T10:14:28Z</time>
      </trkpt>
      <trkpt lat="44.82497" lon="5.48236">
        <ele>1594.48</ele>
        <time>2015-07-16T10:14:50Z</time>
      </trkpt>
      <trkpt lat="44.825" lon="5.48237">
        <ele>1594.48</ele>
        <time>2015-07-16T10:15:23Z</time>
      </trkpt>
      <trkpt lat="44.825" lon="5.48237">
        <ele>1594.48</ele>
        <time>2015-07-16T10:15:56Z</time>
      </trkpt>
      <trkpt lat="44.82501" lon="5.48238">
        <ele>1594.48</ele>
        <time>2015-07-16T10:16:33Z</time>
      </trkpt>
      <trkpt lat="44.82499" lon="5.48236">
        <ele>1594.96</ele>
        <time>2015-07-16T10:17:01Z</time>
      </trkpt>
      <trkpt lat="44.82504" lon="5.48236">
        <ele>1594.48</ele>
        <time>2015-07-16T10:17:38Z</time>
      </trkpt>
      <trkpt lat="44.825" lon="5.48237">
        <ele>1594.48</ele>
        <time>2015-07-16T10:18:14Z</time>
      </trkpt>
      <trkpt lat="44.82498" lon="5.48239">
        <ele>1594.96</ele>
        <time>2015-07-16T10:18:47Z</time>
      </trkpt>
      <trkpt lat="44.82503" lon="5.48236">
        <ele>1594.96</ele>
        <time>2015-07-16T10:19:21Z</time>
      </trkpt>
      <trkpt lat="44.82499" lon="5.48236">
        <ele>1594.48</ele>
        <time>2015-07-16T10:19:51Z</time>
      </trkpt>
      <trkpt lat="44.825" lon="5.48236">
        <ele>1594.48</ele>
        <time>2015-07-16T10:20:22Z</time>
      </trkpt>
      <trkpt lat="44.82504" lon="5.48234">
        <ele>1594.96</ele>
        <time>2015-07-16T10:20:52Z</time>
      </trkpt>
      <trkpt lat="44.82504" lon="5.48234">
        <ele>1594.96</ele>
        <time>2015-07-16T10:21:20Z</time>
      </trkpt>
      <trkpt lat="44.82499" lon="5.48236">
        <ele>1594.48</ele>
        <time>2015-07-16T10:21:49Z</time>
      </trkpt>
      <trkpt lat="44.82496" lon="5.48231">
        <ele>1594.48</ele>
        <time>2015-07-16T10:22:18Z</time>
      </trkpt>
      <trkpt lat="44.825" lon="5.48239">
        <ele>1594.96</ele>
        <time>2015-07-16T10:22:48Z</time>
      </trkpt>
      <trkpt lat="44.82503" lon="5.48239">
        <ele>1594.48</ele>
        <time>2015-07-16T10:23:18Z</time>
      </trkpt>
      <trkpt lat="44.82499" lon="5.48237">
        <ele>1594.48</ele>
        <time>2015-07-16T10:23:53Z</time>
      </trkpt>
      <trkpt lat="44.82498" lon="5.48237">
        <ele>1594.48</ele>
        <time>2015-07-16T10:24:25Z</time>
      </trkpt>
      <trkpt lat="44.82498" lon="5.48239">
        <ele>1594.48</ele>
        <time>2015-07-16T10:24:52Z</time>
      </trkpt>
      <trkpt lat="44.82505" lon="5.48239">
        <ele>1594</ele>
        <time>2015-07-16T10:25:22Z</time>
      </trkpt>
      <trkpt lat="44.82489" lon="5.48234">
        <ele>1594</ele>
        <time>2015-07-16T10:25:47Z</time>
      </trkpt>
      <trkpt lat="44.82494" lon="5.48234">
        <ele>1594.48</ele>
        <time>2015-07-16T10:26:05Z</time>
      </trkpt>
      <trkpt lat="44.82498" lon="5.48232">
        <ele>1594</ele>
        <time>2015-07-16T10:26:23Z</time>
      </trkpt>
      <trkpt lat="44.82497" lon="5.48232">
        <ele>1594</ele>
        <time>2015-07-16T10:26:26Z</time>
      </trkpt>
      <trkpt lat="44.82498" lon="5.48235">
        <ele>1594.48</ele>
        <time>2015-07-16T10:26:41Z</time>
      </trkpt>
      <trkpt lat="44.82501" lon="5.48237">
        <ele>1594</ele>
        <time>2015-07-16T10:27:10Z</time>
      </trkpt>
      <trkpt lat="44.825" lon="5.48236">
        <ele>1594.48</ele>
        <time>2015-07-16T10:27:41Z</time>
      </trkpt>
      <trkpt lat="44.82498" lon="5.48236">
        <ele>1593.52</ele>
        <time>2015-07-16T10:28:25Z</time>
      </trkpt>
      <trkpt lat="44.825" lon="5.48235">
        <ele>1596.89</ele>
        <time>2015-07-16T10:28:44Z</time>
      </trkpt>
      <trkpt lat="44.825" lon="5.48235">
        <ele>1593.52</ele>
        <time>2015-07-16T10:28:45Z</time>
      </trkpt>
      <trkpt lat="44.825" lon="5.48236">
        <ele>1593.04</ele>
        <time>2015-07-16T10:28:54Z</time>
      </trkpt>
      <trkpt lat="44.825" lon="5.48237">
        <ele>1594.48</ele>
        <time>2015-07-16T10:29:01Z</time>
      </trkpt>
      <trkpt lat="44.82496" lon="5.48235">
        <ele>1593.04</ele>
        <time>2015-07-16T10:29:28Z</time>
      </trkpt>
      <trkpt lat="44.82498" lon="5.48234">
        <ele>1594.96</ele>
        <time>2015-07-16T10:29:53Z</time>
      </trkpt>
      <trkpt lat="44.82498" lon="5.48234">
        <ele>1593.52</ele>
        <time>2015-07-16T10:29:56Z</time>
      </trkpt>
      <trkpt lat="44.82497" lon="5.48235">
        <ele>1595.45</ele>
        <time>2015-07-16T10:30:26Z</time>
      </trkpt>
      <trkpt lat="44.82499" lon="5.48237">
        <ele>1594</ele>
        <time>2015-07-16T10:31:08Z</time>
      </trkpt>
      <trkpt lat="44.82497" lon="5.48234">
        <ele>1594.96</ele>
        <time>2015-07-16T10:31:40Z</time>
      </trkpt>
      <trkpt lat="44.82495" lon="5.48232">
        <ele>1594.48</ele>
        <time>2015-07-16T10:32:09Z</time>
      </trkpt>
      <trkpt lat="44.82494" lon="5.48233">
        <ele>1594.48</ele>
        <time>2015-07-16T10:32:46Z</time>
      </trkpt>
      <trkpt lat="44.82494" lon="5.48234">
        <ele>1594</ele>
        <time>2015-07-16T10:33:22Z</time>
      </trkpt>
      <trkpt lat="44.82494" lon="5.48235">
        <ele>1594</ele>
        <time>2015-07-16T10:33:55Z</time>
      </trkpt>
      <trkpt lat="44.82493" lon="5.48234">
        <ele>1594</ele>
        <time>2015-07-16T10:34:32Z</time>
      </trkpt>
      <trkpt lat="44.82495" lon="5.48233">
        <ele>1594</ele>
        <time>2015-07-16T10:35:01Z</time>
      </trkpt>
      <trkpt lat="44.82498" lon="5.48234">
        <ele>1593.52</ele>
        <time>2015-07-16T10:35:23Z</time>
      </trkpt>
      <trkpt lat="44.82496" lon="5.48234">
        <ele>1594</ele>
        <time>2015-07-16T10:36:00Z</time>
      </trkpt>
      <trkpt lat="44.82498" lon="5.48235">
        <ele>1594</ele>
        <time>2015-07-16T10:36:41Z</time>
      </trkpt>
      <trkpt lat="44.82498" lon="5.48235">
        <ele>1594.48</ele>
        <time>2015-07-16T10:37:21Z</time>
      </trkpt>
      <trkpt lat="44.82498" lon="5.48235">
        <ele>1594</ele>
        <time>2015-07-16T10:37:54Z</time>
      </trkpt>
      <trkpt lat="44.82498" lon="5.48234">
        <ele>1594.48</ele>
        <time>2015-07-16T10:38:22Z</time>
      </trkpt>
      <trkpt lat="44.82497" lon="5.48235">
        <ele>1594.48</ele>
        <time>2015-07-16T10:39:11Z</time>
      </trkpt>
      <trkpt lat="44.82498" lon="5.48234">
        <ele>1594.96</ele>
        <time>2015-07-16T10:39:47Z</time>
      </trkpt>
      <trkpt lat="44.82497" lon="5.48234">
        <ele>1595.45</ele>
        <time>2015-07-16T10:40:17Z</time>
      </trkpt>
      <trkpt lat="44.82497" lon="5.48234">
        <ele>1595.45</ele>
        <time>2015-07-16T10:40:55Z</time>
      </trkpt>
      <trkpt lat="44.82497" lon="5.48235">
        <ele>1595.93</ele>
        <time>2015-07-16T10:41:38Z</time>
      </trkpt>
      <trkpt lat="44.82498" lon="5.48233">
        <ele>1595.93</ele>
        <time>2015-07-16T10:42:14Z</time>
      </trkpt>
      <trkpt lat="44.82498" lon="5.48236">
        <ele>1595.93</ele>
        <time>2015-07-16T10:42:43Z</time>
      </trkpt>
      <trkpt lat="44.82497" lon="5.48233">
        <ele>1595.93</ele>
        <time>2015-07-16T10:43:24Z</time>
      </trkpt>
      <trkpt lat="44.82498" lon="5.48234">
        <ele>1596.41</ele>
        <time>2015-07-16T10:43:55Z</time>
      </trkpt>
      <trkpt lat="44.82497" lon="5.48233">
        <ele>1596.41</ele>
        <time>2015-07-16T10:44:33Z</time>
      </trkpt>
      <trkpt lat="44.82498" lon="5.48233">
        <ele>1596.41</ele>
        <time>2015-07-16T10:45:16Z</time>
      </trkpt>
      <trkpt lat="44.82499" lon="5.48233">
        <ele>1595.93</ele>
        <time>2015-07-16T10:45:44Z</time>
      </trkpt>
      <trkpt lat="44.82498" lon="5.48233">
        <ele>1595.93</ele>
        <time>2015-07-16T10:46:15Z</time>
      </trkpt>
      <trkpt lat="44.82497" lon="5.48235">
        <ele>1596.41</ele>
        <time>2015-07-16T10:46:53Z</time>
      </trkpt>
      <trkpt lat="44.82498" lon="5.48235">
        <ele>1596.41</ele>
        <time>2015-07-16T10:47:30Z</time>
      </trkpt>
      <trkpt lat="44.82498" lon="5.48233">
        <ele>1596.41</ele>
        <time>2015-07-16T10:48:06Z</time>
      </trkpt>
      <trkpt lat="44.82497" lon="5.48234">
        <ele>1596.41</ele>
        <time>2015-07-16T10:48:35Z</time>
      </trkpt>
      <trkpt lat="44.82498" lon="5.48234">
        <ele>1596.41</ele>
        <time>2015-07-16T10:49:10Z</time>
      </trkpt>
      <trkpt lat="44.82498" lon="5.48234">
        <ele>1596.89</ele>
        <time>2015-07-16T10:49:46Z</time>
      </trkpt>
      <trkpt lat="44.82497" lon="5.48233">
        <ele>1597.37</ele>
        <time>2015-07-16T10:50:20Z</time>
      </trkpt>
      <trkpt lat="44.82498" lon="5.48232">
        <ele>1596.89</ele>
        <time>2015-07-16T10:51:00Z</time>
      </trkpt>
      <trkpt lat="44.82499" lon="5.48233">
        <ele>1597.37</ele>
        <time>2015-07-16T10:51:38Z</time>
      </trkpt>
      <trkpt lat="44.82499" lon="5.48234">
        <ele>1597.37</ele>
        <time>2015-07-16T10:52:12Z</time>
      </trkpt>
      <trkpt lat="44.825" lon="5.48234">
        <ele>1597.85</ele>
        <time>2015-07-16T10:52:49Z</time>
      </trkpt>
      <trkpt lat="44.825" lon="5.48234">
        <ele>1597.37</ele>
        <time>2015-07-16T10:53:26Z</time>
      </trkpt>
      <trkpt lat="44.825" lon="5.48234">
        <ele>1597.85</ele>
        <time>2015-07-16T10:53:50Z</time>
      </trkpt>
      <trkpt lat="44.82499" lon="5.48234">
        <ele>1597.85</ele>
        <time>2015-07-16T10:54:32Z</time>
      </trkpt>
      <trkpt lat="44.82499" lon="5.48233">
        <ele>1597.85</ele>
        <time>2015-07-16T10:55:07Z</time>
      </trkpt>
      <trkpt lat="44.82499" lon="5.48233">
        <ele>1597.85</ele>
        <time>2015-07-16T10:55:47Z</time>
      </trkpt>
      <trkpt lat="44.82499" lon="5.48233">
        <ele>1597.85</ele>
        <time>2015-07-16T10:56:26Z</time>
      </trkpt>
      <trkpt lat="44.82497" lon="5.48236">
        <ele>1597.37</ele>
        <time>2015-07-16T10:57:02Z</time>
      </trkpt>
      <trkpt lat="44.82495" lon="5.48235">
        <ele>1598.33</ele>
        <time>2015-07-16T10:57:24Z</time>
      </trkpt>
      <trkpt lat="44.82491" lon="5.48241">
        <ele>1596.89</ele>
        <time>2015-07-16T10:57:47Z</time>
      </trkpt>
      <trkpt lat="44.82491" lon="5.4824">
        <ele>1597.37</ele>
        <time>2015-07-16T10:58:26Z</time>
      </trkpt>
      <trkpt lat="44.82494" lon="5.48236">
        <ele>1597.37</ele>
        <time>2015-07-16T10:59:03Z</time>
      </trkpt>
      <trkpt lat="44.82493" lon="5.48236">
        <ele>1597.37</ele>
        <time>2015-07-16T10:59:48Z</time>
      </trkpt>
      <trkpt lat="44.82493" lon="5.48237">
        <ele>1597.37</ele>
        <time>2015-07-16T11:00:25Z</time>
      </trkpt>
      <trkpt lat="44.82492" lon="5.48238">
        <ele>1597.37</ele>
        <time>2015-07-16T11:01:10Z</time>
      </trkpt>
      <trkpt lat="44.82496" lon="5.48234">
        <ele>1599.29</ele>
        <time>2015-07-16T11:01:31Z</time>
      </trkpt>
      <trkpt lat="44.82497" lon="5.48233">
        <ele>1598.81</ele>
        <time>2015-07-16T11:01:48Z</time>
      </trkpt>
      <trkpt lat="44.82496" lon="5.48233">
        <ele>1598.81</ele>
        <time>2015-07-16T11:02:13Z</time>
      </trkpt>
      <trkpt lat="44.82496" lon="5.48231">
        <ele>1598.81</ele>
        <time>2015-07-16T11:02:39Z</time>
      </trkpt>
      <trkpt lat="44.82496" lon="5.48232">
        <ele>1598.33</ele>
        <time>2015-07-16T11:03:02Z</time>
      </trkpt>
      <trkpt lat="44.82497" lon="5.48232">
        <ele>1598.33</ele>
        <time>2015-07-16T11:03:20Z</time>
      </trkpt>
      <trkpt lat="44.82502" lon="5.48234">
        <ele>1597.85</ele>
        <time>2015-07-16T11:03:33Z</time>
      </trkpt>
      <trkpt lat="44.82511" lon="5.48233">
        <ele>1598.33</ele>
        <time>2015-07-16T11:03:47Z</time>
      </trkpt>
      <trkpt lat="44.82521" lon="5.48234">
        <ele>1599.77</ele>
        <time>2015-07-16T11:04:02Z</time>
      </trkpt>
      <trkpt lat="44.8253" lon="5.48229">
        <ele>1600.73</ele>
        <time>2015-07-16T11:04:17Z</time>
      </trkpt>
      <trkpt lat="44.82542" lon="5.48222">
        <ele>1601.21</ele>
        <time>2015-07-16T11:04:32Z</time>
      </trkpt>
      <trkpt lat="44.82552" lon="5.4822">
        <ele>1601.69</ele>
        <time>2015-07-16T11:04:47Z</time>
      </trkpt>
      <trkpt lat="44.82563" lon="5.4822">
        <ele>1602.17</ele>
        <time>2015-07-16T11:05:03Z</time>
      </trkpt>
      <trkpt lat="44.82573" lon="5.48222">
        <ele>1603.14</ele>
        <time>2015-07-16T11:05:16Z</time>
      </trkpt>
      <trkpt lat="44.82587" lon="5.48221">
        <ele>1603.14</ele>
        <time>2015-07-16T11:05:32Z</time>
      </trkpt>
      <trkpt lat="44.82595" lon="5.48226">
        <ele>1603.62</ele>
        <time>2015-07-16T11:05:46Z</time>
      </trkpt>
      <trkpt lat="44.82594" lon="5.48228">
        <ele>1603.62</ele>
        <time>2015-07-16T11:06:06Z</time>
      </trkpt>
      <trkpt lat="44.82603" lon="5.48236">
        <ele>1604.1</ele>
        <time>2015-07-16T11:06:20Z</time>
      </trkpt>
      <trkpt lat="44.82611" lon="5.48235">
        <ele>1605.06</ele>
        <time>2015-07-16T11:06:32Z</time>
      </trkpt>
      <trkpt lat="44.82623" lon="5.48237">
        <ele>1605.54</ele>
        <time>2015-07-16T11:06:45Z</time>
      </trkpt>
      <trkpt lat="44.82635" lon="5.48241">
        <ele>1605.54</ele>
        <time>2015-07-16T11:07:00Z</time>
      </trkpt>
      <trkpt lat="44.82646" lon="5.48249">
        <ele>1605.54</ele>
        <time>2015-07-16T11:07:15Z</time>
      </trkpt>
      <trkpt lat="44.82654" lon="5.48256">
        <ele>1606.02</ele>
        <time>2015-07-16T11:07:28Z</time>
      </trkpt>
      <trkpt lat="44.82666" lon="5.48265">
        <ele>1606.98</ele>
        <time>2015-07-16T11:07:45Z</time>
      </trkpt>
      <trkpt lat="44.82677" lon="5.48272">
        <ele>1607.46</ele>
        <time>2015-07-16T11:08:03Z</time>
      </trkpt>
      <trkpt lat="44.82685" lon="5.48277">
        <ele>1606.98</ele>
        <time>2015-07-16T11:08:18Z</time>
      </trkpt>
      <trkpt lat="44.8269" lon="5.48275">
        <ele>1607.94</ele>
        <time>2015-07-16T11:08:32Z</time>
      </trkpt>
      <trkpt lat="44.82692" lon="5.48277">
        <ele>1607.94</ele>
        <time>2015-07-16T11:08:50Z</time>
      </trkpt>
      <trkpt lat="44.82691" lon="5.48275">
        <ele>1608.42</ele>
        <time>2015-07-16T11:09:12Z</time>
      </trkpt>
      <trkpt lat="44.82699" lon="5.48261">
        <ele>1608.42</ele>
        <time>2015-07-16T11:09:26Z</time>
      </trkpt>
      <trkpt lat="44.82704" lon="5.48258">
        <ele>1609.38</ele>
        <time>2015-07-16T11:09:39Z</time>
      </trkpt>
      <trkpt lat="44.82715" lon="5.48249">
        <ele>1611.31</ele>
        <time>2015-07-16T11:09:55Z</time>
      </trkpt>
      <trkpt lat="44.82725" lon="5.4824">
        <ele>1610.83</ele>
        <time>2015-07-16T11:10:10Z</time>
      </trkpt>
      <trkpt lat="44.8273" lon="5.48234">
        <ele>1611.31</ele>
        <time>2015-07-16T11:10:19Z</time>
      </trkpt>
      <trkpt lat="44.82731" lon="5.48217">
        <ele>1611.31</ele>
        <time>2015-07-16T11:10:35Z</time>
      </trkpt>
      <trkpt lat="44.82734" lon="5.48199">
        <ele>1609.38</ele>
        <time>2015-07-16T11:10:50Z</time>
      </trkpt>
      <trkpt lat="44.82744" lon="5.48194">
        <ele>1608.9</ele>
        <time>2015-07-16T11:11:03Z</time>
      </trkpt>
      <trkpt lat="44.8275" lon="5.48183">
        <ele>1609.38</ele>
        <time>2015-07-16T11:11:17Z</time>
      </trkpt>
      <trkpt lat="44.82752" lon="5.48165">
        <ele>1610.35</ele>
        <time>2015-07-16T11:11:33Z</time>
      </trkpt>
      <trkpt lat="44.82756" lon="5.48152">
        <ele>1612.27</ele>
        <time>2015-07-16T11:11:48Z</time>
      </trkpt>
      <trkpt lat="44.82761" lon="5.4814">
        <ele>1613.23</ele>
        <time>2015-07-16T11:12:02Z</time>
      </trkpt>
      <trkpt lat="44.82771" lon="5.48134">
        <ele>1614.67</ele>
        <time>2015-07-16T11:12:18Z</time>
      </trkpt>
      <trkpt lat="44.82775" lon="5.48122">
        <ele>1616.11</ele>
        <time>2015-07-16T11:12:33Z</time>
      </trkpt>
      <trkpt lat="44.82779" lon="5.48114">
        <ele>1618.52</ele>
        <time>2015-07-16T11:12:47Z</time>
      </trkpt>
      <trkpt lat="44.82787" lon="5.48111">
        <ele>1619.96</ele>
        <time>2015-07-16T11:13:02Z</time>
      </trkpt>
      <trkpt lat="44.82795" lon="5.48113">
        <ele>1621.88</ele>
        <time>2015-07-16T11:13:14Z</time>
      </trkpt>
      <trkpt lat="44.82799" lon="5.48115">
        <ele>1622.36</ele>
        <time>2015-07-16T11:13:28Z</time>
      </trkpt>
      <trkpt lat="44.8281" lon="5.48107">
        <ele>1622.36</ele>
        <time>2015-07-16T11:13:43Z</time>
      </trkpt>
      <trkpt lat="44.82823" lon="5.48096">
        <ele>1622.36</ele>
        <time>2015-07-16T11:13:59Z</time>
      </trkpt>
      <trkpt lat="44.82838" lon="5.48086">
        <ele>1622.36</ele>
        <time>2015-07-16T11:14:16Z</time>
      </trkpt>
      <trkpt lat="44.82848" lon="5.48079">
        <ele>1622.36</ele>
        <time>2015-07-16T11:14:32Z</time>
      </trkpt>
      <trkpt lat="44.8286" lon="5.48073">
        <ele>1622.36</ele>
        <time>2015-07-16T11:14:47Z</time>
      </trkpt>
      <trkpt lat="44.82875" lon="5.48065">
        <ele>1620.92</ele>
        <time>2015-07-16T11:15:04Z</time>
      </trkpt>
      <trkpt lat="44.82885" lon="5.48057">
        <ele>1620.44</ele>
        <time>2015-07-16T11:15:17Z</time>
      </trkpt>
      <trkpt lat="44.82901" lon="5.48042">
        <ele>1620.92</ele>
        <time>2015-07-16T11:15:38Z</time>
      </trkpt>
      <trkpt lat="44.82907" lon="5.4803">
        <ele>1621.88</ele>
        <time>2015-07-16T11:15:51Z</time>
      </trkpt>
      <trkpt lat="44.82915" lon="5.48018">
        <ele>1621.4</ele>
        <time>2015-07-16T11:16:06Z</time>
      </trkpt>
      <trkpt lat="44.82921" lon="5.48">
        <ele>1621.4</ele>
        <time>2015-07-16T11:16:22Z</time>
      </trkpt>
      <trkpt lat="44.82928" lon="5.47988">
        <ele>1622.36</ele>
        <time>2015-07-16T11:16:38Z</time>
      </trkpt>
      <trkpt lat="44.82932" lon="5.47975">
        <ele>1623.32</ele>
        <time>2015-07-16T11:16:51Z</time>
      </trkpt>
      <trkpt lat="44.8293" lon="5.47956">
        <ele>1623.8</ele>
        <time>2015-07-16T11:17:06Z</time>
      </trkpt>
      <trkpt lat="44.82923" lon="5.47944">
        <ele>1625.25</ele>
        <time>2015-07-16T11:17:23Z</time>
      </trkpt>
      <trkpt lat="44.82923" lon="5.47942">
        <ele>1624.77</ele>
        <time>2015-07-16T11:17:24Z</time>
      </trkpt>
      <trkpt lat="44.82921" lon="5.47923">
        <ele>1625.73</ele>
        <time>2015-07-16T11:17:41Z</time>
      </trkpt>
      <trkpt lat="44.82919" lon="5.47911">
        <ele>1625.73</ele>
        <time>2015-07-16T11:17:53Z</time>
      </trkpt>
      <trkpt lat="44.82919" lon="5.47912">
        <ele>1626.21</ele>
        <time>2015-07-16T11:18:08Z</time>
      </trkpt>
      <trkpt lat="44.82919" lon="5.47911">
        <ele>1626.21</ele>
        <time>2015-07-16T11:18:28Z</time>
      </trkpt>
      <trkpt lat="44.8292" lon="5.47907">
        <ele>1626.21</ele>
        <time>2015-07-16T11:18:50Z</time>
      </trkpt>
      <trkpt lat="44.82917" lon="5.47909">
        <ele>1626.21</ele>
        <time>2015-07-16T11:19:07Z</time>
      </trkpt>
      <trkpt lat="44.82918" lon="5.47909">
        <ele>1626.21</ele>
        <time>2015-07-16T11:19:32Z</time>
      </trkpt>
      <trkpt lat="44.82919" lon="5.47909">
        <ele>1626.21</ele>
        <time>2015-07-16T11:19:54Z</time>
      </trkpt>
      <trkpt lat="44.82917" lon="5.47896">
        <ele>1626.69</ele>
        <time>2015-07-16T11:20:08Z</time>
      </trkpt>
      <trkpt lat="44.82916" lon="5.47882">
        <ele>1627.17</ele>
        <time>2015-07-16T11:20:25Z</time>
      </trkpt>
      <trkpt lat="44.8292" lon="5.47866">
        <ele>1627.17</ele>
        <time>2015-07-16T11:20:41Z</time>
      </trkpt>
      <trkpt lat="44.82924" lon="5.47849">
        <ele>1626.69</ele>
        <time>2015-07-16T11:20:57Z</time>
      </trkpt>
      <trkpt lat="44.82925" lon="5.47833">
        <ele>1625.25</ele>
        <time>2015-07-16T11:21:11Z</time>
      </trkpt>
      <trkpt lat="44.82922" lon="5.47814">
        <ele>1624.77</ele>
        <time>2015-07-16T11:21:27Z</time>
      </trkpt>
      <trkpt lat="44.82922" lon="5.47795">
        <ele>1624.77</ele>
        <time>2015-07-16T11:21:43Z</time>
      </trkpt>
      <trkpt lat="44.82922" lon="5.47782">
        <ele>1625.73</ele>
        <time>2015-07-16T11:21:55Z</time>
      </trkpt>
      <trkpt lat="44.82922" lon="5.47778">
        <ele>1625.73</ele>
        <time>2015-07-16T11:21:58Z</time>
      </trkpt>
      <trkpt lat="44.82924" lon="5.47762">
        <ele>1627.17</ele>
        <time>2015-07-16T11:22:14Z</time>
      </trkpt>
      <trkpt lat="44.82921" lon="5.47755">
        <ele>1627.65</ele>
        <time>2015-07-16T11:22:21Z</time>
      </trkpt>
      <trkpt lat="44.82922" lon="5.47737">
        <ele>1627.17</ele>
        <time>2015-07-16T11:22:37Z</time>
      </trkpt>
      <trkpt lat="44.82925" lon="5.4773">
        <ele>1627.65</ele>
        <time>2015-07-16T11:22:44Z</time>
      </trkpt>
      <trkpt lat="44.8293" lon="5.47711">
        <ele>1628.13</ele>
        <time>2015-07-16T11:23:01Z</time>
      </trkpt>
      <trkpt lat="44.82935" lon="5.47698">
        <ele>1629.09</ele>
        <time>2015-07-16T11:23:14Z</time>
      </trkpt>
      <trkpt lat="44.82938" lon="5.47687">
        <ele>1629.09</ele>
        <time>2015-07-16T11:23:24Z</time>
      </trkpt>
      <trkpt lat="44.82943" lon="5.47668">
        <ele>1629.57</ele>
        <time>2015-07-16T11:23:39Z</time>
      </trkpt>
      <trkpt lat="44.82945" lon="5.47656">
        <ele>1630.05</ele>
        <time>2015-07-16T11:23:48Z</time>
      </trkpt>
      <trkpt lat="44.82951" lon="5.47637">
        <ele>1631.01</ele>
        <time>2015-07-16T11:24:05Z</time>
      </trkpt>
      <trkpt lat="44.8295" lon="5.47623">
        <ele>1632.46</ele>
        <time>2015-07-16T11:24:17Z</time>
      </trkpt>
      <trkpt lat="44.82955" lon="5.47603">
        <ele>1632.94</ele>
        <time>2015-07-16T11:24:36Z</time>
      </trkpt>
      <trkpt lat="44.82956" lon="5.47588">
        <ele>1634.38</ele>
        <time>2015-07-16T11:24:50Z</time>
      </trkpt>
      <trkpt lat="44.82961" lon="5.47575">
        <ele>1637.26</ele>
        <time>2015-07-16T11:25:07Z</time>
      </trkpt>
      <trkpt lat="44.82965" lon="5.47561">
        <ele>1639.67</ele>
        <time>2015-07-16T11:25:23Z</time>
      </trkpt>
      <trkpt lat="44.82967" lon="5.47548">
        <ele>1641.59</ele>
        <time>2015-07-16T11:25:38Z</time>
      </trkpt>
      <trkpt lat="44.82969" lon="5.47535">
        <ele>1643.51</ele>
        <time>2015-07-16T11:25:55Z</time>
      </trkpt>
      <trkpt lat="44.82972" lon="5.47526">
        <ele>1645.91</ele>
        <time>2015-07-16T11:26:09Z</time>
      </trkpt>
      <trkpt lat="44.82975" lon="5.47514">
        <ele>1646.88</ele>
        <time>2015-07-16T11:26:24Z</time>
      </trkpt>
      <trkpt lat="44.82976" lon="5.47497">
        <ele>1647.84</ele>
        <time>2015-07-16T11:26:40Z</time>
      </trkpt>
      <trkpt lat="44.82974" lon="5.47481">
        <ele>1649.28</ele>
        <time>2015-07-16T11:26:56Z</time>
      </trkpt>
      <trkpt lat="44.82973" lon="5.47465">
        <ele>1650.24</ele>
        <time>2015-07-16T11:27:12Z</time>
      </trkpt>
      <trkpt lat="44.82976" lon="5.47451">
        <ele>1652.16</ele>
        <time>2015-07-16T11:27:27Z</time>
      </trkpt>
      <trkpt lat="44.82974" lon="5.47437">
        <ele>1653.12</ele>
        <time>2015-07-16T11:27:42Z</time>
      </trkpt>
      <trkpt lat="44.82973" lon="5.47424">
        <ele>1654.57</ele>
        <time>2015-07-16T11:27:57Z</time>
      </trkpt>
      <trkpt lat="44.82969" lon="5.4741">
        <ele>1656.01</ele>
        <time>2015-07-16T11:28:12Z</time>
      </trkpt>
      <trkpt lat="44.82969" lon="5.47415">
        <ele>1656.49</ele>
        <time>2015-07-16T11:28:25Z</time>
      </trkpt>
      <trkpt lat="44.82967" lon="5.47417">
        <ele>1656.49</ele>
        <time>2015-07-16T11:28:45Z</time>
      </trkpt>
      <trkpt lat="44.82969" lon="5.47409">
        <ele>1656.97</ele>
        <time>2015-07-16T11:29:10Z</time>
      </trkpt>
      <trkpt lat="44.82971" lon="5.47392">
        <ele>1657.93</ele>
        <time>2015-07-16T11:29:25Z</time>
      </trkpt>
      <trkpt lat="44.82968" lon="5.47372">
        <ele>1656.97</ele>
        <time>2015-07-16T11:29:43Z</time>
      </trkpt>
      <trkpt lat="44.82968" lon="5.47371">
        <ele>1661.3</ele>
        <time>2015-07-16T11:29:44Z</time>
      </trkpt>
      <trkpt lat="44.82967" lon="5.47369">
        <ele>1658.41</ele>
        <time>2015-07-16T11:29:45Z</time>
      </trkpt>
      <trkpt lat="44.82967" lon="5.47368">
        <ele>1658.41</ele>
        <time>2015-07-16T11:29:46Z</time>
      </trkpt>
      <trkpt lat="44.82961" lon="5.47348">
        <ele>1659.37</ele>
        <time>2015-07-16T11:30:02Z</time>
      </trkpt>
      <trkpt lat="44.8296" lon="5.47327">
        <ele>1660.33</ele>
        <time>2015-07-16T11:30:19Z</time>
      </trkpt>
      <trkpt lat="44.82961" lon="5.47305">
        <ele>1661.3</ele>
        <time>2015-07-16T11:30:35Z</time>
      </trkpt>
      <trkpt lat="44.82965" lon="5.47286">
        <ele>1662.74</ele>
        <time>2015-07-16T11:30:49Z</time>
      </trkpt>
      <trkpt lat="44.82974" lon="5.47267">
        <ele>1664.18</ele>
        <time>2015-07-16T11:31:06Z</time>
      </trkpt>
      <trkpt lat="44.82983" lon="5.47248">
        <ele>1664.66</ele>
        <time>2015-07-16T11:31:23Z</time>
      </trkpt>
      <trkpt lat="44.82992" lon="5.4723">
        <ele>1666.1</ele>
        <time>2015-07-16T11:31:40Z</time>
      </trkpt>
      <trkpt lat="44.82998" lon="5.47213">
        <ele>1666.1</ele>
        <time>2015-07-16T11:31:55Z</time>
      </trkpt>
      <trkpt lat="44.83005" lon="5.47193">
        <ele>1668.02</ele>
        <time>2015-07-16T11:32:13Z</time>
      </trkpt>
      <trkpt lat="44.83011" lon="5.47174">
        <ele>1668.99</ele>
        <time>2015-07-16T11:32:29Z</time>
      </trkpt>
      <trkpt lat="44.83017" lon="5.47151">
        <ele>1668.51</ele>
        <time>2015-07-16T11:32:46Z</time>
      </trkpt>
      <trkpt lat="44.83017" lon="5.47126">
        <ele>1667.06</ele>
        <time>2015-07-16T11:33:05Z</time>
      </trkpt>
      <trkpt lat="44.83014" lon="5.47107">
        <ele>1668.02</ele>
        <time>2015-07-16T11:33:20Z</time>
      </trkpt>
      <trkpt lat="44.83012" lon="5.47092">
        <ele>1669.47</ele>
        <time>2015-07-16T11:33:32Z</time>
      </trkpt>
      <trkpt lat="44.83013" lon="5.47072">
        <ele>1670.91</ele>
        <time>2015-07-16T11:33:48Z</time>
      </trkpt>
      <trkpt lat="44.83012" lon="5.47052">
        <ele>1671.39</ele>
        <time>2015-07-16T11:34:04Z</time>
      </trkpt>
      <trkpt lat="44.83015" lon="5.47035">
        <ele>1670.91</ele>
        <time>2015-07-16T11:34:17Z</time>
      </trkpt>
      <trkpt lat="44.83022" lon="5.47011">
        <ele>1671.39</ele>
        <time>2015-07-16T11:34:36Z</time>
      </trkpt>
      <trkpt lat="44.83028" lon="5.46998">
        <ele>1669.95</ele>
        <time>2015-07-16T11:34:47Z</time>
      </trkpt>
      <trkpt lat="44.83038" lon="5.46982">
        <ele>1668.99</ele>
        <time>2015-07-16T11:35:03Z</time>
      </trkpt>
      <trkpt lat="44.83039" lon="5.46964">
        <ele>1668.51</ele>
        <time>2015-07-16T11:35:15Z</time>
      </trkpt>
      <trkpt lat="44.83048" lon="5.46936">
        <ele>1667.54</ele>
        <time>2015-07-16T11:35:37Z</time>
      </trkpt>
      <trkpt lat="44.83056" lon="5.46913">
        <ele>1667.54</ele>
        <time>2015-07-16T11:35:54Z</time>
      </trkpt>
      <trkpt lat="44.83057" lon="5.4691">
        <ele>1667.54</ele>
        <time>2015-07-16T11:35:56Z</time>
      </trkpt>
      <trkpt lat="44.83063" lon="5.46886">
        <ele>1667.06</ele>
        <time>2015-07-16T11:36:14Z</time>
      </trkpt>
      <trkpt lat="44.83068" lon="5.46873">
        <ele>1666.58</ele>
        <time>2015-07-16T11:36:26Z</time>
      </trkpt>
      <trkpt lat="44.83079" lon="5.46848">
        <ele>1664.66</ele>
        <time>2015-07-16T11:36:48Z</time>
      </trkpt>
      <trkpt lat="44.83084" lon="5.46824">
        <ele>1661.78</ele>
        <time>2015-07-16T11:37:07Z</time>
      </trkpt>
      <trkpt lat="44.83091" lon="5.46796">
        <ele>1660.33</ele>
        <time>2015-07-16T11:37:28Z</time>
      </trkpt>
      <trkpt lat="44.83097" lon="5.46773">
        <ele>1657.93</ele>
        <time>2015-07-16T11:37:48Z</time>
      </trkpt>
      <trkpt lat="44.83101" lon="5.4675">
        <ele>1655.53</ele>
        <time>2015-07-16T11:38:06Z</time>
      </trkpt>
      <trkpt lat="44.83104" lon="5.46737">
        <ele>1653.6</ele>
        <time>2015-07-16T11:38:19Z</time>
      </trkpt>
      <trkpt lat="44.8311" lon="5.4672">
        <ele>1651.68</ele>
        <time>2015-07-16T11:38:35Z</time>
      </trkpt>
      <trkpt lat="44.83115" lon="5.46704">
        <ele>1649.76</ele>
        <time>2015-07-16T11:38:51Z</time>
      </trkpt>
      <trkpt lat="44.83116" lon="5.46695">
        <ele>1648.8</ele>
        <time>2015-07-16T11:38:59Z</time>
      </trkpt>
      <trkpt lat="44.83121" lon="5.46676">
        <ele>1647.36</ele>
        <time>2015-07-16T11:39:15Z</time>
      </trkpt>
      <trkpt lat="44.83118" lon="5.46661">
        <ele>1646.88</ele>
        <time>2015-07-16T11:39:27Z</time>
      </trkpt>
      <trkpt lat="44.83115" lon="5.46636">
        <ele>1646.4</ele>
        <time>2015-07-16T11:39:44Z</time>
      </trkpt>
      <trkpt lat="44.83119" lon="5.46608">
        <ele>1644.95</ele>
        <time>2015-07-16T11:40:05Z</time>
      </trkpt>
      <trkpt lat="44.83122" lon="5.46589">
        <ele>1643.99</ele>
        <time>2015-07-16T11:40:20Z</time>
      </trkpt>
      <trkpt lat="44.83128" lon="5.46565">
        <ele>1641.59</ele>
        <time>2015-07-16T11:40:39Z</time>
      </trkpt>
      <trkpt lat="44.83131" lon="5.46546">
        <ele>1639.67</ele>
        <time>2015-07-16T11:40:55Z</time>
      </trkpt>
      <trkpt lat="44.83135" lon="5.46524">
        <ele>1637.74</ele>
        <time>2015-07-16T11:41:13Z</time>
      </trkpt>
      <trkpt lat="44.83136" lon="5.46504">
        <ele>1636.3</ele>
        <time>2015-07-16T11:41:29Z</time>
      </trkpt>
      <trkpt lat="44.83134" lon="5.46484">
        <ele>1633.42</ele>
        <time>2015-07-16T11:41:44Z</time>
      </trkpt>
      <trkpt lat="44.83134" lon="5.46468">
        <ele>1630.53</ele>
        <time>2015-07-16T11:41:58Z</time>
      </trkpt>
      <trkpt lat="44.83137" lon="5.46444">
        <ele>1627.17</ele>
        <time>2015-07-16T11:42:15Z</time>
      </trkpt>
      <trkpt lat="44.83146" lon="5.46416">
        <ele>1624.28</ele>
        <time>2015-07-16T11:42:36Z</time>
      </trkpt>
      <trkpt lat="44.83148" lon="5.46408">
        <ele>1624.28</ele>
        <time>2015-07-16T11:42:42Z</time>
      </trkpt>
      <trkpt lat="44.83149" lon="5.46408">
        <ele>1624.28</ele>
        <time>2015-07-16T11:42:55Z</time>
      </trkpt>
      <trkpt lat="44.83149" lon="5.46404">
        <ele>1624.28</ele>
        <time>2015-07-16T11:43:15Z</time>
      </trkpt>
      <trkpt lat="44.83155" lon="5.46395">
        <ele>1623.32</ele>
        <time>2015-07-16T11:43:39Z</time>
      </trkpt>
      <trkpt lat="44.83155" lon="5.46392">
        <ele>1621.4</ele>
        <time>2015-07-16T11:43:42Z</time>
      </trkpt>
      <trkpt lat="44.8316" lon="5.46377">
        <ele>1622.36</ele>
        <time>2015-07-16T11:43:54Z</time>
      </trkpt>
      <trkpt lat="44.83168" lon="5.46355">
        <ele>1620.92</ele>
        <time>2015-07-16T11:44:11Z</time>
      </trkpt>
      <trkpt lat="44.83173" lon="5.46338">
        <ele>1618.04</ele>
        <time>2015-07-16T11:44:26Z</time>
      </trkpt>
      <trkpt lat="44.83177" lon="5.46322">
        <ele>1618.04</ele>
        <time>2015-07-16T11:44:37Z</time>
      </trkpt>
      <trkpt lat="44.83178" lon="5.46316">
        <ele>1616.59</ele>
        <time>2015-07-16T11:44:42Z</time>
      </trkpt>
      <trkpt lat="44.83183" lon="5.4629">
        <ele>1615.63</ele>
        <time>2015-07-16T11:45:00Z</time>
      </trkpt>
      <trkpt lat="44.83189" lon="5.46278">
        <ele>1614.67</ele>
        <time>2015-07-16T11:45:15Z</time>
      </trkpt>
      <trkpt lat="44.8319" lon="5.46274">
        <ele>1613.71</ele>
        <time>2015-07-16T11:45:18Z</time>
      </trkpt>
      <trkpt lat="44.83194" lon="5.46254">
        <ele>1611.31</ele>
        <time>2015-07-16T11:45:34Z</time>
      </trkpt>
      <trkpt lat="44.83195" lon="5.46253">
        <ele>1611.31</ele>
        <time>2015-07-16T11:45:36Z</time>
      </trkpt>
      <trkpt lat="44.83204" lon="5.46234">
        <ele>1609.38</ele>
        <time>2015-07-16T11:45:53Z</time>
      </trkpt>
      <trkpt lat="44.83209" lon="5.46218">
        <ele>1607.46</ele>
        <time>2015-07-16T11:46:07Z</time>
      </trkpt>
      <trkpt lat="44.83216" lon="5.462">
        <ele>1605.06</ele>
        <time>2015-07-16T11:46:24Z</time>
      </trkpt>
      <trkpt lat="44.83219" lon="5.46184">
        <ele>1604.1</ele>
        <time>2015-07-16T11:46:36Z</time>
      </trkpt>
      <trkpt lat="44.83226" lon="5.46161">
        <ele>1603.14</ele>
        <time>2015-07-16T11:46:54Z</time>
      </trkpt>
      <trkpt lat="44.83235" lon="5.46126">
        <ele>1601.21</ele>
        <time>2015-07-16T11:47:18Z</time>
      </trkpt>
      <trkpt lat="44.83238" lon="5.46104">
        <ele>1600.25</ele>
        <time>2015-07-16T11:47:37Z</time>
      </trkpt>
      <trkpt lat="44.83241" lon="5.46085">
        <ele>1599.29</ele>
        <time>2015-07-16T11:47:53Z</time>
      </trkpt>
      <trkpt lat="44.83247" lon="5.46057">
        <ele>1597.85</ele>
        <time>2015-07-16T11:48:12Z</time>
      </trkpt>
      <trkpt lat="44.83254" lon="5.46031">
        <ele>1596.41</ele>
        <time>2015-07-16T11:48:31Z</time>
      </trkpt>
      <trkpt lat="44.83258" lon="5.46013">
        <ele>1596.41</ele>
        <time>2015-07-16T11:48:48Z</time>
      </trkpt>
      <trkpt lat="44.83262" lon="5.46002">
        <ele>1594.96</ele>
        <time>2015-07-16T11:48:59Z</time>
      </trkpt>
      <trkpt lat="44.83263" lon="5.45978">
        <ele>1593.04</ele>
        <time>2015-07-16T11:49:17Z</time>
      </trkpt>
      <trkpt lat="44.83265" lon="5.45955">
        <ele>1593.52</ele>
        <time>2015-07-16T11:49:35Z</time>
      </trkpt>
      <trkpt lat="44.83264" lon="5.45957">
        <ele>1593.52</ele>
        <time>2015-07-16T11:49:55Z</time>
      </trkpt>
      <trkpt lat="44.83264" lon="5.45956">
        <ele>1594</ele>
        <time>2015-07-16T11:50:18Z</time>
      </trkpt>
      <trkpt lat="44.83264" lon="5.45952">
        <ele>1592.56</ele>
        <time>2015-07-16T11:50:43Z</time>
      </trkpt>
      <trkpt lat="44.83265" lon="5.4594">
        <ele>1591.6</ele>
        <time>2015-07-16T11:51:00Z</time>
      </trkpt>
      <trkpt lat="44.83264" lon="5.45939">
        <ele>1591.6</ele>
        <time>2015-07-16T11:51:19Z</time>
      </trkpt>
      <trkpt lat="44.83264" lon="5.45927">
        <ele>1590.64</ele>
        <time>2015-07-16T11:51:33Z</time>
      </trkpt>
      <trkpt lat="44.83264" lon="5.45934">
        <ele>1590.64</ele>
        <time>2015-07-16T11:51:58Z</time>
      </trkpt>
      <trkpt lat="44.83262" lon="5.45931">
        <ele>1590.64</ele>
        <time>2015-07-16T11:52:21Z</time>
      </trkpt>
      <trkpt lat="44.83265" lon="5.45917">
        <ele>1589.68</ele>
        <time>2015-07-16T11:52:40Z</time>
      </trkpt>
      <trkpt lat="44.83266" lon="5.45905">
        <ele>1588.72</ele>
        <time>2015-07-16T11:52:50Z</time>
      </trkpt>
      <trkpt lat="44.8327" lon="5.45878">
        <ele>1587.75</ele>
        <time>2015-07-16T11:53:11Z</time>
      </trkpt>
      <trkpt lat="44.83276" lon="5.45849">
        <ele>1585.83</ele>
        <time>2015-07-16T11:53:33Z</time>
      </trkpt>
      <trkpt lat="44.83282" lon="5.45827">
        <ele>1584.39</ele>
        <time>2015-07-16T11:53:52Z</time>
      </trkpt>
      <trkpt lat="44.83281" lon="5.45812">
        <ele>1581.99</ele>
        <time>2015-07-16T11:54:02Z</time>
      </trkpt>
      <trkpt lat="44.83281" lon="5.45786">
        <ele>1580.06</ele>
        <time>2015-07-16T11:54:20Z</time>
      </trkpt>
      <trkpt lat="44.83275" lon="5.45756">
        <ele>1580.06</ele>
        <time>2015-07-16T11:54:40Z</time>
      </trkpt>
      <trkpt lat="44.83272" lon="5.4574">
        <ele>1578.62</ele>
        <time>2015-07-16T11:54:53Z</time>
      </trkpt>
      <trkpt lat="44.83268" lon="5.45716">
        <ele>1576.7</ele>
        <time>2015-07-16T11:55:10Z</time>
      </trkpt>
      <trkpt lat="44.83263" lon="5.4569">
        <ele>1576.22</ele>
        <time>2015-07-16T11:55:30Z</time>
      </trkpt>
      <trkpt lat="44.83254" lon="5.4567">
        <ele>1574.78</ele>
        <time>2015-07-16T11:55:47Z</time>
      </trkpt>
      <trkpt lat="44.83245" lon="5.45646">
        <ele>1575.26</ele>
        <time>2015-07-16T11:56:05Z</time>
      </trkpt>
      <trkpt lat="44.83238" lon="5.45625">
        <ele>1575.74</ele>
        <time>2015-07-16T11:56:22Z</time>
      </trkpt>
      <trkpt lat="44.83233" lon="5.45605">
        <ele>1575.26</ele>
        <time>2015-07-16T11:56:38Z</time>
      </trkpt>
      <trkpt lat="44.83227" lon="5.45588">
        <ele>1573.33</ele>
        <time>2015-07-16T11:56:58Z</time>
      </trkpt>
      <trkpt lat="44.83226" lon="5.45587">
        <ele>1573.33</ele>
        <time>2015-07-16T11:57:15Z</time>
      </trkpt>
      <trkpt lat="44.83221" lon="5.45576">
        <ele>1571.89</ele>
        <time>2015-07-16T11:57:24Z</time>
      </trkpt>
      <trkpt lat="44.83219" lon="5.4557">
        <ele>1569.97</ele>
        <time>2015-07-16T11:57:28Z</time>
      </trkpt>
      <trkpt lat="44.83208" lon="5.45551">
        <ele>1572.37</ele>
        <time>2015-07-16T11:57:45Z</time>
      </trkpt>
      <trkpt lat="44.83204" lon="5.45544">
        <ele>1571.89</ele>
        <time>2015-07-16T11:57:51Z</time>
      </trkpt>
      <trkpt lat="44.83193" lon="5.45536">
        <ele>1570.45</ele>
        <time>2015-07-16T11:58:02Z</time>
      </trkpt>
      <trkpt lat="44.83174" lon="5.45529">
        <ele>1569.97</ele>
        <time>2015-07-16T11:58:21Z</time>
      </trkpt>
      <trkpt lat="44.83159" lon="5.45518">
        <ele>1569.97</ele>
        <time>2015-07-16T11:58:37Z</time>
      </trkpt>
      <trkpt lat="44.83154" lon="5.45515">
        <ele>1570.45</ele>
        <time>2015-07-16T11:58:43Z</time>
      </trkpt>
      <trkpt lat="44.83137" lon="5.45507">
        <ele>1569.49</ele>
        <time>2015-07-16T11:59:00Z</time>
      </trkpt>
      <trkpt lat="44.83132" lon="5.45506">
        <ele>1568.53</ele>
        <time>2015-07-16T11:59:06Z</time>
      </trkpt>
      <trkpt lat="44.8313" lon="5.45504">
        <ele>1569.01</ele>
        <time>2015-07-16T11:59:08Z</time>
      </trkpt>
      <trkpt lat="44.83109" lon="5.45492">
        <ele>1567.57</ele>
        <time>2015-07-16T11:59:30Z</time>
      </trkpt>
      <trkpt lat="44.83094" lon="5.45485">
        <ele>1566.61</ele>
        <time>2015-07-16T11:59:48Z</time>
      </trkpt>
      <trkpt lat="44.83082" lon="5.45477">
        <ele>1565.64</ele>
        <time>2015-07-16T12:00:01Z</time>
      </trkpt>
      <trkpt lat="44.83065" lon="5.45468">
        <ele>1563.24</ele>
        <time>2015-07-16T12:00:19Z</time>
      </trkpt>
      <trkpt lat="44.83053" lon="5.45458">
        <ele>1561.8</ele>
        <time>2015-07-16T12:00:35Z</time>
      </trkpt>
      <trkpt lat="44.83049" lon="5.45452">
        <ele>1561.32</ele>
        <time>2015-07-16T12:00:41Z</time>
      </trkpt>
      <trkpt lat="44.83035" lon="5.45434">
        <ele>1560.36</ele>
        <time>2015-07-16T12:01:00Z</time>
      </trkpt>
      <trkpt lat="44.8303" lon="5.45427">
        <ele>1559.4</ele>
        <time>2015-07-16T12:01:07Z</time>
      </trkpt>
      <trkpt lat="44.83023" lon="5.45412">
        <ele>1557.47</ele>
        <time>2015-07-16T12:01:21Z</time>
      </trkpt>
      <trkpt lat="44.83015" lon="5.4539">
        <ele>1558.92</ele>
        <time>2015-07-16T12:01:39Z</time>
      </trkpt>
      <trkpt lat="44.83009" lon="5.45367">
        <ele>1557.95</ele>
        <time>2015-07-16T12:01:57Z</time>
      </trkpt>
      <trkpt lat="44.83005" lon="5.45359">
        <ele>1555.55</ele>
        <time>2015-07-16T12:02:05Z</time>
      </trkpt>
      <trkpt lat="44.82995" lon="5.45343">
        <ele>1555.07</ele>
        <time>2015-07-16T12:02:27Z</time>
      </trkpt>
      <trkpt lat="44.82994" lon="5.45344">
        <ele>1556.03</ele>
        <time>2015-07-16T12:02:44Z</time>
      </trkpt>
      <trkpt lat="44.82992" lon="5.45345">
        <ele>1555.55</ele>
        <time>2015-07-16T12:03:07Z</time>
      </trkpt>
      <trkpt lat="44.82994" lon="5.45343">
        <ele>1555.55</ele>
        <time>2015-07-16T12:03:30Z</time>
      </trkpt>
      <trkpt lat="44.82995" lon="5.45344">
        <ele>1555.55</ele>
        <time>2015-07-16T12:03:57Z</time>
      </trkpt>
      <trkpt lat="44.82994" lon="5.45337">
        <ele>1555.55</ele>
        <time>2015-07-16T12:04:23Z</time>
      </trkpt>
      <trkpt lat="44.82988" lon="5.45323">
        <ele>1556.99</ele>
        <time>2015-07-16T12:04:37Z</time>
      </trkpt>
      <trkpt lat="44.82984" lon="5.45313">
        <ele>1557.47</ele>
        <time>2015-07-16T12:04:48Z</time>
      </trkpt>
      <trkpt lat="44.82975" lon="5.45301">
        <ele>1558.43</ele>
        <time>2015-07-16T12:05:04Z</time>
      </trkpt>
      <trkpt lat="44.82973" lon="5.45296">
        <ele>1558.43</ele>
        <time>2015-07-16T12:05:08Z</time>
      </trkpt>
      <trkpt lat="44.82971" lon="5.4529">
        <ele>1557.95</ele>
        <time>2015-07-16T12:05:13Z</time>
      </trkpt>
      <trkpt lat="44.8296" lon="5.45274">
        <ele>1560.84</ele>
        <time>2015-07-16T12:05:29Z</time>
      </trkpt>
      <trkpt lat="44.82955" lon="5.45254">
        <ele>1563.72</ele>
        <time>2015-07-16T12:05:44Z</time>
      </trkpt>
      <trkpt lat="44.82955" lon="5.45244">
        <ele>1564.68</ele>
        <time>2015-07-16T12:05:50Z</time>
      </trkpt>
      <trkpt lat="44.82963" lon="5.45231">
        <ele>1567.09</ele>
        <time>2015-07-16T12:06:06Z</time>
      </trkpt>
      <trkpt lat="44.82969" lon="5.45219">
        <ele>1570.45</ele>
        <time>2015-07-16T12:06:21Z</time>
      </trkpt>
      <trkpt lat="44.82975" lon="5.45207">
        <ele>1574.3</ele>
        <time>2015-07-16T12:06:36Z</time>
      </trkpt>
      <trkpt lat="44.82982" lon="5.45195">
        <ele>1576.22</ele>
        <time>2015-07-16T12:06:52Z</time>
      </trkpt>
      <trkpt lat="44.82986" lon="5.45186">
        <ele>1578.14</ele>
        <time>2015-07-16T12:07:06Z</time>
      </trkpt>
      <trkpt lat="44.82991" lon="5.45176">
        <ele>1580.54</ele>
        <time>2015-07-16T12:07:22Z</time>
      </trkpt>
      <trkpt lat="44.82998" lon="5.45164">
        <ele>1583.43</ele>
        <time>2015-07-16T12:07:41Z</time>
      </trkpt>
      <trkpt lat="44.83005" lon="5.45155">
        <ele>1584.39</ele>
        <time>2015-07-16T12:07:57Z</time>
      </trkpt>
      <trkpt lat="44.83015" lon="5.45144">
        <ele>1585.83</ele>
        <time>2015-07-16T12:08:14Z</time>
      </trkpt>
      <trkpt lat="44.83024" lon="5.45132">
        <ele>1587.75</ele>
        <time>2015-07-16T12:08:30Z</time>
      </trkpt>
      <trkpt lat="44.83025" lon="5.45127">
        <ele>1589.68</ele>
        <time>2015-07-16T12:08:35Z</time>
      </trkpt>
      <trkpt lat="44.83032" lon="5.45115">
        <ele>1589.68</ele>
        <time>2015-07-16T12:08:50Z</time>
      </trkpt>
      <trkpt lat="44.83037" lon="5.45105">
        <ele>1590.64</ele>
        <time>2015-07-16T12:09:03Z</time>
      </trkpt>
      <trkpt lat="44.83042" lon="5.45096">
        <ele>1592.08</ele>
        <time>2015-07-16T12:09:15Z</time>
      </trkpt>
      <trkpt lat="44.83047" lon="5.45085">
        <ele>1593.52</ele>
        <time>2015-07-16T12:09:30Z</time>
      </trkpt>
      <trkpt lat="44.83054" lon="5.45072">
        <ele>1595.93</ele>
        <time>2015-07-16T12:09:47Z</time>
      </trkpt>
      <trkpt lat="44.83061" lon="5.45061">
        <ele>1597.37</ele>
        <time>2015-07-16T12:10:04Z</time>
      </trkpt>
      <trkpt lat="44.83067" lon="5.45048">
        <ele>1598.81</ele>
        <time>2015-07-16T12:10:18Z</time>
      </trkpt>
      <trkpt lat="44.83076" lon="5.45032">
        <ele>1599.77</ele>
        <time>2015-07-16T12:10:35Z</time>
      </trkpt>
      <trkpt lat="44.8308" lon="5.45026">
        <ele>1600.25</ele>
        <time>2015-07-16T12:10:42Z</time>
      </trkpt>
      <trkpt lat="44.83092" lon="5.45009">
        <ele>1600.73</ele>
        <time>2015-07-16T12:10:59Z</time>
      </trkpt>
      <trkpt lat="44.83099" lon="5.44995">
        <ele>1601.69</ele>
        <time>2015-07-16T12:11:13Z</time>
      </trkpt>
      <trkpt lat="44.83102" lon="5.44981">
        <ele>1604.1</ele>
        <time>2015-07-16T12:11:28Z</time>
      </trkpt>
      <trkpt lat="44.83105" lon="5.44968">
        <ele>1605.06</ele>
        <time>2015-07-16T12:11:41Z</time>
      </trkpt>
      <trkpt lat="44.8311" lon="5.44961">
        <ele>1606.02</ele>
        <time>2015-07-16T12:11:58Z</time>
      </trkpt>
      <trkpt lat="44.83118" lon="5.44946">
        <ele>1606.02</ele>
        <time>2015-07-16T12:12:23Z</time>
      </trkpt>
      <trkpt lat="44.83122" lon="5.4493">
        <ele>1607.94</ele>
        <time>2015-07-16T12:12:37Z</time>
      </trkpt>
      <trkpt lat="44.83123" lon="5.44927">
        <ele>1608.42</ele>
        <time>2015-07-16T12:12:39Z</time>
      </trkpt>
      <trkpt lat="44.83127" lon="5.44904">
        <ele>1608.9</ele>
        <time>2015-07-16T12:12:55Z</time>
      </trkpt>
      <trkpt lat="44.8313" lon="5.44885">
        <ele>1608.42</ele>
        <time>2015-07-16T12:13:09Z</time>
      </trkpt>
      <trkpt lat="44.83134" lon="5.44869">
        <ele>1608.42</ele>
        <time>2015-07-16T12:13:21Z</time>
      </trkpt>
      <trkpt lat="44.83135" lon="5.44848">
        <ele>1609.38</ele>
        <time>2015-07-16T12:13:38Z</time>
      </trkpt>
      <trkpt lat="44.83135" lon="5.44825">
        <ele>1610.35</ele>
        <time>2015-07-16T12:13:54Z</time>
      </trkpt>
      <trkpt lat="44.83139" lon="5.44806">
        <ele>1610.83</ele>
        <time>2015-07-16T12:14:11Z</time>
      </trkpt>
      <trkpt lat="44.83145" lon="5.44795">
        <ele>1612.75</ele>
        <time>2015-07-16T12:14:24Z</time>
      </trkpt>
      <trkpt lat="44.8315" lon="5.44785">
        <ele>1614.19</ele>
        <time>2015-07-16T12:14:38Z</time>
      </trkpt>
      <trkpt lat="44.83154" lon="5.44779">
        <ele>1615.63</ele>
        <time>2015-07-16T12:14:49Z</time>
      </trkpt>
      <trkpt lat="44.83159" lon="5.44767">
        <ele>1616.59</ele>
        <time>2015-07-16T12:15:02Z</time>
      </trkpt>
      <trkpt lat="44.83162" lon="5.44751">
        <ele>1618.52</ele>
        <time>2015-07-16T12:15:16Z</time>
      </trkpt>
      <trkpt lat="44.83167" lon="5.44736">
        <ele>1619.48</ele>
        <time>2015-07-16T12:15:31Z</time>
      </trkpt>
      <trkpt lat="44.83173" lon="5.44718">
        <ele>1619.48</ele>
        <time>2015-07-16T12:15:48Z</time>
      </trkpt>
      <trkpt lat="44.83179" lon="5.44698">
        <ele>1618.52</ele>
        <time>2015-07-16T12:16:05Z</time>
      </trkpt>
      <trkpt lat="44.83189" lon="5.44673">
        <ele>1617.07</ele>
        <time>2015-07-16T12:16:24Z</time>
      </trkpt>
      <trkpt lat="44.83193" lon="5.44651">
        <ele>1616.59</ele>
        <time>2015-07-16T12:16:40Z</time>
      </trkpt>
      <trkpt lat="44.83195" lon="5.44624">
        <ele>1616.11</ele>
        <time>2015-07-16T12:17:01Z</time>
      </trkpt>
      <trkpt lat="44.83192" lon="5.44606">
        <ele>1617.07</ele>
        <time>2015-07-16T12:17:18Z</time>
      </trkpt>
      <trkpt lat="44.83192" lon="5.44592">
        <ele>1619</ele>
        <time>2015-07-16T12:17:33Z</time>
      </trkpt>
      <trkpt lat="44.8319" lon="5.44575">
        <ele>1619.96</ele>
        <time>2015-07-16T12:17:48Z</time>
      </trkpt>
      <trkpt lat="44.83188" lon="5.44561">
        <ele>1621.88</ele>
        <time>2015-07-16T12:18:03Z</time>
      </trkpt>
      <trkpt lat="44.83187" lon="5.44548">
        <ele>1623.8</ele>
        <time>2015-07-16T12:18:16Z</time>
      </trkpt>
      <trkpt lat="44.83189" lon="5.44538">
        <ele>1625.25</ele>
        <time>2015-07-16T12:18:27Z</time>
      </trkpt>
      <trkpt lat="44.83195" lon="5.44519">
        <ele>1625.73</ele>
        <time>2015-07-16T12:18:45Z</time>
      </trkpt>
      <trkpt lat="44.83196" lon="5.44506">
        <ele>1627.65</ele>
        <time>2015-07-16T12:18:59Z</time>
      </trkpt>
      <trkpt lat="44.83196" lon="5.44492">
        <ele>1629.09</ele>
        <time>2015-07-16T12:19:14Z</time>
      </trkpt>
      <trkpt lat="44.83197" lon="5.44477">
        <ele>1630.53</ele>
        <time>2015-07-16T12:19:28Z</time>
      </trkpt>
      <trkpt lat="44.83198" lon="5.44458">
        <ele>1632.46</ele>
        <time>2015-07-16T12:19:45Z</time>
      </trkpt>
      <trkpt lat="44.83201" lon="5.44437">
        <ele>1632.94</ele>
        <time>2015-07-16T12:20:03Z</time>
      </trkpt>
      <trkpt lat="44.83205" lon="5.44418">
        <ele>1633.42</ele>
        <time>2015-07-16T12:20:20Z</time>
      </trkpt>
      <trkpt lat="44.83204" lon="5.44402">
        <ele>1633.42</ele>
        <time>2015-07-16T12:20:34Z</time>
      </trkpt>
      <trkpt lat="44.832" lon="5.44377">
        <ele>1634.38</ele>
        <time>2015-07-16T12:20:54Z</time>
      </trkpt>
      <trkpt lat="44.83204" lon="5.44372">
        <ele>1634.86</ele>
        <time>2015-07-16T12:21:05Z</time>
      </trkpt>
      <trkpt lat="44.83208" lon="5.44362">
        <ele>1636.3</ele>
        <time>2015-07-16T12:21:21Z</time>
      </trkpt>
      <trkpt lat="44.83205" lon="5.44363">
        <ele>1636.78</ele>
        <time>2015-07-16T12:21:39Z</time>
      </trkpt>
      <trkpt lat="44.83206" lon="5.4436">
        <ele>1636.78</ele>
        <time>2015-07-16T12:22:02Z</time>
      </trkpt>
      <trkpt lat="44.83208" lon="5.44355">
        <ele>1637.26</ele>
        <time>2015-07-16T12:22:08Z</time>
      </trkpt>
      <trkpt lat="44.8321" lon="5.44346">
        <ele>1637.74</ele>
        <time>2015-07-16T12:22:15Z</time>
      </trkpt>
      <trkpt lat="44.83213" lon="5.44325">
        <ele>1636.78</ele>
        <time>2015-07-16T12:22:31Z</time>
      </trkpt>
      <trkpt lat="44.83214" lon="5.44313">
        <ele>1636.78</ele>
        <time>2015-07-16T12:22:43Z</time>
      </trkpt>
      <trkpt lat="44.83215" lon="5.44297">
        <ele>1635.34</ele>
        <time>2015-07-16T12:22:58Z</time>
      </trkpt>
      <trkpt lat="44.8322" lon="5.44272">
        <ele>1632.94</ele>
        <time>2015-07-16T12:23:19Z</time>
      </trkpt>
      <trkpt lat="44.83221" lon="5.4425">
        <ele>1629.57</ele>
        <time>2015-07-16T12:23:37Z</time>
      </trkpt>
      <trkpt lat="44.83219" lon="5.44233">
        <ele>1626.21</ele>
        <time>2015-07-16T12:23:51Z</time>
      </trkpt>
      <trkpt lat="44.83219" lon="5.44232">
        <ele>1626.21</ele>
        <time>2015-07-16T12:23:52Z</time>
      </trkpt>
      <trkpt lat="44.83216" lon="5.44213">
        <ele>1626.69</ele>
        <time>2015-07-16T12:24:07Z</time>
      </trkpt>
      <trkpt lat="44.83219" lon="5.44192">
        <ele>1628.61</ele>
        <time>2015-07-16T12:24:26Z</time>
      </trkpt>
      <trkpt lat="44.83221" lon="5.44179">
        <ele>1630.05</ele>
        <time>2015-07-16T12:24:40Z</time>
      </trkpt>
      <trkpt lat="44.83222" lon="5.44165">
        <ele>1631.49</ele>
        <time>2015-07-16T12:24:54Z</time>
      </trkpt>
      <trkpt lat="44.83223" lon="5.44151">
        <ele>1632.94</ele>
        <time>2015-07-16T12:25:08Z</time>
      </trkpt>
      <trkpt lat="44.83224" lon="5.44137">
        <ele>1635.82</ele>
        <time>2015-07-16T12:25:23Z</time>
      </trkpt>
      <trkpt lat="44.83225" lon="5.44125">
        <ele>1637.74</ele>
        <time>2015-07-16T12:25:36Z</time>
      </trkpt>
      <trkpt lat="44.83225" lon="5.4411">
        <ele>1639.19</ele>
        <time>2015-07-16T12:25:51Z</time>
      </trkpt>
      <trkpt lat="44.83225" lon="5.44097">
        <ele>1640.63</ele>
        <time>2015-07-16T12:26:05Z</time>
      </trkpt>
      <trkpt lat="44.83225" lon="5.4408">
        <ele>1642.07</ele>
        <time>2015-07-16T12:26:19Z</time>
      </trkpt>
      <trkpt lat="44.83227" lon="5.44065">
        <ele>1642.55</ele>
        <time>2015-07-16T12:26:33Z</time>
      </trkpt>
      <trkpt lat="44.83231" lon="5.44062">
        <ele>1643.03</ele>
        <time>2015-07-16T12:26:47Z</time>
      </trkpt>
      <trkpt lat="44.83231" lon="5.44065">
        <ele>1642.55</ele>
        <time>2015-07-16T12:27:06Z</time>
      </trkpt>
      <trkpt lat="44.83231" lon="5.44064">
        <ele>1643.03</ele>
        <time>2015-07-16T12:27:31Z</time>
      </trkpt>
      <trkpt lat="44.83231" lon="5.44062">
        <ele>1643.03</ele>
        <time>2015-07-16T12:27:49Z</time>
      </trkpt>
      <trkpt lat="44.8323" lon="5.44058">
        <ele>1642.55</ele>
        <time>2015-07-16T12:28:06Z</time>
      </trkpt>
      <trkpt lat="44.83229" lon="5.44053">
        <ele>1643.03</ele>
        <time>2015-07-16T12:28:20Z</time>
      </trkpt>
      <trkpt lat="44.83228" lon="5.44042">
        <ele>1642.55</ele>
        <time>2015-07-16T12:28:34Z</time>
      </trkpt>
      <trkpt lat="44.83228" lon="5.44023">
        <ele>1642.07</ele>
        <time>2015-07-16T12:28:49Z</time>
      </trkpt>
      <trkpt lat="44.83227" lon="5.44005">
        <ele>1641.11</ele>
        <time>2015-07-16T12:29:08Z</time>
      </trkpt>
      <trkpt lat="44.83228" lon="5.43992">
        <ele>1641.11</ele>
        <time>2015-07-16T12:29:23Z</time>
      </trkpt>
      <trkpt lat="44.83226" lon="5.43972">
        <ele>1642.07</ele>
        <time>2015-07-16T12:29:40Z</time>
      </trkpt>
      <trkpt lat="44.83226" lon="5.43967">
        <ele>1642.07</ele>
        <time>2015-07-16T12:29:44Z</time>
      </trkpt>
      <trkpt lat="44.83231" lon="5.43948">
        <ele>1641.59</ele>
        <time>2015-07-16T12:30:01Z</time>
      </trkpt>
      <trkpt lat="44.83234" lon="5.43934">
        <ele>1640.63</ele>
        <time>2015-07-16T12:30:15Z</time>
      </trkpt>
      <trkpt lat="44.83239" lon="5.43913">
        <ele>1638.22</ele>
        <time>2015-07-16T12:30:32Z</time>
      </trkpt>
      <trkpt lat="44.83241" lon="5.43895">
        <ele>1636.3</ele>
        <time>2015-07-16T12:30:48Z</time>
      </trkpt>
      <trkpt lat="44.83248" lon="5.43876">
        <ele>1633.42</ele>
        <time>2015-07-16T12:31:09Z</time>
      </trkpt>
      <trkpt lat="44.83252" lon="5.43867">
        <ele>1632.94</ele>
        <time>2015-07-16T12:31:17Z</time>
      </trkpt>
      <trkpt lat="44.83257" lon="5.43848">
        <ele>1633.42</ele>
        <time>2015-07-16T12:31:33Z</time>
      </trkpt>
      <trkpt lat="44.83261" lon="5.43824">
        <ele>1632.46</ele>
        <time>2015-07-16T12:31:50Z</time>
      </trkpt>
      <trkpt lat="44.83261" lon="5.43817">
        <ele>1631.49</ele>
        <time>2015-07-16T12:31:55Z</time>
      </trkpt>
      <trkpt lat="44.83259" lon="5.43792">
        <ele>1629.57</ele>
        <time>2015-07-16T12:32:15Z</time>
      </trkpt>
      <trkpt lat="44.8325" lon="5.43778">
        <ele>1628.13</ele>
        <time>2015-07-16T12:32:32Z</time>
      </trkpt>
      <trkpt lat="44.83239" lon="5.43757">
        <ele>1626.69</ele>
        <time>2015-07-16T12:32:50Z</time>
      </trkpt>
      <trkpt lat="44.83231" lon="5.43739">
        <ele>1627.17</ele>
        <time>2015-07-16T12:33:07Z</time>
      </trkpt>
      <trkpt lat="44.83227" lon="5.43721">
        <ele>1624.28</ele>
        <time>2015-07-16T12:33:22Z</time>
      </trkpt>
      <trkpt lat="44.83228" lon="5.43705">
        <ele>1625.73</ele>
        <time>2015-07-16T12:33:38Z</time>
      </trkpt>
      <trkpt lat="44.83229" lon="5.43702">
        <ele>1624.28</ele>
        <time>2015-07-16T12:33:51Z</time>
      </trkpt>
      <trkpt lat="44.83226" lon="5.43684">
        <ele>1622.84</ele>
        <time>2015-07-16T12:34:08Z</time>
      </trkpt>
      <trkpt lat="44.83223" lon="5.43666">
        <ele>1621.88</ele>
        <time>2015-07-16T12:34:22Z</time>
      </trkpt>
      <trkpt lat="44.83217" lon="5.43642">
        <ele>1619.48</ele>
        <time>2015-07-16T12:34:42Z</time>
      </trkpt>
      <trkpt lat="44.83213" lon="5.43624">
        <ele>1617.07</ele>
        <time>2015-07-16T12:34:58Z</time>
      </trkpt>
      <trkpt lat="44.83212" lon="5.4362">
        <ele>1613.71</ele>
        <time>2015-07-16T12:35:02Z</time>
      </trkpt>
      <trkpt lat="44.83206" lon="5.43595">
        <ele>1612.75</ele>
        <time>2015-07-16T12:35:21Z</time>
      </trkpt>
      <trkpt lat="44.83201" lon="5.43567">
        <ele>1612.75</ele>
        <time>2015-07-16T12:35:41Z</time>
      </trkpt>
      <trkpt lat="44.83194" lon="5.43544">
        <ele>1613.23</ele>
        <time>2015-07-16T12:35:59Z</time>
      </trkpt>
      <trkpt lat="44.83186" lon="5.43522">
        <ele>1612.27</ele>
        <time>2015-07-16T12:36:16Z</time>
      </trkpt>
      <trkpt lat="44.8318" lon="5.43503">
        <ele>1611.31</ele>
        <time>2015-07-16T12:36:31Z</time>
      </trkpt>
      <trkpt lat="44.83177" lon="5.43494">
        <ele>1610.83</ele>
        <time>2015-07-16T12:36:43Z</time>
      </trkpt>
      <trkpt lat="44.83165" lon="5.43473">
        <ele>1607.46</ele>
        <time>2015-07-16T12:37:02Z</time>
      </trkpt>
      <trkpt lat="44.83165" lon="5.43472">
        <ele>1606.02</ele>
        <time>2015-07-16T12:37:03Z</time>
      </trkpt>
      <trkpt lat="44.83161" lon="5.43473">
        <ele>1607.94</ele>
        <time>2015-07-16T12:37:07Z</time>
      </trkpt>
      <trkpt lat="44.83154" lon="5.43469">
        <ele>1605.54</ele>
        <time>2015-07-16T12:37:18Z</time>
      </trkpt>
      <trkpt lat="44.83148" lon="5.43462">
        <ele>1603.14</ele>
        <time>2015-07-16T12:37:32Z</time>
      </trkpt>
      <trkpt lat="44.83146" lon="5.43454">
        <ele>1601.69</ele>
        <time>2015-07-16T12:37:39Z</time>
      </trkpt>
      <trkpt lat="44.83143" lon="5.43448">
        <ele>1601.69</ele>
        <time>2015-07-16T12:37:46Z</time>
      </trkpt>
      <trkpt lat="44.83133" lon="5.43426">
        <ele>1601.21</ele>
        <time>2015-07-16T12:38:04Z</time>
      </trkpt>
      <trkpt lat="44.83121" lon="5.43409">
        <ele>1600.25</ele>
        <time>2015-07-16T12:38:21Z</time>
      </trkpt>
      <trkpt lat="44.8311" lon="5.4339">
        <ele>1599.29</ele>
        <time>2015-07-16T12:38:38Z</time>
      </trkpt>
      <trkpt lat="44.83101" lon="5.4337">
        <ele>1596.89</ele>
        <time>2015-07-16T12:38:56Z</time>
      </trkpt>
      <trkpt lat="44.83091" lon="5.43347">
        <ele>1597.85</ele>
        <time>2015-07-16T12:39:15Z</time>
      </trkpt>
      <trkpt lat="44.83085" lon="5.43319">
        <ele>1597.37</ele>
        <time>2015-07-16T12:39:35Z</time>
      </trkpt>
      <trkpt lat="44.83083" lon="5.43309">
        <ele>1596.41</ele>
        <time>2015-07-16T12:39:43Z</time>
      </trkpt>
      <trkpt lat="44.83076" lon="5.43284">
        <ele>1594.96</ele>
        <time>2015-07-16T12:40:01Z</time>
      </trkpt>
      <trkpt lat="44.83069" lon="5.43262">
        <ele>1593.52</ele>
        <time>2015-07-16T12:40:20Z</time>
      </trkpt>
      <trkpt lat="44.83069" lon="5.43256">
        <ele>1593.52</ele>
        <time>2015-07-16T12:40:25Z</time>
      </trkpt>
      <trkpt lat="44.83068" lon="5.43228">
        <ele>1593.04</ele>
        <time>2015-07-16T12:40:44Z</time>
      </trkpt>
      <trkpt lat="44.83069" lon="5.43196">
        <ele>1592.56</ele>
        <time>2015-07-16T12:41:05Z</time>
      </trkpt>
      <trkpt lat="44.83062" lon="5.43176">
        <ele>1593.52</ele>
        <time>2015-07-16T12:41:22Z</time>
      </trkpt>
      <trkpt lat="44.83057" lon="5.43159">
        <ele>1594.96</ele>
        <time>2015-07-16T12:41:37Z</time>
      </trkpt>
      <trkpt lat="44.83049" lon="5.43138">
        <ele>1594.48</ele>
        <time>2015-07-16T12:41:58Z</time>
      </trkpt>
      <trkpt lat="44.83045" lon="5.4313">
        <ele>1592.56</ele>
        <time>2015-07-16T12:42:08Z</time>
      </trkpt>
      <trkpt lat="44.83043" lon="5.43125">
        <ele>1590.64</ele>
        <time>2015-07-16T12:42:11Z</time>
      </trkpt>
      <trkpt lat="44.83037" lon="5.43108">
        <ele>1593.04</ele>
        <time>2015-07-16T12:42:24Z</time>
      </trkpt>
      <trkpt lat="44.83035" lon="5.43104">
        <ele>1593.04</ele>
        <time>2015-07-16T12:42:28Z</time>
      </trkpt>
      <trkpt lat="44.83024" lon="5.43091">
        <ele>1593.52</ele>
        <time>2015-07-16T12:42:44Z</time>
      </trkpt>
      <trkpt lat="44.83015" lon="5.43074">
        <ele>1594.48</ele>
        <time>2015-07-16T12:42:59Z</time>
      </trkpt>
      <trkpt lat="44.83005" lon="5.43057">
        <ele>1595.45</ele>
        <time>2015-07-16T12:43:16Z</time>
      </trkpt>
      <trkpt lat="44.82993" lon="5.43035">
        <ele>1595.93</ele>
        <time>2015-07-16T12:43:35Z</time>
      </trkpt>
      <trkpt lat="44.82975" lon="5.43021">
        <ele>1596.89</ele>
        <time>2015-07-16T12:43:55Z</time>
      </trkpt>
      <trkpt lat="44.82962" lon="5.43015">
        <ele>1598.33</ele>
        <time>2015-07-16T12:44:10Z</time>
      </trkpt>
      <trkpt lat="44.82959" lon="5.43014">
        <ele>1598.81</ele>
        <time>2015-07-16T12:44:13Z</time>
      </trkpt>
      <trkpt lat="44.82942" lon="5.43006">
        <ele>1600.25</ele>
        <time>2015-07-16T12:44:32Z</time>
      </trkpt>
      <trkpt lat="44.8294" lon="5.43004">
        <ele>1601.21</ele>
        <time>2015-07-16T12:44:35Z</time>
      </trkpt>
      <trkpt lat="44.82935" lon="5.43003">
        <ele>1601.21</ele>
        <time>2015-07-16T12:44:40Z</time>
      </trkpt>
      <trkpt lat="44.82916" lon="5.42998">
        <ele>1600.73</ele>
        <time>2015-07-16T12:44:58Z</time>
      </trkpt>
      <trkpt lat="44.82899" lon="5.42993">
        <ele>1602.17</ele>
        <time>2015-07-16T12:45:15Z</time>
      </trkpt>
      <trkpt lat="44.82881" lon="5.4299">
        <ele>1601.21</ele>
        <time>2015-07-16T12:45:33Z</time>
      </trkpt>
      <trkpt lat="44.82861" lon="5.42985">
        <ele>1603.62</ele>
        <time>2015-07-16T12:45:53Z</time>
      </trkpt>
      <trkpt lat="44.82848" lon="5.42978">
        <ele>1604.1</ele>
        <time>2015-07-16T12:46:06Z</time>
      </trkpt>
      <trkpt lat="44.82834" lon="5.42965">
        <ele>1605.06</ele>
        <time>2015-07-16T12:46:22Z</time>
      </trkpt>
      <trkpt lat="44.82819" lon="5.42951">
        <ele>1606.02</ele>
        <time>2015-07-16T12:46:39Z</time>
      </trkpt>
      <trkpt lat="44.82809" lon="5.42941">
        <ele>1604.1</ele>
        <time>2015-07-16T12:46:51Z</time>
      </trkpt>
      <trkpt lat="44.82806" lon="5.42935">
        <ele>1603.62</ele>
        <time>2015-07-16T12:47:01Z</time>
      </trkpt>
      <trkpt lat="44.82794" lon="5.42912">
        <ele>1605.54</ele>
        <time>2015-07-16T12:47:20Z</time>
      </trkpt>
      <trkpt lat="44.82784" lon="5.42893">
        <ele>1607.46</ele>
        <time>2015-07-16T12:47:37Z</time>
      </trkpt>
      <trkpt lat="44.82782" lon="5.42887">
        <ele>1606.98</ele>
        <time>2015-07-16T12:47:52Z</time>
      </trkpt>
      <trkpt lat="44.82777" lon="5.4288">
        <ele>1605.06</ele>
        <time>2015-07-16T12:48:02Z</time>
      </trkpt>
      <trkpt lat="44.8277" lon="5.42866">
        <ele>1604.1</ele>
        <time>2015-07-16T12:48:14Z</time>
      </trkpt>
      <trkpt lat="44.82768" lon="5.42854">
        <ele>1605.06</ele>
        <time>2015-07-16T12:48:26Z</time>
      </trkpt>
      <trkpt lat="44.82767" lon="5.42846">
        <ele>1606.5</ele>
        <time>2015-07-16T12:48:33Z</time>
      </trkpt>
      <trkpt lat="44.82767" lon="5.42836">
        <ele>1607.94</ele>
        <time>2015-07-16T12:48:41Z</time>
      </trkpt>
      <trkpt lat="44.82768" lon="5.4283">
        <ele>1608.42</ele>
        <time>2015-07-16T12:48:54Z</time>
      </trkpt>
      <trkpt lat="44.82768" lon="5.42818">
        <ele>1608.42</ele>
        <time>2015-07-16T12:49:07Z</time>
      </trkpt>
      <trkpt lat="44.82771" lon="5.42802">
        <ele>1610.83</ele>
        <time>2015-07-16T12:49:22Z</time>
      </trkpt>
      <trkpt lat="44.82775" lon="5.42786">
        <ele>1613.23</ele>
        <time>2015-07-16T12:49:37Z</time>
      </trkpt>
      <trkpt lat="44.82777" lon="5.42774">
        <ele>1614.67</ele>
        <time>2015-07-16T12:49:50Z</time>
      </trkpt>
      <trkpt lat="44.82778" lon="5.42762">
        <ele>1615.15</ele>
        <time>2015-07-16T12:50:05Z</time>
      </trkpt>
      <trkpt lat="44.8278" lon="5.4275">
        <ele>1617.07</ele>
        <time>2015-07-16T12:50:18Z</time>
      </trkpt>
      <trkpt lat="44.8278" lon="5.4274">
        <ele>1619</ele>
        <time>2015-07-16T12:50:33Z</time>
      </trkpt>
      <trkpt lat="44.82784" lon="5.4272">
        <ele>1619.48</ele>
        <time>2015-07-16T12:50:50Z</time>
      </trkpt>
      <trkpt lat="44.82786" lon="5.42701">
        <ele>1620.92</ele>
        <time>2015-07-16T12:51:06Z</time>
      </trkpt>
      <trkpt lat="44.82786" lon="5.42682">
        <ele>1620.44</ele>
        <time>2015-07-16T12:51:21Z</time>
      </trkpt>
      <trkpt lat="44.82781" lon="5.42667">
        <ele>1620.92</ele>
        <time>2015-07-16T12:51:36Z</time>
      </trkpt>
      <trkpt lat="44.82778" lon="5.42649">
        <ele>1622.36</ele>
        <time>2015-07-16T12:51:52Z</time>
      </trkpt>
      <trkpt lat="44.82777" lon="5.42638">
        <ele>1623.32</ele>
        <time>2015-07-16T12:52:02Z</time>
      </trkpt>
      <trkpt lat="44.82773" lon="5.42614">
        <ele>1624.28</ele>
        <time>2015-07-16T12:52:21Z</time>
      </trkpt>
      <trkpt lat="44.82769" lon="5.42592">
        <ele>1624.77</ele>
        <time>2015-07-16T12:52:38Z</time>
      </trkpt>
      <trkpt lat="44.82768" lon="5.42568">
        <ele>1623.32</ele>
        <time>2015-07-16T12:52:57Z</time>
      </trkpt>
      <trkpt lat="44.82768" lon="5.42561">
        <ele>1622.84</ele>
        <time>2015-07-16T12:53:03Z</time>
      </trkpt>
      <trkpt lat="44.82769" lon="5.42554">
        <ele>1621.4</ele>
        <time>2015-07-16T12:53:09Z</time>
      </trkpt>
      <trkpt lat="44.82768" lon="5.42545">
        <ele>1619</ele>
        <time>2015-07-16T12:53:16Z</time>
      </trkpt>
      <trkpt lat="44.82761" lon="5.42534">
        <ele>1617.07</ele>
        <time>2015-07-16T12:53:32Z</time>
      </trkpt>
      <trkpt lat="44.82755" lon="5.42516">
        <ele>1613.71</ele>
        <time>2015-07-16T12:53:51Z</time>
      </trkpt>
      <trkpt lat="44.82756" lon="5.42492">
        <ele>1612.75</ele>
        <time>2015-07-16T12:54:10Z</time>
      </trkpt>
      <trkpt lat="44.82754" lon="5.42468">
        <ele>1614.19</ele>
        <time>2015-07-16T12:54:27Z</time>
      </trkpt>
      <trkpt lat="44.82749" lon="5.42443">
        <ele>1614.19</ele>
        <time>2015-07-16T12:54:45Z</time>
      </trkpt>
      <trkpt lat="44.82747" lon="5.42421">
        <ele>1615.15</ele>
        <time>2015-07-16T12:55:03Z</time>
      </trkpt>
      <trkpt lat="44.82746" lon="5.42395">
        <ele>1612.75</ele>
        <time>2015-07-16T12:55:22Z</time>
      </trkpt>
      <trkpt lat="44.82742" lon="5.42388">
        <ele>1611.79</ele>
        <time>2015-07-16T12:55:32Z</time>
      </trkpt>
      <trkpt lat="44.82734" lon="5.42363">
        <ele>1609.38</ele>
        <time>2015-07-16T12:55:50Z</time>
      </trkpt>
      <trkpt lat="44.82731" lon="5.42349">
        <ele>1609.38</ele>
        <time>2015-07-16T12:56:01Z</time>
      </trkpt>
      <trkpt lat="44.8273" lon="5.42343">
        <ele>1607.94</ele>
        <time>2015-07-16T12:56:05Z</time>
      </trkpt>
      <trkpt lat="44.82727" lon="5.42321">
        <ele>1606.98</ele>
        <time>2015-07-16T12:56:21Z</time>
      </trkpt>
      <trkpt lat="44.82722" lon="5.42303">
        <ele>1604.1</ele>
        <time>2015-07-16T12:56:37Z</time>
      </trkpt>
      <trkpt lat="44.82717" lon="5.42295">
        <ele>1602.17</ele>
        <time>2015-07-16T12:56:51Z</time>
      </trkpt>
      <trkpt lat="44.82711" lon="5.42283">
        <ele>1599.29</ele>
        <time>2015-07-16T12:57:07Z</time>
      </trkpt>
      <trkpt lat="44.82709" lon="5.42283">
        <ele>1597.85</ele>
        <time>2015-07-16T12:57:23Z</time>
      </trkpt>
      <trkpt lat="44.82709" lon="5.4228">
        <ele>1597.85</ele>
        <time>2015-07-16T12:57:40Z</time>
      </trkpt>
      <trkpt lat="44.82709" lon="5.42284">
        <ele>1598.33</ele>
        <time>2015-07-16T12:57:54Z</time>
      </trkpt>
      <trkpt lat="44.8271" lon="5.42277">
        <ele>1599.77</ele>
        <time>2015-07-16T12:58:19Z</time>
      </trkpt>
      <trkpt lat="44.82708" lon="5.42259">
        <ele>1597.85</ele>
        <time>2015-07-16T12:58:33Z</time>
      </trkpt>
      <trkpt lat="44.82705" lon="5.42234">
        <ele>1598.33</ele>
        <time>2015-07-16T12:58:53Z</time>
      </trkpt>
      <trkpt lat="44.82703" lon="5.42213">
        <ele>1598.33</ele>
        <time>2015-07-16T12:59:09Z</time>
      </trkpt>
      <trkpt lat="44.82699" lon="5.4219">
        <ele>1599.77</ele>
        <time>2015-07-16T12:59:27Z</time>
      </trkpt>
      <trkpt lat="44.8269" lon="5.42163">
        <ele>1599.77</ele>
        <time>2015-07-16T12:59:47Z</time>
      </trkpt>
      <trkpt lat="44.82684" lon="5.42141">
        <ele>1599.77</ele>
        <time>2015-07-16T13:00:03Z</time>
      </trkpt>
      <trkpt lat="44.82682" lon="5.4211">
        <ele>1601.21</ele>
        <time>2015-07-16T13:00:23Z</time>
      </trkpt>
      <trkpt lat="44.82683" lon="5.42089">
        <ele>1601.69</ele>
        <time>2015-07-16T13:00:38Z</time>
      </trkpt>
      <trkpt lat="44.8269" lon="5.42068">
        <ele>1603.14</ele>
        <time>2015-07-16T13:00:54Z</time>
      </trkpt>
      <trkpt lat="44.82694" lon="5.42052">
        <ele>1605.54</ele>
        <time>2015-07-16T13:01:07Z</time>
      </trkpt>
      <trkpt lat="44.82696" lon="5.42028">
        <ele>1606.5</ele>
        <time>2015-07-16T13:01:24Z</time>
      </trkpt>
      <trkpt lat="44.82702" lon="5.42009">
        <ele>1607.46</ele>
        <time>2015-07-16T13:01:39Z</time>
      </trkpt>
      <trkpt lat="44.82703" lon="5.41992">
        <ele>1608.42</ele>
        <time>2015-07-16T13:01:51Z</time>
      </trkpt>
      <trkpt lat="44.827" lon="5.4197">
        <ele>1609.86</ele>
        <time>2015-07-16T13:02:08Z</time>
      </trkpt>
      <trkpt lat="44.82699" lon="5.41961">
        <ele>1610.35</ele>
        <time>2015-07-16T13:02:15Z</time>
      </trkpt>
      <trkpt lat="44.82699" lon="5.41941">
        <ele>1611.79</ele>
        <time>2015-07-16T13:02:31Z</time>
      </trkpt>
      <trkpt lat="44.82698" lon="5.41918">
        <ele>1612.75</ele>
        <time>2015-07-16T13:02:49Z</time>
      </trkpt>
      <trkpt lat="44.82694" lon="5.41898">
        <ele>1613.23</ele>
        <time>2015-07-16T13:03:05Z</time>
      </trkpt>
      <trkpt lat="44.82692" lon="5.41874">
        <ele>1613.71</ele>
        <time>2015-07-16T13:03:23Z</time>
      </trkpt>
      <trkpt lat="44.8269" lon="5.41845">
        <ele>1611.79</ele>
        <time>2015-07-16T13:03:44Z</time>
      </trkpt>
      <trkpt lat="44.82688" lon="5.41835">
        <ele>1615.63</ele>
        <time>2015-07-16T13:03:52Z</time>
      </trkpt>
      <trkpt lat="44.82687" lon="5.41835">
        <ele>1615.63</ele>
        <time>2015-07-16T13:03:53Z</time>
      </trkpt>
      <trkpt lat="44.82688" lon="5.41835">
        <ele>1616.59</ele>
        <time>2015-07-16T13:03:59Z</time>
      </trkpt>
      <trkpt lat="44.82688" lon="5.41835">
        <ele>1612.27</ele>
        <time>2015-07-16T13:04:01Z</time>
      </trkpt>
      <trkpt lat="44.82688" lon="5.41835">
        <ele>1612.75</ele>
        <time>2015-07-16T13:04:02Z</time>
      </trkpt>
      <trkpt lat="44.82688" lon="5.4183">
        <ele>1616.59</ele>
        <time>2015-07-16T13:04:07Z</time>
      </trkpt>
      <trkpt lat="44.82688" lon="5.41829">
        <ele>1610.83</ele>
        <time>2015-07-16T13:04:08Z</time>
      </trkpt>
      <trkpt lat="44.82687" lon="5.41828">
        <ele>1612.75</ele>
        <time>2015-07-16T13:04:09Z</time>
      </trkpt>
      <trkpt lat="44.82685" lon="5.4182">
        <ele>1610.35</ele>
        <time>2015-07-16T13:04:15Z</time>
      </trkpt>
      <trkpt lat="44.82679" lon="5.41803">
        <ele>1612.27</ele>
        <time>2015-07-16T13:04:30Z</time>
      </trkpt>
      <trkpt lat="44.82673" lon="5.4179">
        <ele>1612.75</ele>
        <time>2015-07-16T13:04:43Z</time>
      </trkpt>
      <trkpt lat="44.82663" lon="5.41776">
        <ele>1614.67</ele>
        <time>2015-07-16T13:05:01Z</time>
      </trkpt>
      <trkpt lat="44.82653" lon="5.41759">
        <ele>1616.11</ele>
        <time>2015-07-16T13:05:17Z</time>
      </trkpt>
      <trkpt lat="44.82644" lon="5.41744">
        <ele>1616.59</ele>
        <time>2015-07-16T13:05:33Z</time>
      </trkpt>
      <trkpt lat="44.82638" lon="5.41727">
        <ele>1616.59</ele>
        <time>2015-07-16T13:05:47Z</time>
      </trkpt>
      <trkpt lat="44.82638" lon="5.41713">
        <ele>1615.63</ele>
        <time>2015-07-16T13:05:58Z</time>
      </trkpt>
      <trkpt lat="44.82638" lon="5.41701">
        <ele>1616.59</ele>
        <time>2015-07-16T13:06:07Z</time>
      </trkpt>
      <trkpt lat="44.82647" lon="5.4169">
        <ele>1614.67</ele>
        <time>2015-07-16T13:06:25Z</time>
      </trkpt>
      <trkpt lat="44.82654" lon="5.41687">
        <ele>1612.75</ele>
        <time>2015-07-16T13:06:43Z</time>
      </trkpt>
      <trkpt lat="44.82657" lon="5.41687">
        <ele>1613.23</ele>
        <time>2015-07-16T13:07:02Z</time>
      </trkpt>
      <trkpt lat="44.82662" lon="5.41682">
        <ele>1611.79</ele>
        <time>2015-07-16T13:07:17Z</time>
      </trkpt>
      <trkpt lat="44.8267" lon="5.41677">
        <ele>1609.86</ele>
        <time>2015-07-16T13:07:34Z</time>
      </trkpt>
      <trkpt lat="44.8268" lon="5.41671">
        <ele>1607.94</ele>
        <time>2015-07-16T13:07:52Z</time>
      </trkpt>
      <trkpt lat="44.82687" lon="5.41668">
        <ele>1606.5</ele>
        <time>2015-07-16T13:08:05Z</time>
      </trkpt>
      <trkpt lat="44.82696" lon="5.41662">
        <ele>1604.1</ele>
        <time>2015-07-16T13:08:22Z</time>
      </trkpt>
      <trkpt lat="44.82709" lon="5.41657">
        <ele>1601.69</ele>
        <time>2015-07-16T13:08:40Z</time>
      </trkpt>
      <trkpt lat="44.82722" lon="5.41651">
        <ele>1598.81</ele>
        <time>2015-07-16T13:08:58Z</time>
      </trkpt>
      <trkpt lat="44.8273" lon="5.41647">
        <ele>1595.45</ele>
        <time>2015-07-16T13:09:12Z</time>
      </trkpt>
      <trkpt lat="44.82737" lon="5.41643">
        <ele>1594</ele>
        <time>2015-07-16T13:09:21Z</time>
      </trkpt>
      <trkpt lat="44.82738" lon="5.41643">
        <ele>1592.56</ele>
        <time>2015-07-16T13:09:35Z</time>
      </trkpt>
      <trkpt lat="44.82739" lon="5.41643">
        <ele>1592.56</ele>
        <time>2015-07-16T13:09:59Z</time>
      </trkpt>
      <trkpt lat="44.82739" lon="5.41642">
        <ele>1592.56</ele>
        <time>2015-07-16T13:10:17Z</time>
      </trkpt>
      <trkpt lat="44.82739" lon="5.41643">
        <ele>1593.04</ele>
        <time>2015-07-16T13:10:35Z</time>
      </trkpt>
      <trkpt lat="44.82742" lon="5.41642">
        <ele>1593.04</ele>
        <time>2015-07-16T13:10:57Z</time>
      </trkpt>
      <trkpt lat="44.8275" lon="5.41633">
        <ele>1590.16</ele>
        <time>2015-07-16T13:11:13Z</time>
      </trkpt>
      <trkpt lat="44.82759" lon="5.41629">
        <ele>1588.72</ele>
        <time>2015-07-16T13:11:28Z</time>
      </trkpt>
      <trkpt lat="44.82769" lon="5.4162">
        <ele>1586.31</ele>
        <time>2015-07-16T13:11:45Z</time>
      </trkpt>
      <trkpt lat="44.8278" lon="5.41615">
        <ele>1583.91</ele>
        <time>2015-07-16T13:12:02Z</time>
      </trkpt>
      <trkpt lat="44.82795" lon="5.41606">
        <ele>1581.03</ele>
        <time>2015-07-16T13:12:23Z</time>
      </trkpt>
      <trkpt lat="44.82809" lon="5.41595">
        <ele>1577.66</ele>
        <time>2015-07-16T13:12:41Z</time>
      </trkpt>
      <trkpt lat="44.82824" lon="5.41584">
        <ele>1576.22</ele>
        <time>2015-07-16T13:12:59Z</time>
      </trkpt>
      <trkpt lat="44.82836" lon="5.41581">
        <ele>1572.85</ele>
        <time>2015-07-16T13:13:14Z</time>
      </trkpt>
      <trkpt lat="44.82842" lon="5.41578">
        <ele>1571.89</ele>
        <time>2015-07-16T13:13:21Z</time>
      </trkpt>
      <trkpt lat="44.82861" lon="5.41572">
        <ele>1569.49</ele>
        <time>2015-07-16T13:13:40Z</time>
      </trkpt>
      <trkpt lat="44.82874" lon="5.41569">
        <ele>1567.57</ele>
        <time>2015-07-16T13:13:57Z</time>
      </trkpt>
      <trkpt lat="44.82879" lon="5.41569">
        <ele>1566.12</ele>
        <time>2015-07-16T13:14:20Z</time>
      </trkpt>
      <trkpt lat="44.829" lon="5.41568">
        <ele>1565.16</ele>
        <time>2015-07-16T13:14:41Z</time>
      </trkpt>
      <trkpt lat="44.82905" lon="5.41562">
        <ele>1563.72</ele>
        <time>2015-07-16T13:14:57Z</time>
      </trkpt>
      <trkpt lat="44.82919" lon="5.41561">
        <ele>1561.32</ele>
        <time>2015-07-16T13:15:14Z</time>
      </trkpt>
      <trkpt lat="44.82936" lon="5.41553">
        <ele>1558.92</ele>
        <time>2015-07-16T13:15:32Z</time>
      </trkpt>
      <trkpt lat="44.82954" lon="5.41547">
        <ele>1557.95</ele>
        <time>2015-07-16T13:15:50Z</time>
      </trkpt>
      <trkpt lat="44.82971" lon="5.4154">
        <ele>1554.59</ele>
        <time>2015-07-16T13:16:05Z</time>
      </trkpt>
      <trkpt lat="44.82992" lon="5.41531">
        <ele>1552.67</ele>
        <time>2015-07-16T13:16:26Z</time>
      </trkpt>
      <trkpt lat="44.82995" lon="5.41531">
        <ele>1551.22</ele>
        <time>2015-07-16T13:16:29Z</time>
      </trkpt>
      <trkpt lat="44.83016" lon="5.41524">
        <ele>1548.34</ele>
        <time>2015-07-16T13:16:49Z</time>
      </trkpt>
      <trkpt lat="44.83032" lon="5.41518">
        <ele>1544.98</ele>
        <time>2015-07-16T13:17:05Z</time>
      </trkpt>
      <trkpt lat="44.83052" lon="5.41512">
        <ele>1542.57</ele>
        <time>2015-07-16T13:17:24Z</time>
      </trkpt>
      <trkpt lat="44.83076" lon="5.41499">
        <ele>1540.65</ele>
        <time>2015-07-16T13:17:46Z</time>
      </trkpt>
      <trkpt lat="44.83086" lon="5.41492">
        <ele>1537.29</ele>
        <time>2015-07-16T13:17:56Z</time>
      </trkpt>
      <trkpt lat="44.83087" lon="5.41491">
        <ele>1536.8</ele>
        <time>2015-07-16T13:17:57Z</time>
      </trkpt>
      <trkpt lat="44.83104" lon="5.41476">
        <ele>1540.17</ele>
        <time>2015-07-16T13:18:15Z</time>
      </trkpt>
      <trkpt lat="44.83108" lon="5.41472">
        <ele>1537.29</ele>
        <time>2015-07-16T13:18:20Z</time>
      </trkpt>
      <trkpt lat="44.83126" lon="5.41447">
        <ele>1535.36</ele>
        <time>2015-07-16T13:18:43Z</time>
      </trkpt>
      <trkpt lat="44.83142" lon="5.41421">
        <ele>1533.44</ele>
        <time>2015-07-16T13:19:04Z</time>
      </trkpt>
      <trkpt lat="44.83161" lon="5.41403">
        <ele>1530.56</ele>
        <time>2015-07-16T13:19:23Z</time>
      </trkpt>
      <trkpt lat="44.83171" lon="5.41381">
        <ele>1529.11</ele>
        <time>2015-07-16T13:19:41Z</time>
      </trkpt>
      <trkpt lat="44.83179" lon="5.41352">
        <ele>1528.63</ele>
        <time>2015-07-16T13:20:01Z</time>
      </trkpt>
      <trkpt lat="44.83181" lon="5.41348">
        <ele>1529.11</ele>
        <time>2015-07-16T13:20:05Z</time>
      </trkpt>
      <trkpt lat="44.83193" lon="5.41342">
        <ele>1528.63</ele>
        <time>2015-07-16T13:20:23Z</time>
      </trkpt>
      <trkpt lat="44.83204" lon="5.4133">
        <ele>1526.71</ele>
        <time>2015-07-16T13:20:42Z</time>
      </trkpt>
      <trkpt lat="44.83228" lon="5.41303">
        <ele>1524.79</ele>
        <time>2015-07-16T13:21:09Z</time>
      </trkpt>
      <trkpt lat="44.83248" lon="5.4128">
        <ele>1522.87</ele>
        <time>2015-07-16T13:21:32Z</time>
      </trkpt>
      <trkpt lat="44.83269" lon="5.41252">
        <ele>1522.87</ele>
        <time>2015-07-16T13:21:56Z</time>
      </trkpt>
      <trkpt lat="44.83288" lon="5.41234">
        <ele>1522.39</ele>
        <time>2015-07-16T13:22:15Z</time>
      </trkpt>
      <trkpt lat="44.83297" lon="5.41228">
        <ele>1522.87</ele>
        <time>2015-07-16T13:22:24Z</time>
      </trkpt>
      <trkpt lat="44.83299" lon="5.41204">
        <ele>1525.75</ele>
        <time>2015-07-16T13:22:40Z</time>
      </trkpt>
      <trkpt lat="44.83299" lon="5.41188">
        <ele>1522.39</ele>
        <time>2015-07-16T13:22:52Z</time>
      </trkpt>
      <trkpt lat="44.83298" lon="5.41184">
        <ele>1520.94</ele>
        <time>2015-07-16T13:22:55Z</time>
      </trkpt>
      <trkpt lat="44.83291" lon="5.41177">
        <ele>1519.02</ele>
        <time>2015-07-16T13:23:05Z</time>
      </trkpt>
      <trkpt lat="44.83286" lon="5.41168">
        <ele>1517.1</ele>
        <time>2015-07-16T13:23:19Z</time>
      </trkpt>
      <trkpt lat="44.83285" lon="5.41162">
        <ele>1515.66</ele>
        <time>2015-07-16T13:23:36Z</time>
      </trkpt>
      <trkpt lat="44.8328" lon="5.41148">
        <ele>1512.77</ele>
        <time>2015-07-16T13:23:49Z</time>
      </trkpt>
      <trkpt lat="44.83277" lon="5.41138">
        <ele>1509.41</ele>
        <time>2015-07-16T13:24:01Z</time>
      </trkpt>
      <trkpt lat="44.83269" lon="5.41132">
        <ele>1506.52</ele>
        <time>2015-07-16T13:24:14Z</time>
      </trkpt>
      <trkpt lat="44.83263" lon="5.41125">
        <ele>1503.64</ele>
        <time>2015-07-16T13:24:28Z</time>
      </trkpt>
      <trkpt lat="44.83262" lon="5.41115">
        <ele>1500.27</ele>
        <time>2015-07-16T13:24:46Z</time>
      </trkpt>
      <trkpt lat="44.83258" lon="5.41106">
        <ele>1497.39</ele>
        <time>2015-07-16T13:25:00Z</time>
      </trkpt>
      <trkpt lat="44.83264" lon="5.41099">
        <ele>1494.99</ele>
        <time>2015-07-16T13:25:14Z</time>
      </trkpt>
      <trkpt lat="44.83256" lon="5.4109">
        <ele>1492.1</ele>
        <time>2015-07-16T13:25:29Z</time>
      </trkpt>
      <trkpt lat="44.83252" lon="5.41082">
        <ele>1488.74</ele>
        <time>2015-07-16T13:25:41Z</time>
      </trkpt>
      <trkpt lat="44.83247" lon="5.41072">
        <ele>1485.85</ele>
        <time>2015-07-16T13:25:56Z</time>
      </trkpt>
      <trkpt lat="44.83243" lon="5.41063">
        <ele>1482.49</ele>
        <time>2015-07-16T13:26:06Z</time>
      </trkpt>
      <trkpt lat="44.83235" lon="5.41051">
        <ele>1479.61</ele>
        <time>2015-07-16T13:26:18Z</time>
      </trkpt>
      <trkpt lat="44.83233" lon="5.41043">
        <ele>1476.24</ele>
        <time>2015-07-16T13:26:30Z</time>
      </trkpt>
      <trkpt lat="44.8323" lon="5.41037">
        <ele>1473.36</ele>
        <time>2015-07-16T13:26:42Z</time>
      </trkpt>
      <trkpt lat="44.83223" lon="5.41024">
        <ele>1469.99</ele>
        <time>2015-07-16T13:26:55Z</time>
      </trkpt>
      <trkpt lat="44.83218" lon="5.41013">
        <ele>1467.11</ele>
        <time>2015-07-16T13:27:10Z</time>
      </trkpt>
      <trkpt lat="44.83214" lon="5.41006">
        <ele>1464.71</ele>
        <time>2015-07-16T13:27:26Z</time>
      </trkpt>
      <trkpt lat="44.83212" lon="5.41001">
        <ele>1464.23</ele>
        <time>2015-07-16T13:27:48Z</time>
      </trkpt>
      <trkpt lat="44.83209" lon="5.41">
        <ele>1462.78</ele>
        <time>2015-07-16T13:28:06Z</time>
      </trkpt>
      <trkpt lat="44.83205" lon="5.40989">
        <ele>1459.42</ele>
        <time>2015-07-16T13:28:21Z</time>
      </trkpt>
      <trkpt lat="44.832" lon="5.4098">
        <ele>1456.05</ele>
        <time>2015-07-16T13:28:34Z</time>
      </trkpt>
      <trkpt lat="44.83197" lon="5.40975">
        <ele>1453.17</ele>
        <time>2015-07-16T13:28:45Z</time>
      </trkpt>
      <trkpt lat="44.8319" lon="5.40959">
        <ele>1450.29</ele>
        <time>2015-07-16T13:29:02Z</time>
      </trkpt>
      <trkpt lat="44.83186" lon="5.40951">
        <ele>1448.84</ele>
        <time>2015-07-16T13:29:17Z</time>
      </trkpt>
      <trkpt lat="44.83184" lon="5.40951">
        <ele>1447.88</ele>
        <time>2015-07-16T13:29:32Z</time>
      </trkpt>
      <trkpt lat="44.83187" lon="5.40949">
        <ele>1446.44</ele>
        <time>2015-07-16T13:29:46Z</time>
      </trkpt>
      <trkpt lat="44.83184" lon="5.40944">
        <ele>1444.52</ele>
        <time>2015-07-16T13:29:59Z</time>
      </trkpt>
      <trkpt lat="44.83179" lon="5.40939">
        <ele>1443.08</ele>
        <time>2015-07-16T13:30:16Z</time>
      </trkpt>
      <trkpt lat="44.83172" lon="5.40927">
        <ele>1439.71</ele>
        <time>2015-07-16T13:30:30Z</time>
      </trkpt>
      <trkpt lat="44.83169" lon="5.40924">
        <ele>1437.31</ele>
        <time>2015-07-16T13:30:46Z</time>
      </trkpt>
      <trkpt lat="44.83159" lon="5.40913">
        <ele>1434.91</ele>
        <time>2015-07-16T13:31:03Z</time>
      </trkpt>
      <trkpt lat="44.83159" lon="5.40907">
        <ele>1433.46</ele>
        <time>2015-07-16T13:31:19Z</time>
      </trkpt>
      <trkpt lat="44.83166" lon="5.40896">
        <ele>1430.58</ele>
        <time>2015-07-16T13:31:34Z</time>
      </trkpt>
      <trkpt lat="44.83172" lon="5.40888">
        <ele>1427.21</ele>
        <time>2015-07-16T13:31:44Z</time>
      </trkpt>
      <trkpt lat="44.83172" lon="5.40888">
        <ele>1427.21</ele>
        <time>2015-07-16T13:31:45Z</time>
      </trkpt>
      <trkpt lat="44.83183" lon="5.4088">
        <ele>1424.33</ele>
        <time>2015-07-16T13:32:03Z</time>
      </trkpt>
      <trkpt lat="44.83188" lon="5.4087">
        <ele>1420.97</ele>
        <time>2015-07-16T13:32:18Z</time>
      </trkpt>
      <trkpt lat="44.83193" lon="5.4086">
        <ele>1418.08</ele>
        <time>2015-07-16T13:32:35Z</time>
      </trkpt>
      <trkpt lat="44.83201" lon="5.4085">
        <ele>1415.2</ele>
        <time>2015-07-16T13:32:52Z</time>
      </trkpt>
      <trkpt lat="44.83204" lon="5.40846">
        <ele>1414.72</ele>
        <time>2015-07-16T13:32:57Z</time>
      </trkpt>
      <trkpt lat="44.83206" lon="5.40842">
        <ele>1413.28</ele>
        <time>2015-07-16T13:33:00Z</time>
      </trkpt>
      <trkpt lat="44.83213" lon="5.40829">
        <ele>1409.91</ele>
        <time>2015-07-16T13:33:13Z</time>
      </trkpt>
      <trkpt lat="44.83219" lon="5.40813">
        <ele>1406.55</ele>
        <time>2015-07-16T13:33:29Z</time>
      </trkpt>
      <trkpt lat="44.83225" lon="5.40803">
        <ele>1403.66</ele>
        <time>2015-07-16T13:33:42Z</time>
      </trkpt>
      <trkpt lat="44.83229" lon="5.40793">
        <ele>1400.3</ele>
        <time>2015-07-16T13:33:55Z</time>
      </trkpt>
      <trkpt lat="44.83233" lon="5.40786">
        <ele>1397.41</ele>
        <time>2015-07-16T13:34:06Z</time>
      </trkpt>
      <trkpt lat="44.83237" lon="5.40776">
        <ele>1394.53</ele>
        <time>2015-07-16T13:34:18Z</time>
      </trkpt>
      <trkpt lat="44.83243" lon="5.40766">
        <ele>1391.17</ele>
        <time>2015-07-16T13:34:30Z</time>
      </trkpt>
      <trkpt lat="44.8325" lon="5.40751">
        <ele>1387.8</ele>
        <time>2015-07-16T13:34:45Z</time>
      </trkpt>
      <trkpt lat="44.83264" lon="5.40736">
        <ele>1384.44</ele>
        <time>2015-07-16T13:35:05Z</time>
      </trkpt>
      <trkpt lat="44.83282" lon="5.4073">
        <ele>1382.51</ele>
        <time>2015-07-16T13:35:26Z</time>
      </trkpt>
      <trkpt lat="44.83284" lon="5.40732">
        <ele>1382.03</ele>
        <time>2015-07-16T13:35:43Z</time>
      </trkpt>
      <trkpt lat="44.83287" lon="5.4073">
        <ele>1382.03</ele>
        <time>2015-07-16T13:36:08Z</time>
      </trkpt>
      <trkpt lat="44.83282" lon="5.40729">
        <ele>1382.03</ele>
        <time>2015-07-16T13:36:32Z</time>
      </trkpt>
      <trkpt lat="44.83286" lon="5.40728">
        <ele>1382.03</ele>
        <time>2015-07-16T13:36:51Z</time>
      </trkpt>
      <trkpt lat="44.83295" lon="5.40729">
        <ele>1380.59</ele>
        <time>2015-07-16T13:37:05Z</time>
      </trkpt>
      <trkpt lat="44.83312" lon="5.40737">
        <ele>1377.71</ele>
        <time>2015-07-16T13:37:22Z</time>
      </trkpt>
      <trkpt lat="44.83319" lon="5.4074">
        <ele>1376.75</ele>
        <time>2015-07-16T13:37:29Z</time>
      </trkpt>
      <trkpt lat="44.83338" lon="5.40748">
        <ele>1374.34</ele>
        <time>2015-07-16T13:37:49Z</time>
      </trkpt>
      <trkpt lat="44.83349" lon="5.40752">
        <ele>1373.38</ele>
        <time>2015-07-16T13:37:59Z</time>
      </trkpt>
      <trkpt lat="44.8336" lon="5.40748">
        <ele>1371.94</ele>
        <time>2015-07-16T13:38:10Z</time>
      </trkpt>
      <trkpt lat="44.83367" lon="5.4074">
        <ele>1370.5</ele>
        <time>2015-07-16T13:38:20Z</time>
      </trkpt>
      <trkpt lat="44.83376" lon="5.40725">
        <ele>1369.05</ele>
        <time>2015-07-16T13:38:38Z</time>
      </trkpt>
      <trkpt lat="44.83393" lon="5.40707">
        <ele>1366.65</ele>
        <time>2015-07-16T13:39:01Z</time>
      </trkpt>
      <trkpt lat="44.83401" lon="5.407">
        <ele>1365.21</ele>
        <time>2015-07-16T13:39:14Z</time>
      </trkpt>
      <trkpt lat="44.83413" lon="5.40688">
        <ele>1363.77</ele>
        <time>2015-07-16T13:39:31Z</time>
      </trkpt>
      <trkpt lat="44.83432" lon="5.40671">
        <ele>1362.33</ele>
        <time>2015-07-16T13:39:52Z</time>
      </trkpt>
      <trkpt lat="44.83449" lon="5.40664">
        <ele>1360.88</ele>
        <time>2015-07-16T13:40:08Z</time>
      </trkpt>
      <trkpt lat="44.83469" lon="5.40652">
        <ele>1359.44</ele>
        <time>2015-07-16T13:40:29Z</time>
      </trkpt>
      <trkpt lat="44.83486" lon="5.40648">
        <ele>1357.52</ele>
        <time>2015-07-16T13:40:48Z</time>
      </trkpt>
      <trkpt lat="44.83496" lon="5.4065">
        <ele>1355.12</ele>
        <time>2015-07-16T13:41:01Z</time>
      </trkpt>
      <trkpt lat="44.83511" lon="5.40648">
        <ele>1351.75</ele>
        <time>2015-07-16T13:41:18Z</time>
      </trkpt>
      <trkpt lat="44.83513" lon="5.40646">
        <ele>1351.27</ele>
        <time>2015-07-16T13:41:21Z</time>
      </trkpt>
      <trkpt lat="44.83524" lon="5.4065">
        <ele>1348.39</ele>
        <time>2015-07-16T13:41:35Z</time>
      </trkpt>
      <trkpt lat="44.83533" lon="5.4065">
        <ele>1346.46</ele>
        <time>2015-07-16T13:41:52Z</time>
      </trkpt>
      <trkpt lat="44.83536" lon="5.40649">
        <ele>1345.5</ele>
        <time>2015-07-16T13:41:57Z</time>
      </trkpt>
      <trkpt lat="44.83542" lon="5.40647">
        <ele>1344.06</ele>
        <time>2015-07-16T13:42:04Z</time>
      </trkpt>
      <trkpt lat="44.83555" lon="5.40641">
        <ele>1341.18</ele>
        <time>2015-07-16T13:42:20Z</time>
      </trkpt>
      <trkpt lat="44.83566" lon="5.40641">
        <ele>1338.29</ele>
        <time>2015-07-16T13:42:32Z</time>
      </trkpt>
      <trkpt lat="44.83578" lon="5.40639">
        <ele>1334.93</ele>
        <time>2015-07-16T13:42:46Z</time>
      </trkpt>
      <trkpt lat="44.83581" lon="5.40637">
        <ele>1333.49</ele>
        <time>2015-07-16T13:42:51Z</time>
      </trkpt>
      <trkpt lat="44.83587" lon="5.40637">
        <ele>1332.04</ele>
        <time>2015-07-16T13:42:58Z</time>
      </trkpt>
      <trkpt lat="44.83601" lon="5.4064">
        <ele>1328.2</ele>
        <time>2015-07-16T13:43:13Z</time>
      </trkpt>
      <trkpt lat="44.83614" lon="5.40641">
        <ele>1324.83</ele>
        <time>2015-07-16T13:43:28Z</time>
      </trkpt>
      <trkpt lat="44.8362" lon="5.40644">
        <ele>1321.95</ele>
        <time>2015-07-16T13:43:43Z</time>
      </trkpt>
      <trkpt lat="44.83631" lon="5.40647">
        <ele>1318.59</ele>
        <time>2015-07-16T13:43:55Z</time>
      </trkpt>
      <trkpt lat="44.83641" lon="5.40651">
        <ele>1315.22</ele>
        <time>2015-07-16T13:44:06Z</time>
      </trkpt>
      <trkpt lat="44.8365" lon="5.4065">
        <ele>1311.86</ele>
        <time>2015-07-16T13:44:21Z</time>
      </trkpt>
      <trkpt lat="44.83651" lon="5.40651">
        <ele>1311.38</ele>
        <time>2015-07-16T13:44:23Z</time>
      </trkpt>
      <trkpt lat="44.83663" lon="5.40652">
        <ele>1308.49</ele>
        <time>2015-07-16T13:44:40Z</time>
      </trkpt>
      <trkpt lat="44.83675" lon="5.40653">
        <ele>1306.09</ele>
        <time>2015-07-16T13:44:57Z</time>
      </trkpt>
      <trkpt lat="44.8369" lon="5.40652">
        <ele>1303.2</ele>
        <time>2015-07-16T13:45:15Z</time>
      </trkpt>
      <trkpt lat="44.83705" lon="5.40652">
        <ele>1301.28</ele>
        <time>2015-07-16T13:45:34Z</time>
      </trkpt>
      <trkpt lat="44.8372" lon="5.40653">
        <ele>1298.88</ele>
        <time>2015-07-16T13:45:51Z</time>
      </trkpt>
      <trkpt lat="44.83737" lon="5.40653">
        <ele>1296.48</ele>
        <time>2015-07-16T13:46:10Z</time>
      </trkpt>
      <trkpt lat="44.83747" lon="5.40649">
        <ele>1295.03</ele>
        <time>2015-07-16T13:46:27Z</time>
      </trkpt>
      <trkpt lat="44.83763" lon="5.40646">
        <ele>1292.63</ele>
        <time>2015-07-16T13:46:46Z</time>
      </trkpt>
      <trkpt lat="44.83773" lon="5.40642">
        <ele>1291.67</ele>
        <time>2015-07-16T13:46:57Z</time>
      </trkpt>
      <trkpt lat="44.83791" lon="5.40641">
        <ele>1288.78</ele>
        <time>2015-07-16T13:47:17Z</time>
      </trkpt>
      <trkpt lat="44.83811" lon="5.40646">
        <ele>1285.9</ele>
        <time>2015-07-16T13:47:40Z</time>
      </trkpt>
      <trkpt lat="44.83829" lon="5.40643">
        <ele>1284.46</ele>
        <time>2015-07-16T13:47:58Z</time>
      </trkpt>
      <trkpt lat="44.83836" lon="5.40638">
        <ele>1283.02</ele>
        <time>2015-07-16T13:48:07Z</time>
      </trkpt>
      <trkpt lat="44.83848" lon="5.40629">
        <ele>1282.06</ele>
        <time>2015-07-16T13:48:25Z</time>
      </trkpt>
      <trkpt lat="44.83868" lon="5.4063">
        <ele>1280.61</ele>
        <time>2015-07-16T13:48:45Z</time>
      </trkpt>
      <trkpt lat="44.83887" lon="5.4062">
        <ele>1278.69</ele>
        <time>2015-07-16T13:49:08Z</time>
      </trkpt>
      <trkpt lat="44.83893" lon="5.40616">
        <ele>1277.73</ele>
        <time>2015-07-16T13:49:16Z</time>
      </trkpt>
      <trkpt lat="44.8391" lon="5.40605">
        <ele>1276.29</ele>
        <time>2015-07-16T13:49:36Z</time>
      </trkpt>
      <trkpt lat="44.83925" lon="5.406">
        <ele>1275.81</ele>
        <time>2015-07-16T13:49:54Z</time>
      </trkpt>
      <trkpt lat="44.83931" lon="5.40596">
        <ele>1274.36</ele>
        <time>2015-07-16T13:50:13Z</time>
      </trkpt>
      <trkpt lat="44.8395" lon="5.40589">
        <ele>1272.92</ele>
        <time>2015-07-16T13:50:34Z</time>
      </trkpt>
      <trkpt lat="44.8396" lon="5.40586">
        <ele>1272.92</ele>
        <time>2015-07-16T13:50:52Z</time>
      </trkpt>
      <trkpt lat="44.83972" lon="5.4058">
        <ele>1271.96</ele>
        <time>2015-07-16T13:51:10Z</time>
      </trkpt>
      <trkpt lat="44.83986" lon="5.40581">
        <ele>1271.48</ele>
        <time>2015-07-16T13:51:24Z</time>
      </trkpt>
      <trkpt lat="44.83991" lon="5.40603">
        <ele>1271</ele>
        <time>2015-07-16T13:51:43Z</time>
      </trkpt>
      <trkpt lat="44.84005" lon="5.40616">
        <ele>1270.52</ele>
        <time>2015-07-16T13:52:00Z</time>
      </trkpt>
      <trkpt lat="44.8403" lon="5.40618">
        <ele>1270.04</ele>
        <time>2015-07-16T13:52:21Z</time>
      </trkpt>
      <trkpt lat="44.8405" lon="5.40621">
        <ele>1268.12</ele>
        <time>2015-07-16T13:52:42Z</time>
      </trkpt>
      <trkpt lat="44.84067" lon="5.40621">
        <ele>1267.64</ele>
        <time>2015-07-16T13:53:03Z</time>
      </trkpt>
      <trkpt lat="44.84075" lon="5.40617">
        <ele>1267.16</ele>
        <time>2015-07-16T13:53:21Z</time>
      </trkpt>
      <trkpt lat="44.84075" lon="5.40614">
        <ele>1266.67</ele>
        <time>2015-07-16T13:53:45Z</time>
      </trkpt>
      <trkpt lat="44.84076" lon="5.40614">
        <ele>1266.19</ele>
        <time>2015-07-16T13:54:06Z</time>
      </trkpt>
      <trkpt lat="44.84075" lon="5.40615">
        <ele>1265.71</ele>
        <time>2015-07-16T13:54:24Z</time>
      </trkpt>
      <trkpt lat="44.84076" lon="5.40616">
        <ele>1265.71</ele>
        <time>2015-07-16T13:54:50Z</time>
      </trkpt>
      <trkpt lat="44.8407" lon="5.40615">
        <ele>1267.64</ele>
        <time>2015-07-16T13:55:08Z</time>
      </trkpt>
      <trkpt lat="44.8407" lon="5.40616">
        <ele>1266.19</ele>
        <time>2015-07-16T13:55:10Z</time>
      </trkpt>
      <trkpt lat="44.84075" lon="5.40621">
        <ele>1266.19</ele>
        <time>2015-07-16T13:55:24Z</time>
      </trkpt>
      <trkpt lat="44.8408" lon="5.4062">
        <ele>1265.71</ele>
        <time>2015-07-16T13:55:37Z</time>
      </trkpt>
      <trkpt lat="44.84079" lon="5.40618">
        <ele>1265.71</ele>
        <time>2015-07-16T13:55:54Z</time>
      </trkpt>
      <trkpt lat="44.84073" lon="5.40613">
        <ele>1263.79</ele>
        <time>2015-07-16T13:56:08Z</time>
      </trkpt>
      <trkpt lat="44.84073" lon="5.40613">
        <ele>1265.23</ele>
        <time>2015-07-16T13:56:11Z</time>
      </trkpt>
      <trkpt lat="44.84077" lon="5.40615">
        <ele>1264.75</ele>
        <time>2015-07-16T13:56:32Z</time>
      </trkpt>
      <trkpt lat="44.84074" lon="5.4061">
        <ele>1264.27</ele>
        <time>2015-07-16T13:56:48Z</time>
      </trkpt>
      <trkpt lat="44.84077" lon="5.40609">
        <ele>1264.27</ele>
        <time>2015-07-16T13:57:15Z</time>
      </trkpt>
      <trkpt lat="44.84076" lon="5.40612">
        <ele>1263.79</ele>
        <time>2015-07-16T13:57:22Z</time>
      </trkpt>
      <trkpt lat="44.84076" lon="5.40611">
        <ele>1264.75</ele>
        <time>2015-07-16T13:57:47Z</time>
      </trkpt>
      <trkpt lat="44.84073" lon="5.4062">
        <ele>1264.75</ele>
        <time>2015-07-16T13:58:07Z</time>
      </trkpt>
      <trkpt lat="44.84072" lon="5.40614">
        <ele>1264.27</ele>
        <time>2015-07-16T13:58:35Z</time>
      </trkpt>
      <trkpt lat="44.8407" lon="5.40617">
        <ele>1263.31</ele>
        <time>2015-07-16T13:58:58Z</time>
      </trkpt>
      <trkpt lat="44.84073" lon="5.40616">
        <ele>1262.83</ele>
        <time>2015-07-16T13:59:36Z</time>
      </trkpt>
    </trkseg>
  </trk>
</gpx>